GFSGBSN_con_sbcape_000.txt.gz
CAPE
5 4 4 8 9 7 7 8 8 6 6 4 2 3 3 2 1 1 1 0 1 1 1 3 3 1 0 0 0 0 0 12 0 0 0 0 0 0 0 0 0 0 0 0 5 0 0
12 8 6 4 8 9 8 8 6 6 5 5 3 4 6 4 1 0 1 4 3 2 2 4 2 0 0 0 0 0 0 0 0 0 0 0 0 0 0 0 0 0 0 3 7 0 0
9 12 13 4 8 12 12 10 9 7 4 5 4 4 5 4 1 0 2 4 3 2 2 3 0 0 0 0 0 0 0 0 0 0 0 0 0 0 0 0 0 0 0 0 1 5 223
13 12 13 12 12 13 13 13 12 13 10 8 6 5 2 1 0 1 5 5 3 1 3 1 0 0 0 0 0 0 0 0 0 0 0 0 0 0 0 0 0 0 0 14 2 13 128
14 14 14 15 12 20 20 12 10 11 16 15 12 9 7 5 6 6 2 5 1 0 2 1 0 0 0 0 0 0 0 0 0 0 0 0 0 0 0 0 0 0 0 2 9 0 54
20 17 16 16 14 25 27 21 17 11 10 13 13 12 9 6 7 4 3 0 0 0 0 0 0 0 0 0 0 0 0 0 0 0 0 0 0 0 0 0 0 0 0 0 22 21 47
19 15 13 15 17 23 29 23 18 13 11 12 10 6 7 6 4 1 0 0 0 0 0 0 0 0 0 0 0 0 0 0 0 0 0 0 0 0 0 0 0 0 0 11 8 6 29
16 16 15 15 14 13 14 12 15 15 15 16 14 9 9 7 2 1 0 0 0 0 0 0 0 0 0 0 0 0 0 0 0 0 0 0 0 0 0 0 0 0 0 0 0 0 18
10 12 20 15 13 19 18 15 24 23 19 15 11 7 9 2 0 0 0 0 0 0 0 0 0 0 0 0 0 0 0 0 0 0 0 0 0 0 0 0 0 0 0 0 0 0 10
10 23 22 18 18 24 25 25 24 23 12 10 9 7 5 6 0 0 0 0 0 0 0 0 0 0 0 0 0 0 0 0 0 0 0 0 0 0 0 0 0 0 0 0 0 2 1
26 30 27 26 27 23 25 23 21 19 13 12 10 1 4 6 0 0 0 0 0 0 0 0 0 0 0 0 0 0 0 0 0 0 0 0 0 0 0 0 0 0 0 0 0 0 1
15 10 10 20 23 27 27 20 19 17 10 9 7 0 7 0 0 0 0 0 0 0 0 0 0 0 0 0 0 0 0 0 0 0 0 0 0 0 0 0 0 0 0 0 0 0 0
15 13 12 14 23 20 23 14 15 21 7 1 0 0 3 1 0 0 0 0 0 0 0 0 0 0 0 0 0 0 0 0 0 0 0 0 0 0 0 0 0 0 0 0 0 0 0
25 31 38 40 43 29 19 15 15 13 6 0 0 0 0 0 0 0 0 0 0 0 0 0 0 0 0 0 0 0 0 0 0 0 0 0 0 0 0 0 0 0 0 0 0 0 0
42 38 37 43 40 37 29 22 18 11 3 0 0 0 0 0 0 0 0 0 0 0 0 0 0 0 0 0 0 0 0 0 0 0 0 0 0 0 0 0 0 0 0 0 0 0 0
25 26 40 46 49 46 35 31 25 11 1 0 0 0 0 0 0 0 0 0 0 0 0 0 0 0 0 0 0 0 0 0 0 0 0 0 0 0 0 0 0 0 0 0 0 0 0
33 25 24 32 46 53 40 34 31 14 0 0 0 0 0 0 0 0 0 0 0 0 0 0 0 0 0 0 0 0 0 0 0 0 0 0 0 0 0 0 0 0 0 0 0 0 0
37 38 40 41 49 58 54 42 30 8 0 0 0 0 0 0 0 0 0 0 0 0 0 0 0 0 0 0 0 0 0 0 0 0 0 0 0 0 0 0 0 0 0 0 0 0 0
39 43 48 32 47 30 50 48 39 10 9 6 0 0 0 0 0 0 0 0 0 0 0 0 0 0 0 0 0 0 0 0 0 0 0 0 0 0 0 0 0 0 0 0 0 0 0
19 33 33 28 29 27 42 43 38 21 6 12 0 0 0 0 0 0 0 0 0 0 0 0 0 0 0 0 0 0 0 0 0 12 197 0 0 0 0 0 0 0 0 0 0 0 0
38 49 44 24 41 44 45 51 41 20 5 7 0 0 0 0 0 0 0 0 0 0 0 0 0 0 0 0 0 0 0 0 7 3 0 0 0 0 0 0 0 0 0 0 0 0 0
43 45 38 37 41 51 43 69 63 25 5 3 6 0 0 0 0 0 0 0 0 0 0 0 0 0 0 0 0 0 0 0 20 30 0 0 0 0 0 0 0 0 0 0 0 0 0
54 51 46 46 58 49 48 63 67 34 0 0 0 0 8 0 0 0 0 0 0 0 0 0 0 0 0 0 0 0 0 0 4 4 0 0 0 0 0 0 0 0 0 0 0 0 0
53 59 60 60 67 65 70 75 70 69 15 12 1 10 26 1 0 0 0 0 0 0 0 0 0 0 0 0 0 0 0 0 0 0 0 14 0 0 0 0 0 0 0 0 0 0 0
77 84 88 89 77 84 87 68 73 94 49 7 2 0 31 7 5 0 0 0 0 0 0 0 0 0 0 0 0 0 0 0 0 0 0 0 0 0 0 0 0 11 0 10 42 13 0
77 72 86 81 78 74 77 74 64 87 77 2 0 0 4 9 0 0 0 0 0 0 0 0 0 0 0 0 0 0 2 0 0 3 0 0 0 0 0 0 1 0 0 0 3 16 0
105 102 87 88 96 83 80 70 67 69 89 21 0 18 20 41 1 0 0 0 0 0 0 0 0 0 0 0 0 0 0 0 39 27 12 0 0 0 0 2 8 0 0 0 41 0 0
138 122 107 86 89 69 76 83 90 72 60 26 0 6 22 30 1 0 0 0 0 0 0 0 0 0 0 0 0 0 0 0 37 0 12 0 100 8 0 23 117 0 18 22 1 0 0
119 114 105 98 79 56 78 81 77 61 59 56 2 0 34 25 0 0 0 0 0 0 0 0 0 0 0 0 0 0 7 0 9 131 4 65 103 60 0 0 0 0 0 0 0 0 0

GFSGBSN_con_sbcape_003.txt.gz
CAPE
10 5 4 3 4 2 4 4 2 5 8 7 6 4 4 3 2 1 0 0 0 1 2 3 4 2 0 0 0 0 0 80 0 0 0 0 0 0 0 0 0 0 0 0 8 91 177
14 5 9 9 6 4 4 3 9 11 9 10 8 9 8 6 6 1 2 5 3 2 2 3 0 0 0 0 0 0 0 0 0 0 0 0 0 0 0 0 0 0 0 0 26 71 121
16 16 9 5 3 8 13 8 3 8 8 9 9 9 10 7 2 0 2 5 5 3 4 0 1 1 0 0 0 0 0 0 0 0 0 0 0 0 0 0 0 0 18 31 41 26 171
15 17 13 4 5 11 11 11 11 7 7 8 9 9 7 6 4 4 5 7 4 4 1 0 1 0 0 0 0 0 0 0 0 0 0 0 0 0 0 0 0 0 26 27 35 162 284
15 15 14 6 11 21 19 12 8 11 13 13 10 11 11 9 7 3 4 5 3 0 0 2 0 0 0 0 0 0 0 0 0 0 0 0 0 0 0 0 0 0 2 31 48 127 337
14 15 14 6 13 19 21 18 14 16 18 17 12 10 9 7 4 5 4 0 0 0 1 2 0 0 0 0 0 0 0 0 0 0 0 0 0 0 0 0 0 0 9 38 90 61 302
16 16 13 17 23 21 24 23 10 13 14 14 11 9 11 6 4 2 0 0 0 0 0 0 0 0 0 0 0 0 0 0 0 0 0 0 0 0 0 0 0 0 24 72 65 45 89
8 16 18 17 12 14 9 9 10 9 9 10 8 6 8 4 1 1 0 0 0 0 0 0 0 0 0 0 0 0 0 0 0 0 0 0 0 0 0 0 0 0 11 52 23 38 67
15 18 23 22 23 22 18 15 16 16 16 15 9 6 8 4 0 0 0 0 0 0 0 0 0 0 0 0 0 0 0 0 0 0 0 0 0 0 0 0 0 0 0 27 30 6 54
17 26 25 19 20 22 26 27 21 16 16 13 8 5 6 3 0 0 0 0 0 0 0 0 0 0 0 0 0 0 0 0 0 0 0 0 0 0 0 0 0 0 0 5 65 49 39
25 28 26 24 27 33 27 20 9 11 10 8 7 2 7 2 0 0 0 0 0 0 0 0 0 0 0 0 0 0 0 0 0 0 0 0 0 0 0 0 0 0 0 0 20 49 5
25 23 20 24 28 38 25 18 13 15 11 6 3 0 9 0 1 0 0 0 0 0 0 0 0 0 0 0 0 0 0 0 0 0 0 0 0 0 0 0 0 0 0 0 0 0 0
30 40 29 26 38 39 26 12 8 7 11 3 0 0 2 1 0 0 0 0 0 0 0 0 0 0 0 0 0 0 0 0 0 0 0 0 0 0 0 0 0 0 0 0 0 0 0
38 40 41 47 41 40 42 27 19 16 8 0 0 0 0 0 0 0 0 0 0 0 0 0 0 0 0 0 0 0 0 0 0 0 0 0 0 0 0 0 0 0 0 0 0 0 0
45 58 48 44 36 43 43 37 26 16 1 0 0 0 0 0 0 0 0 0 0 0 0 0 0 0 0 0 0 0 0 0 0 0 0 0 0 0 0 0 0 0 0 0 0 0 0
35 31 38 42 52 51 46 41 43 27 8 0 0 0 0 0 0 0 0 0 0 0 0 0 0 0 0 0 0 0 0 0 0 0 0 0 0 0 0 0 0 0 0 0 0 0 0
56 51 44 50 62 52 55 56 43 24 6 0 0 0 0 0 0 0 0 0 0 0 0 0 0 0 0 0 0 0 0 0 0 0 0 0 0 0 0 0 0 0 0 0 0 0 0
60 50 48 46 49 45 40 59 41 22 2 0 1 0 0 0 0 0 0 0 0 0 0 0 0 0 0 0 0 0 0 0 0 0 0 0 0 0 0 0 0 0 0 0 0 0 0
71 52 41 67 50 35 51 64 55 31 21 18 0 0 0 0 0 0 0 0 0 0 0 0 0 0 0 0 0 0 0 0 0 0 0 0 0 0 0 0 0 0 0 0 0 0 0
42 56 56 57 46 12 35 60 57 40 25 10 1 0 0 0 0 0 0 0 0 0 0 0 0 0 0 0 0 0 0 0 0 0 23 0 0 0 0 0 0 0 0 0 0 0 0
55 58 56 48 32 29 38 64 52 31 17 1 1 0 2 0 0 0 0 0 0 0 0 0 0 0 0 0 0 0 0 0 0 0 17 9 0 0 0 0 0 0 0 0 0 0 0
44 50 54 61 71 69 75 98 79 37 0 5 8 16 1 5 0 0 0 0 0 0 0 0 0 0 0 0 0 0 0 0 0 59 131 0 51 0 0 0 0 0 0 0 0 0 0
45 56 69 79 80 79 89 83 110 61 0 7 0 2 9 0 0 0 0 0 0 0 0 0 0 0 0 0 0 0 0 0 2 38 277 349 61 104 2 0 0 0 0 0 0 0 0
57 61 68 82 81 81 86 98 127 87 41 72 3 15 24 0 0 0 0 0 0 0 0 0 0 0 0 0 0 0 0 0 0 1 10 490 451 2 71 0 6 0 0 0 0 0 0
74 77 82 82 87 85 92 96 122 80 78 75 2 38 36 4 0 0 0 1 0 0 0 0 0 0 0 0 0 0 0 9 0 0 30 350 86 19 2 35 13 0 0 0 0 0 0
84 62 87 121 114 98 122 113 105 134 123 116 38 9 54 16 0 0 8 5 0 0 0 0 0 0 0 0 0 8 0 0 90 232 41 134 180 109 84 36 33 70 56 19 33 0 0
68 47 100 136 135 107 125 101 116 115 147 68 123 9 77 46 6 0 0 0 0 0 0 0 0 0 0 34 10 55 25 24 51 173 174 420 242 90 322 181 50 86 47 75 120 73 0
38 92 123 115 113 117 100 69 84 88 113 71 67 14 74 34 1 0 0 2 7 0 0 0 0 0 1 197 119 102 33 58 252 384 313 281 240 298 456 366 165 11 152 283 179 31 44
75 103 104 112 116 136 118 66 44 47 89 103 68 21 76 70 1 0 0 0 0 0 0 0 0 0 0 0 0 4 231 152 372 259 191 220 130 144 270 264 7 0 16 115 163 147 125

GFSGBSN_con_sbcape_006.txt.gz
CAPE
12 4 5 8 7 4 6 7 4 6 4 3 2 3 2 3 3 2 1 3 3 2 2 2 2 1 0 0 0 0 0 0 0 0 0 0 0 0 0 0 0 0 0 0 0 1 22
12 12 9 12 12 6 12 9 10 9 7 8 6 7 6 4 3 1 2 5 5 3 1 2 3 1 0 0 0 0 0 0 0 0 0 0 0 0 0 0 0 0 0 0 0 0 69
15 16 12 12 14 13 12 9 9 8 7 8 11 9 7 6 2 0 1 2 4 2 3 2 0 0 0 0 0 0 0 0 0 0 0 0 0 0 0 0 0 0 0 0 1 49 289
13 12 7 12 13 13 12 14 7 9 7 11 7 4 2 2 2 4 4 6 2 2 0 1 1 0 0 0 0 0 0 0 0 0 0 0 0 0 0 0 0 0 0 19 72 202 399
17 17 12 17 16 22 13 9 9 8 10 14 7 4 4 6 7 6 3 3 1 0 1 1 0 0 0 0 0 0 0 0 0 0 0 0 0 0 0 0 0 0 1 9 220 264 515
6 12 13 18 11 19 17 14 11 12 12 13 14 9 5 4 5 2 1 0 0 0 0 0 0 0 0 0 0 0 0 0 0 0 0 0 0 0 0 0 0 1 0 29 39 287 433
8 11 15 14 15 14 17 8 5 3 6 10 8 5 5 3 3 0 0 0 0 0 0 0 0 0 0 0 0 0 0 0 0 0 0 0 0 0 0 0 0 3 25 43 46 238 354
11 11 11 7 7 10 12 1 4 3 3 4 6 7 4 1 0 0 0 0 0 0 0 0 0 0 0 0 0 0 0 0 0 0 0 0 0 0 0 0 0 0 3 36 85 145 204
13 15 11 12 13 15 24 23 15 3 5 5 3 5 3 2 0 0 0 0 0 0 0 0 0 0 0 0 0 0 0 0 0 0 0 0 0 0 0 0 0 0 0 17 88 133 170
17 25 27 21 21 21 29 27 18 1 5 6 4 2 2 0 0 0 0 0 0 0 0 0 0 0 0 0 0 0 0 0 0 0 0 0 0 0 0 0 0 0 0 3 41 91 111
28 31 43 38 29 30 25 17 14 1 8 5 2 0 0 0 0 0 0 0 0 0 0 0 0 0 0 0 0 0 0 0 0 0 0 0 0 0 0 0 0 0 0 0 3 68 100
26 36 31 32 30 32 31 21 12 4 7 11 3 0 1 0 0 0 0 0 0 0 0 0 0 0 0 0 0 0 0 0 0 0 0 0 0 0 0 0 0 0 0 4 16 31 80
36 36 29 31 31 33 33 29 17 9 2 0 0 0 0 0 0 0 0 0 0 0 0 0 0 0 0 0 0 0 0 0 0 0 0 0 0 0 0 0 0 0 0 14 35 40 41
44 52 48 38 43 44 49 44 29 19 15 0 0 0 0 0 0 0 0 0 0 0 0 0 0 0 0 0 0 0 0 0 0 0 0 0 0 0 0 0 0 0 0 8 40 26 29
74 60 61 54 44 50 56 48 32 27 16 0 0 0 0 0 0 0 0 0 0 0 0 0 0 0 0 0 0 0 0 0 0 0 0 0 0 0 0 0 0 0 0 0 27 48 28
87 65 78 73 70 61 57 33 33 33 10 0 0 0 0 0 0 0 0 0 0 0 0 0 0 0 0 0 0 0 0 0 0 0 0 0 0 0 0 0 0 0 0 0 7 77 47
32 34 27 28 36 38 16 10 15 21 1 0 0 0 0 0 0 0 0 0 0 0 0 0 0 0 0 0 0 0 0 0 0 0 0 0 0 0 0 0 0 0 0 0 1 10 17
39 57 58 53 43 47 32 37 32 22 0 0 0 0 0 0 0 0 0 0 0 0 0 0 0 0 0 0 0 0 0 0 0 0 0 0 0 0 0 0 0 0 0 0 6 4 12
50 55 51 48 54 43 36 40 41 32 20 10 0 0 0 0 0 0 0 0 0 0 0 0 0 0 0 0 0 0 0 0 0 0 0 1 0 9 0 0 0 0 0 0 0 1 110
54 58 67 67 61 57 58 52 50 38 23 26 1 0 0 1 0 0 0 0 0 0 0 0 0 0 0 0 0 0 0 0 0 0 17 0 0 0 0 0 0 0 0 0 0 3 3
34 41 56 64 70 67 68 87 73 61 27 34 14 0 1 0 72 72 55 42 2 0 0 0 0 0 0 0 0 0 0 0 0 0 0 21 23 28 0 0 0 0 0 0 0 0 4
48 58 60 62 73 77 78 103 96 46 13 28 36 51 37 0 0 0 0 0 36 2 5 0 0 0 0 0 0 0 0 0 0 0 0 7 102 47 43 8 7 3 0 0 0 0 0
55 54 53 63 68 66 71 84 136 78 19 47 28 24 28 1 0 0 0 3 11 41 4 0 0 0 0 0 0 0 0 0 0 0 0 33 188 326 158 91 65 57 11 8 0 0 0
74 74 71 70 76 88 81 73 98 128 55 86 59 25 15 7 1 0 1 0 0 3 7 0 0 0 0 0 0 0 0 0 0 0 0 159 521 467 359 252 191 2 2 1 0 0 0
54 65 84 101 99 106 89 77 110 158 60 56 71 21 35 24 8 0 0 0 7 2 2 0 0 0 0 0 0 0 0 0 0 0 0 24 216 427 274 342 185 64 123 21 4 0 0
86 83 62 73 106 124 117 119 123 145 134 75 74 51 31 28 0 4 3 10 15 10 0 0 0 0 0 0 1 34 11 0 0 1 43 87 160 330 333 234 182 494 385 275 318 62 0
64 90 90 78 99 125 118 125 120 104 132 61 123 153 67 69 13 6 7 9 9 5 14 1 0 0 5 113 63 90 58 29 32 108 195 390 490 166 331 365 295 526 276 459 395 44 11
65 84 103 106 118 117 128 127 116 81 53 71 57 62 37 30 6 11 20 15 8 26 29 1 0 6 36 256 199 120 130 115 98 266 638 539 484 251 450 507 424 217 491 617 688 542 486
70 37 92 117 111 113 103 113 72 40 20 42 32 200 263 59 5 1 2 2 1 1 6 5 0 0 0 54 219 225 444 271 149 190 526 479 319 353 431 348 376 216 265 443 624 686 630

GFSGBSN_con_sbcape_009.txt.gz
CAPE
14 12 12 13 16 7 10 9 9 6 6 5 6 4 2 2 1 1 1 3 3 1 1 0 1 1 0 0 0 0 0 1 0 0 0 0 0 0 0 0 0 0 5 5 4 10 23
12 12 8 10 12 11 7 8 9 5 5 4 4 6 5 3 1 0 2 5 4 1 1 1 1 0 0 0 0 0 0 0 0 0 0 0 0 0 0 0 0 1 2 0 3 10 5
8 9 7 11 7 14 8 10 6 6 5 4 4 2 4 3 0 0 1 3 1 1 2 2 1 0 0 0 0 0 0 0 0 0 0 0 0 0 0 0 0 0 0 1 0 4 3
7 6 9 11 11 10 10 4 6 3 4 3 3 3 3 1 0 0 2 2 0 1 1 0 1 0 0 0 0 0 0 0 0 0 0 0 0 0 0 0 0 0 0 16 65 6 6
10 11 11 10 11 14 13 6 4 4 5 5 5 6 4 2 1 1 0 0 0 0 0 0 0 0 0 0 0 0 0 0 0 0 0 0 0 0 0 0 0 0 0 7 14 19 103
12 11 9 7 8 13 16 14 7 8 5 6 6 3 5 3 0 0 0 0 0 0 0 0 0 0 0 0 0 0 0 0 0 0 0 0 0 0 0 0 0 4 11 78 194 13 191
10 8 10 8 9 12 15 15 12 9 3 4 6 6 3 0 0 0 0 0 0 0 0 0 0 0 0 0 0 0 0 0 0 0 0 0 0 0 0 0 0 12 64 38 60 23 85
15 13 10 8 9 13 15 19 15 11 5 3 5 5 2 0 0 0 0 0 0 0 0 0 0 0 0 0 0 0 0 0 0 0 0 0 0 0 0 0 0 0 27 69 41 30 46
8 8 10 19 19 26 28 29 22 14 9 6 4 7 0 0 0 0 0 0 0 0 0 0 0 0 0 0 0 0 0 0 0 0 0 0 0 0 0 0 0 0 7 45 79 144 108
19 21 28 42 32 23 28 25 22 16 11 8 5 4 0 0 0 0 0 0 0 0 0 0 0 0 0 0 0 0 0 0 0 0 0 0 0 0 0 0 0 0 0 14 62 44 129
29 39 36 45 32 28 27 18 21 15 6 3 11 1 0 0 0 0 0 0 0 0 0 0 0 0 0 0 0 0 0 0 0 0 0 0 0 0 0 0 0 0 0 14 35 141 174
28 31 38 35 35 37 21 15 21 18 1 0 1 0 0 0 0 0 0 0 0 0 0 0 0 0 0 0 0 0 0 0 0 0 0 0 0 0 0 0 0 0 0 23 30 70 102
55 55 50 44 35 25 8 7 0 0 0 0 0 0 0 0 0 0 0 0 0 0 0 0 0 0 0 0 0 0 0 0 0 0 0 0 0 0 0 0 0 0 0 16 59 66 40
70 72 69 54 41 25 3 0 0 0 0 0 0 0 0 0 0 0 0 0 0 0 0 0 0 0 0 0 0 0 0 0 0 0 0 0 0 0 0 0 0 0 0 0 24 46 47
72 61 65 65 55 45 42 27 25 14 8 0 0 0 0 0 0 0 0 0 0 0 0 0 0 0 0 0 0 0 0 0 0 0 0 0 0 0 0 0 0 0 0 0 29 77 69
64 58 57 56 51 51 47 38 30 21 12 0 0 0 0 0 0 0 0 0 0 0 0 0 0 0 0 0 0 0 0 0 0 0 0 0 0 0 0 0 0 0 0 0 13 104 88
33 33 45 49 55 54 50 50 41 19 1 0 0 0 0 0 0 0 0 0 0 0 0 0 0 0 0 0 0 0 0 0 0 0 0 0 0 0 0 0 0 0 0 0 4 44 69
43 47 43 48 60 59 42 57 50 25 0 0 0 0 0 0 2 0 0 0 0 0 0 0 0 0 0 0 0 0 0 0 0 0 0 0 0 0 0 0 0 0 0 0 23 45 28
50 51 42 48 61 42 48 64 54 29 21 21 3 0 0 0 0 0 0 0 0 0 0 0 0 0 0 0 0 0 0 0 0 0 0 0 0 0 0 0 0 0 0 0 0 4 138
46 37 40 47 48 43 57 71 57 42 40 30 35 11 10 10 0 0 0 0 1 0 0 0 0 0 0 0 0 0 0 0 0 0 0 0 0 0 0 0 0 0 0 0 0 0 3
56 57 60 57 44 53 70 87 70 59 28 12 61 47 49 64 62 6 1 12 28 19 27 7 1 0 0 0 0 0 0 0 0 0 0 0 0 0 0 1 9 2 0 0 0 0 0
63 66 68 70 73 74 75 94 94 60 5 10 104 104 69 91 102 6 4 2 0 0 2 0 3 2 0 0 0 0 0 0 0 0 0 0 0 10 1 0 0 2 4 1 0 0 0
51 70 84 91 94 95 89 101 119 82 10 58 92 191 155 17 103 108 5 7 11 5 1 0 0 0 24 3 0 1 19 1 0 21 12 6 31 179 85 40 67 77 0 0 2 2 0
61 67 90 103 99 113 117 115 118 143 69 171 81 55 126 115 124 129 82 0 13 2 15 0 0 1 0 0 0 0 0 10 15 8 1 39 115 81 91 320 193 0 18 35 28 21 17
91 97 103 139 117 107 116 142 133 149 134 238 107 12 44 98 86 108 87 19 13 6 10 0 0 0 0 1 0 8 13 0 0 0 1 34 68 71 357 414 243 138 329 416 370 62 12
133 138 131 153 148 121 140 163 134 144 176 258 374 47 44 22 52 74 60 24 40 11 25 22 0 0 0 1 0 8 20 0 0 0 0 6 95 359 495 298 382 287 454 502 363 149 7
158 169 140 147 177 168 177 159 153 135 109 259 120 56 30 35 8 44 52 35 13 13 42 2 37 0 0 0 8 4 15 7 10 1 0 0 44 28 183 348 266 803 431 570 329 357 1104
127 106 89 64 128 164 151 146 152 157 90 174 234 299 55 20 7 31 31 55 1 34 3 26 51 27 45 71 54 35 21 18 44 82 94 4 63 47 232 217 254 674 648 611 1205 1033 1090
88 85 79 35 99 119 138 110 128 58 42 40 146 154 40 38 7 23 28 29 33 39 25 12 19 1 28 140 171 90 197 214 116 82 102 120 35 92 242 529 1269 917 791 908 905 1046 1033

GFSGBSN_con_sbcape_012.txt.gz
CAPE
10 9 8 11 10 13 7 6 6 7 3 3 4 4 4 0 0 0 0 0 0 0 0 0 0 1 0 0 0 0 30 0 0 0 0 0 0 0 0 0 0 0 24 20 11 9 35
5 7 10 11 12 8 9 7 4 3 2 1 1 4 4 4 4 1 0 0 0 0 0 0 1 1 0 0 0 0 0 0 0 0 0 0 0 0 0 0 0 0 0 0 1 1 6
6 10 13 10 8 9 6 8 4 3 1 1 3 6 6 4 2 1 1 0 0 0 0 1 2 0 0 0 0 0 0 0 0 0 0 0 0 0 0 0 0 0 0 2 0 0 26
14 11 11 11 11 7 6 2 7 8 7 4 3 5 4 3 1 1 0 0 0 0 0 2 1 0 0 0 0 0 0 0 0 0 0 0 0 0 0 0 0 0 0 0 0 1 1
17 17 13 10 13 13 14 11 10 16 16 10 4 4 4 3 1 0 0 0 0 0 0 0 0 0 0 0 0 0 0 0 0 0 0 0 0 0 0 0 0 0 0 0 0 1 7
14 17 12 4 4 16 17 18 18 14 11 9 6 5 3 2 0 0 0 0 0 0 0 0 0 0 0 0 0 0 0 0 0 0 0 0 0 0 0 0 0 0 0 1 17 37 28
6 6 7 4 12 23 20 22 23 19 15 12 7 5 2 0 0 0 0 0 0 0 0 0 0 0 0 0 0 0 0 0 0 0 0 0 0 0 0 0 0 0 1 0 0 45 14
19 10 6 2 17 19 21 17 13 7 10 9 5 4 1 0 0 0 0 0 0 0 0 0 0 0 0 0 0 0 0 0 0 0 0 0 0 0 0 0 0 0 0 5 14 60 65
29 23 26 19 23 22 9 5 1 2 2 1 2 2 0 0 0 0 0 0 0 0 0 0 0 0 0 0 0 0 0 0 0 0 0 0 0 0 0 0 0 0 0 0 1 25 23
42 32 31 35 32 25 18 6 0 0 0 0 1 1 0 0 0 0 0 0 0 0 0 0 0 0 0 0 0 0 0 0 0 0 0 0 0 0 0 0 0 0 0 0 0 34 31
44 42 40 35 33 20 0 0 0 0 2 4 3 1 0 0 0 0 0 0 0 0 0 0 0 0 0 0 0 0 0 0 0 0 0 0 0 0 0 0 0 0 0 0 0 19 37
45 46 39 31 31 23 13 1 3 10 11 3 2 0 0 0 0 0 0 0 0 0 0 0 0 0 0 0 0 0 0 0 0 0 0 0 0 0 0 0 0 0 0 0 0 1 9
56 60 58 44 40 39 24 6 6 7 3 0 0 0 0 0 0 0 0 0 0 0 0 0 0 0 0 0 0 0 0 0 0 0 0 0 0 0 0 0 0 0 0 0 0 18 6
56 51 49 46 45 45 39 30 6 2 0 0 0 0 0 0 0 0 0 0 0 0 0 0 0 0 0 0 0 0 0 0 0 0 0 0 0 0 0 0 0 0 0 0 0 3 12
50 51 48 43 38 36 39 39 14 3 0 0 0 0 0 0 0 0 0 0 0 0 0 0 0 0 0 0 0 0 0 0 0 0 0 0 0 0 0 0 0 0 0 0 0 1 21
37 48 45 42 40 44 47 35 25 6 0 0 0 0 0 0 0 0 0 0 0 0 0 0 0 0 0 0 0 0 0 0 0 0 0 0 0 0 0 0 0 0 0 0 0 3 23
48 49 56 53 49 57 60 57 54 40 0 0 0 0 0 0 0 0 0 0 0 0 0 0 0 0 0 0 0 0 0 0 0 0 0 0 0 0 0 0 0 0 0 0 0 0 13
53 53 52 48 49 57 54 58 52 36 0 0 2 0 0 7 4 9 0 0 0 0 0 0 0 0 0 0 0 0 0 0 0 0 0 0 0 0 0 0 0 0 0 0 0 0 0
60 62 63 65 62 59 63 62 51 35 28 30 14 0 0 0 1 0 0 0 0 0 0 0 0 0 0 0 0 0 0 0 0 0 0 0 0 0 0 0 0 0 0 0 0 0 0
57 52 74 82 89 85 92 71 62 52 45 34 38 3 0 0 0 11 13 0 0 0 0 0 0 0 0 0 0 0 0 0 0 0 29 2 0 0 0 0 0 0 0 0 0 0 0
34 33 50 82 111 97 128 114 89 69 40 37 58 27 20 11 0 3 4 24 7 9 0 1 4 0 0 0 0 0 0 0 0 6 5 0 0 0 0 0 0 0 0 0 0 0 0
57 52 61 67 95 122 148 213 198 63 21 42 34 83 73 48 14 1 0 2 0 6 29 0 0 0 0 0 0 0 0 0 0 0 0 0 2 0 0 0 0 0 10 0 0 0 0
46 43 71 94 124 172 202 191 213 119 13 108 24 64 125 51 27 45 6 6 12 11 9 11 5 4 0 0 0 0 0 0 0 0 26 27 0 17 0 0 1 42 0 3 3 0 0
93 75 114 155 172 192 230 204 212 192 50 320 163 146 39 63 40 57 77 75 81 45 6 0 0 3 0 0 0 0 0 0 0 0 0 73 14 1 0 68 90 0 1 0 0 0 0
90 79 116 149 164 193 211 220 193 255 199 435 355 59 11 43 52 1 110 118 57 75 2 2 0 0 3 0 0 0 0 0 0 0 0 40 65 40 106 32 5 23 39 154 63 5 12
104 93 68 72 98 168 211 238 205 276 189 337 581 145 8 11 0 50 122 74 92 139 52 7 77 10 0 1 10 3 0 19 10 16 9 5 237 114 124 73 113 223 191 455 241 211 496
56 71 62 61 66 60 153 194 202 182 218 229 461 225 18 10 4 11 91 131 139 66 53 64 75 45 2 1 15 10 3 0 40 39 12 27 89 92 95 40 0 388 388 134 147 287 1039
89 61 60 58 55 46 163 129 161 147 186 251 230 378 57 22 9 10 12 68 35 23 31 39 2 101 10 9 21 9 1 0 0 73 100 20 4 39 369 336 202 445 205 160 1077 865 774
94 66 43 57 68 56 75 102 79 83 49 47 224 446 228 56 1 0 1 41 8 10 33 28 10 6 76 46 76 66 46 58 54 13 19 42 11 7 40 34 715 1114 1253 1018 925 883 934

GFSGBSN_con_sbcape_015.txt.gz
CAPE
4 4 7 7 10 10 6 6 6 6 4 3 2 2 2 1 0 0 0 0 0 0 0 0 0 1 0 0 0 0 0 8 0 0 0 0 0 0 0 0 0 0 6 46 42 57 40
17 8 6 6 9 4 2 3 3 5 4 4 4 6 7 6 4 2 1 0 0 0 0 0 0 1 0 0 0 0 0 0 0 0 0 0 0 0 0 0 0 0 0 26 14 71 61
14 11 6 13 12 12 4 4 4 2 1 3 5 4 5 6 3 2 2 0 0 0 0 0 2 0 0 0 0 0 0 0 0 0 0 0 0 0 0 0 0 0 0 0 0 0 105
29 21 12 13 16 14 12 6 6 8 5 4 5 4 2 2 3 3 1 0 0 0 0 0 0 0 0 0 0 0 0 0 0 0 0 0 0 0 0 0 0 0 0 0 0 0 1
14 23 26 22 19 15 16 20 15 14 9 7 6 4 1 0 0 0 0 0 0 0 0 0 0 0 0 0 0 0 0 0 0 0 0 0 0 0 0 0 0 0 0 0 0 0 0
22 28 22 18 12 17 16 14 15 7 4 4 3 3 2 0 0 0 0 0 0 0 0 0 0 0 0 0 0 0 0 0 0 0 0 0 0 0 0 0 0 0 0 0 0 0 0
25 15 10 12 19 16 16 8 13 8 9 12 10 6 3 0 0 0 0 0 0 0 0 0 0 0 0 0 0 0 0 0 0 0 0 0 0 0 0 0 0 0 0 0 0 5 62
32 33 22 25 27 26 19 2 1 3 4 9 9 4 2 0 0 0 0 0 0 0 0 0 0 0 0 0 0 0 0 0 0 0 0 0 0 0 0 0 0 0 0 0 0 1 78
48 46 34 33 33 28 24 14 7 4 4 4 3 1 0 0 0 0 0 0 0 0 0 0 0 0 0 0 0 0 0 0 0 0 0 0 0 0 0 0 0 0 0 0 0 0 24
58 46 40 38 31 29 30 20 10 7 7 6 3 0 0 0 0 0 0 0 0 0 0 0 0 0 0 0 0 0 0 0 0 0 0 0 0 0 0 0 0 0 0 0 0 0 56
32 31 36 37 38 32 23 19 13 5 5 3 2 0 0 0 0 0 0 0 0 0 0 0 0 0 0 0 0 0 0 0 0 0 0 0 0 0 0 0 0 0 0 0 0 0 4
40 34 31 31 35 30 20 11 9 6 3 4 2 0 0 0 0 0 0 0 0 0 0 0 0 0 0 0 0 0 0 0 0 0 0 0 0 0 0 0 0 0 0 0 0 0 0
37 37 37 38 35 24 7 8 13 6 1 0 0 0 0 0 0 0 0 0 0 0 0 0 0 0 0 0 0 0 0 0 0 0 0 0 0 0 0 0 0 0 0 0 0 0 0
41 28 29 33 26 21 25 29 21 5 1 0 0 0 0 0 0 0 0 0 0 0 0 0 0 0 0 0 0 0 0 0 0 0 0 0 0 0 0 0 0 0 0 0 0 0 0
40 35 39 35 34 35 38 39 34 21 1 0 0 0 0 0 0 0 0 0 0 0 0 0 0 0 0 0 0 0 0 0 0 0 0 0 0 0 0 0 0 0 0 0 0 0 0
38 44 45 40 38 36 40 43 44 38 0 0 0 0 0 0 0 0 0 0 0 0 0 0 0 0 0 0 0 0 0 0 0 0 0 0 0 0 0 0 0 0 0 0 0 0 0
45 50 51 53 52 52 49 48 46 37 0 0 0 0 0 0 0 0 0 0 0 0 0 0 0 0 0 0 0 0 0 0 0 0 0 0 0 0 0 0 0 0 0 0 0 0 0
44 48 52 59 62 68 68 65 57 41 0 0 0 0 0 0 0 0 0 0 0 0 0 0 0 0 0 0 0 0 0 0 0 0 0 0 0 0 0 0 0 0 0 0 0 0 0
39 47 51 57 66 74 75 74 70 50 43 4 1 0 0 0 0 0 0 0 0 0 0 0 0 0 0 0 0 0 0 0 0 0 0 0 0 0 0 0 0 0 0 0 0 0 0
53 45 38 46 63 80 85 92 82 56 62 19 24 5 0 0 0 0 0 0 0 0 0 0 0 0 0 0 0 0 0 0 0 0 7 16 0 0 0 0 0 0 0 0 0 0 0
28 19 31 54 55 74 116 157 143 122 68 65 99 27 16 3 0 0 0 19 0 0 0 0 0 0 0 0 0 0 0 0 0 0 0 0 0 0 0 0 0 0 0 0 0 0 0
42 38 40 60 64 70 139 183 205 168 53 73 63 32 2 0 0 0 0 0 1 0 0 0 1 2 0 3 11 2 0 0 0 0 0 0 0 0 0 0 0 0 0 0 0 0 0
27 25 39 47 89 69 125 193 215 164 17 83 161 43 47 5 2 0 0 0 1 4 2 7 0 19 0 0 1 0 0 0 0 0 0 0 0 0 0 0 0 0 0 0 0 0 0
54 36 40 47 50 45 49 161 219 202 54 62 125 89 39 13 9 1 0 1 0 20 12 0 25 19 0 5 1 0 0 0 0 0 0 0 0 0 0 0 4 0 0 0 0 0 0
50 39 24 30 56 52 58 102 151 238 187 45 53 82 20 19 11 4 3 21 0 26 1 5 31 15 8 8 0 0 0 0 0 0 0 0 0 0 0 0 0 0 0 0 0 0 0
55 66 92 40 60 56 61 80 126 250 236 142 205 113 28 5 0 5 3 0 0 36 46 42 0 8 10 51 15 25 1 0 0 0 0 0 0 0 0 0 0 0 0 339 212 52 769
30 53 52 47 53 51 57 100 139 178 260 196 198 165 9 4 0 0 4 15 17 74 26 1 20 0 0 25 11 4 7 0 0 0 0 0 49 64 4 0 0 0 103 58 73 372 766
80 97 114 61 45 53 72 89 122 130 136 245 215 202 67 6 2 0 0 4 2 2 33 26 6 15 3 10 3 21 8 13 0 0 0 6 62 36 83 42 39 431 368 183 510 894 488
77 82 94 104 105 54 47 48 40 41 46 90 7 308 204 39 1 0 0 0 0 0 1 10 38 8 19 168 107 53 11 32 6 0 1 1 40 79 15 174 757 112 7 1 57 627 902

GFSGBSN_con_sbcape_018.txt.gz
CAPE
12 8 10 9 14 12 7 3 4 5 3 2 1 0 1 0 0 0 0 0 1 0 0 0 0 1 0 0 0 0 0 80 0 0 0 0 0 0 0 0 0 0 0 5 63 41 10
25 19 13 8 13 14 9 9 9 10 7 2 3 4 4 4 3 3 3 2 2 0 0 0 0 1 0 0 0 0 0 0 0 0 0 0 0 0 0 0 0 0 0 0 5 21 20
12 3 2 3 14 16 12 9 5 4 4 4 8 6 4 3 3 3 2 1 1 0 0 0 0 0 0 0 0 0 0 0 0 0 0 0 0 0 0 0 0 0 0 0 0 0 0
23 14 4 11 14 11 13 7 5 9 7 7 8 9 5 2 3 2 1 0 0 0 0 0 0 0 0 0 0 0 0 0 0 0 0 0 0 0 0 0 0 0 0 0 0 0 0
30 32 28 27 24 22 16 15 10 8 5 5 5 5 4 3 1 0 0 0 0 0 0 0 0 0 0 0 0 0 0 0 0 0 0 0 0 0 0 0 0 0 0 0 0 0 39
41 42 39 33 26 24 21 21 15 11 9 8 6 4 3 1 0 0 0 0 0 0 0 0 0 0 0 0 0 0 0 0 0 0 0 0 0 0 0 0 0 0 0 0 0 0 11
61 51 26 21 22 24 25 27 21 13 10 8 7 6 3 1 0 0 0 0 0 0 0 0 0 0 0 0 0 0 0 0 0 0 0 0 0 0 0 0 0 0 0 0 0 0 2
38 34 25 35 31 30 26 23 23 19 14 9 6 4 3 0 0 0 0 0 0 0 0 0 0 0 0 0 0 0 0 0 0 0 0 0 0 0 0 0 0 0 0 0 0 0 0
27 32 36 37 36 33 29 22 17 9 9 9 5 3 1 1 0 0 0 0 0 0 0 0 0 0 0 0 0 0 0 0 0 0 0 0 0 0 0 0 0 0 0 0 0 0 0
40 38 31 31 33 35 28 13 4 6 7 6 4 2 1 2 0 0 0 0 0 0 0 0 0 0 0 0 0 0 0 0 0 0 0 0 0 0 0 0 0 0 0 0 0 0 0
36 33 28 27 30 26 19 14 12 10 4 4 3 1 0 0 0 0 0 0 0 0 0 0 0 0 0 0 0 0 0 0 0 0 0 0 0 0 0 0 0 0 0 0 0 0 0
33 34 23 25 29 27 22 18 14 4 3 4 2 0 0 0 0 0 0 0 0 0 0 0 0 0 0 0 0 0 0 0 0 0 0 0 0 0 0 0 0 0 0 0 0 0 0
35 28 29 34 27 19 15 15 14 4 5 3 0 0 0 0 0 0 0 0 0 0 0 0 0 0 0 0 0 0 0 0 0 0 0 0 0 0 0 0 0 0 0 0 0 0 0
18 34 39 38 32 27 25 28 26 13 1 0 0 0 0 0 0 0 0 0 0 0 0 0 0 0 0 0 0 0 0 0 0 0 0 0 0 0 0 0 0 0 0 0 0 0 0
38 41 38 35 35 34 37 39 29 21 0 0 0 0 0 0 0 0 0 0 0 0 0 0 0 0 0 0 0 0 0 0 0 0 0 0 0 0 0 0 0 0 0 0 0 0 0
32 29 32 36 38 43 46 45 42 36 0 0 0 0 0 0 0 0 0 0 0 0 0 0 0 0 0 0 0 0 0 0 0 0 0 0 0 0 0 0 0 0 0 0 0 0 0
14 16 26 38 36 36 42 50 50 49 0 0 0 0 0 0 0 0 0 0 0 0 0 0 0 0 0 0 0 0 0 0 0 0 0 0 0 0 0 0 0 0 0 0 0 0 0
14 28 31 29 35 40 59 68 54 42 1 0 0 0 0 0 0 0 0 0 0 0 0 0 0 0 0 0 0 0 0 0 0 0 0 0 0 0 0 0 0 0 0 0 0 0 0
27 38 41 48 51 64 71 63 48 39 28 0 0 0 0 0 0 0 0 0 0 0 0 0 0 0 0 0 0 0 0 0 0 0 0 0 0 0 0 0 0 0 0 0 0 0 0
34 35 36 41 55 66 66 53 20 28 21 0 0 0 0 0 0 0 0 0 0 0 0 0 0 0 0 0 0 0 0 0 0 0 0 0 0 0 0 0 0 0 0 0 0 0 0
25 28 29 36 42 42 54 52 51 46 28 0 0 0 0 0 0 0 1 2 0 0 0 0 0 0 0 0 0 0 0 0 0 0 0 0 0 0 0 0 0 0 0 0 0 0 0
28 26 23 24 25 49 72 77 72 59 17 12 7 8 0 0 0 0 0 2 0 0 0 0 1 0 0 0 0 5 0 0 0 0 0 0 0 0 0 0 0 0 0 0 0 0 0
14 20 26 36 37 48 70 88 89 63 3 9 25 23 12 9 0 0 0 0 0 0 0 11 5 3 0 0 0 0 0 0 0 0 0 0 0 0 0 0 0 0 0 0 0 0 0
43 29 23 28 32 60 66 95 123 108 6 0 0 31 12 1 1 0 0 0 1 0 9 0 0 1 0 0 0 0 0 0 0 0 0 0 0 0 0 0 0 0 0 0 0 0 0
24 15 15 17 36 63 61 74 127 199 185 0 5 25 3 9 2 3 0 1 0 0 0 0 0 0 0 0 0 0 0 0 0 0 0 0 0 0 0 0 0 0 0 0 0 0 0
21 61 43 39 41 45 60 75 110 249 209 10 0 12 49 5 0 0 0 0 0 0 0 0 0 2 0 5 11 5 1 0 5 5 0 0 0 0 0 0 0 0 0 1 0 0 141
22 39 68 39 31 39 66 80 92 133 215 2 0 5 3 5 0 0 3 0 0 0 4 0 7 0 5 48 58 1 0 10 13 2 23 0 0 0 0 0 0 0 0 5 8 0 188
35 48 58 39 29 29 40 61 60 59 81 5 0 10 31 16 2 4 0 1 0 0 4 0 13 1 0 17 130 0 0 18 38 35 1 9 55 101 36 0 15 1 21 0 0 421 26
12 29 39 56 46 40 33 29 45 42 37 23 0 0 9 32 0 0 0 0 0 0 0 0 15 43 18 25 14 33 7 67 47 68 81 84 79 7 42 1 42 5 35 227 748 938 772

GFSGBSN_con_sbcape_021.txt.gz
CAPE
3 4 5 4 5 5 2 3 5 4 2 2 1 2 1 1 1 1 1 1 1 0 0 0 0 0 0 0 0 0 17 0 0 0 0 0 0 0 0 0 0 0 0 0 0 0 318
2 8 9 8 8 6 6 6 5 4 4 5 3 7 6 6 7 3 4 4 2 1 0 1 0 0 0 0 0 0 0 0 0 0 0 0 0 0 0 0 0 0 0 0 0 0 38
17 16 15 13 10 10 10 11 9 6 5 6 9 7 6 6 6 5 4 1 3 1 0 2 2 0 0 0 0 0 0 0 0 0 0 0 0 0 0 0 0 0 0 0 0 0 14
41 32 23 21 20 21 15 13 15 13 11 11 11 8 6 8 7 5 0 1 2 0 0 0 3 0 0 0 0 0 0 0 0 0 0 0 0 0 0 0 0 0 0 0 0 0 0
66 55 38 31 28 25 21 20 20 17 9 7 6 5 5 5 4 2 0 1 0 0 0 1 0 0 0 0 0 0 0 0 0 0 0 0 0 0 0 0 0 0 0 0 0 0 0
20 29 27 19 22 27 28 24 22 17 12 10 9 6 4 5 3 0 0 0 0 0 0 0 0 0 0 0 0 0 0 0 0 0 0 0 0 0 0 0 0 0 0 0 0 0 0
9 14 10 6 11 23 25 22 16 12 12 13 12 8 4 3 1 0 0 0 0 0 0 0 0 0 0 0 0 0 0 0 0 0 0 0 0 0 0 0 0 0 0 0 0 0 0
17 15 10 6 18 22 24 22 14 11 10 8 7 5 3 4 0 0 0 0 0 0 0 0 0 0 0 0 0 0 0 0 0 0 0 0 0 0 0 0 0 0 0 0 0 0 0
10 17 18 25 30 32 25 21 16 13 10 8 5 3 2 3 0 0 0 0 0 0 0 0 0 0 0 0 0 0 0 0 0 0 0 0 0 0 0 0 0 0 0 0 0 0 0
21 37 27 23 28 23 18 16 13 11 8 6 3 1 0 3 0 0 0 0 0 0 0 0 0 0 0 0 0 0 0 0 0 0 0 0 0 0 0 0 0 0 0 0 0 0 0
34 31 22 22 20 20 20 18 16 11 7 6 3 0 0 0 0 0 0 0 0 0 0 0 0 0 0 0 0 0 0 0 0 0 0 0 0 0 0 0 0 0 0 0 0 0 0
16 16 21 24 24 25 21 19 18 7 6 8 0 0 0 0 0 0 0 0 0 0 0 0 0 0 0 0 0 0 0 0 0 0 0 0 0 0 0 0 0 0 0 0 0 0 0
17 16 19 25 30 35 35 35 34 14 7 2 0 0 0 0 0 0 0 0 0 0 0 0 0 0 0 0 0 0 0 0 0 0 0 0 0 0 0 0 0 0 0 0 0 0 0
10 20 26 25 25 28 32 38 36 16 11 0 0 0 0 0 0 0 0 0 0 0 0 0 0 0 0 0 0 0 0 0 0 0 0 0 0 0 0 0 0 0 0 0 0 0 0
10 18 21 23 25 30 33 33 33 11 1 0 0 0 0 0 0 0 0 0 0 0 0 0 0 0 0 0 0 0 0 0 0 0 0 0 0 0 0 0 0 0 0 0 0 0 0
11 14 22 32 39 40 40 39 34 15 2 0 0 0 0 0 0 0 0 0 0 0 0 0 0 0 0 0 0 0 0 0 0 0 0 0 0 0 0 0 0 0 0 0 0 0 0
11 16 25 43 44 42 46 55 49 32 3 0 0 0 0 0 0 0 0 0 0 0 0 0 0 0 0 0 0 0 0 0 0 0 0 0 0 0 0 0 0 0 0 0 0 0 0
21 32 42 40 36 44 64 65 53 31 0 0 0 0 0 0 0 0 0 0 0 0 0 0 0 0 0 0 0 0 0 0 0 0 0 0 0 0 0 0 0 0 0 0 0 0 0
26 34 37 39 46 61 68 61 54 29 14 0 0 0 0 0 0 0 0 0 0 0 0 0 0 0 0 0 0 0 0 0 0 0 0 0 0 0 0 0 0 0 0 0 0 0 0
25 28 33 52 63 67 63 59 48 34 18 0 0 0 0 0 0 0 0 0 1 0 0 0 0 0 0 0 0 0 0 0 0 0 0 0 0 0 0 0 0 0 0 0 0 0 0
23 26 24 30 52 69 80 68 62 44 12 0 0 0 0 0 0 0 0 0 2 0 0 0 0 0 4 0 0 0 0 0 0 0 0 0 0 0 0 0 0 0 0 0 0 0 0
20 18 17 18 28 62 63 97 74 52 1 0 5 15 15 0 0 3 0 0 16 0 0 0 9 0 0 0 0 0 0 0 0 0 0 0 0 0 0 0 0 0 0 0 0 0 0
13 22 24 23 25 65 63 88 81 41 0 1 3 8 15 16 8 3 0 0 0 0 1 0 0 0 0 0 0 0 0 0 0 0 0 0 0 0 0 0 0 0 0 0 0 0 0
9 21 28 31 28 27 36 93 97 69 1 0 0 19 35 6 5 10 0 0 0 0 2 0 0 0 0 0 0 0 0 0 0 0 0 0 0 0 0 0 0 0 0 0 0 0 0
2 4 19 22 30 30 37 61 89 111 77 0 0 41 23 8 2 10 5 2 0 0 0 0 0 0 0 0 0 0 0 0 0 0 0 0 0 0 0 0 0 0 0 0 0 0 0
0 2 14 10 15 21 36 50 73 143 95 0 0 0 19 12 9 3 2 1 2 0 0 0 0 0 0 0 1 3 0 4 0 9 0 0 0 0 0 0 0 0 0 0 0 0 0
0 1 2 8 5 13 23 23 28 65 87 0 0 0 22 34 0 0 0 0 5 0 1 0 0 1 0 0 1 0 0 6 0 26 0 0 1 0 0 0 0 0 0 0 0 0 0
0 0 0 0 3 5 17 30 35 44 74 3 0 0 6 28 3 3 0 1 0 2 13 0 1 0 0 3 1 13 2 1 11 0 20 18 24 15 0 0 0 9 24 78 8 0 0
0 0 0 9 11 4 12 22 23 25 42 29 2 0 0 35 6 0 0 0 0 0 2 3 2 1 34 5 9 11 45 4 10 3 23 8 94 3 8 0 74 19 1 49 74 12 2

GFSGBSN_con_sbcape_024.txt.gz
CAPE
19 16 13 15 18 16 11 6 14 15 8 6 2 3 3 3 3 3 3 2 3 0 1 2 3 1 0 0 0 0 0 0 258 0 0 0 0 0 0 0 0 24 3 0 0 0 298
41 38 28 23 17 12 12 13 10 13 11 9 8 11 11 10 9 6 6 10 9 2 1 2 4 1 0 0 0 0 0 0 0 0 0 0 0 0 0 0 0 0 0 0 0 0 0
61 47 33 26 24 20 18 13 10 7 7 9 12 13 11 10 10 7 3 4 4 3 3 4 4 0 0 0 0 0 0 0 0 0 0 0 0 0 0 0 0 0 0 0 0 0 0
23 15 16 16 19 24 22 16 13 12 13 13 9 7 8 7 9 4 0 1 3 0 0 3 5 0 0 0 0 0 0 0 0 0 0 0 0 0 0 0 0 0 0 0 0 0 0
24 22 21 20 20 23 27 20 11 14 14 13 11 9 7 5 3 0 0 0 0 1 1 4 0 0 0 0 0 0 0 0 0 0 0 0 0 0 0 0 0 0 0 0 0 0 0
19 25 22 9 11 22 25 21 16 16 12 10 9 8 6 8 3 0 0 0 0 1 0 0 0 0 0 0 0 0 0 0 0 0 0 0 0 0 0 0 0 0 0 0 0 0 0
12 16 15 9 10 16 16 15 12 14 13 11 8 6 3 3 0 0 0 0 0 0 0 0 0 0 0 0 0 0 0 0 0 0 0 0 0 0 0 0 0 0 0 0 0 0 0
17 23 12 10 10 8 7 8 7 7 6 7 3 3 3 0 0 0 0 0 0 0 0 0 0 0 0 0 0 0 0 0 0 0 0 0 0 0 0 0 0 0 0 0 0 0 0
13 8 8 12 13 14 14 12 16 13 9 5 3 2 3 1 0 0 0 0 0 0 0 0 0 0 0 0 0 0 0 0 0 0 0 0 0 0 0 0 0 0 0 0 0 0 0
8 16 23 21 23 22 24 17 14 13 7 5 2 1 3 2 0 0 0 0 0 0 0 0 0 0 0 0 0 0 0 0 0 0 0 0 0 0 0 0 0 0 0 0 0 0 0
22 22 22 23 24 26 26 22 20 19 11 5 2 1 0 0 0 0 0 0 0 0 0 0 0 0 0 0 0 0 0 0 0 0 0 0 0 0 0 0 0 0 0 0 0 0 0
20 15 11 16 18 27 29 21 15 18 14 3 2 0 1 0 0 0 0 0 0 0 0 0 0 0 0 0 0 0 0 0 0 0 0 0 0 0 0 0 0 0 0 0 0 0 0
12 10 10 14 22 29 24 16 14 17 14 2 0 0 0 0 0 0 0 0 0 0 0 0 0 0 0 0 0 0 0 0 0 0 0 0 0 0 0 0 0 0 0 0 0 0 0
8 12 21 29 29 25 26 27 20 20 7 0 0 0 0 0 0 0 0 0 0 0 0 0 0 0 0 0 0 0 0 0 0 0 0 0 0 0 0 0 0 0 0 0 0 0 0
18 25 28 29 32 31 30 31 22 14 0 0 0 0 0 0 0 0 0 0 0 0 0 0 0 0 0 0 0 0 0 0 0 0 0 0 0 0 0 0 0 0 0 0 0 0 0
21 21 24 31 36 34 34 35 23 14 0 0 0 0 0 0 0 0 0 0 0 0 0 0 0 0 0 0 0 0 0 0 0 0 0 0 0 0 0 0 0 0 0 0 0 0 0
18 19 30 42 43 41 41 45 31 19 0 0 0 0 0 0 0 0 0 0 0 0 0 0 0 0 0 0 0 0 0 0 0 0 0 0 0 0 0 0 0 0 0 0 0 0 0
26 30 39 42 46 48 52 56 42 11 0 0 0 0 0 0 0 0 0 0 0 0 0 0 0 0 0 0 0 0 0 0 0 0 0 0 0 0 0 0 0 0 0 0 0 0 0
25 40 42 43 55 67 62 58 41 4 0 0 0 0 0 0 0 0 0 0 0 0 0 0 0 0 0 0 0 0 0 0 0 0 0 0 0 0 0 0 0 0 0 0 0 0 0
23 21 16 26 27 33 59 51 41 5 2 0 0 0 0 0 0 0 1 0 0 0 0 0 0 0 0 0 0 0 0 0 0 0 0 0 0 0 0 0 0 0 0 0 0 0 0
10 13 18 26 37 42 69 54 49 18 1 0 0 0 0 0 0 1 0 0 2 0 0 0 2 3 0 0 0 0 0 0 0 0 0 0 0 0 0 0 0 0 0 0 0 0 0
8 7 11 14 31 31 61 73 66 28 0 0 1 24 2 1 0 4 0 0 0 0 0 0 22 10 0 0 0 0 0 0 0 0 0 0 0 0 0 0 0 0 0 0 0 0 0
5 8 15 14 10 12 23 57 65 32 0 0 4 3 7 30 3 2 0 0 0 0 0 5 0 0 0 0 0 0 0 0 0 0 0 0 0 0 0 0 0 0 0 0 0 0 0
2 3 3 4 8 19 37 64 67 60 0 0 0 12 25 28 31 2 12 1 0 0 10 0 0 0 0 0 0 0 0 0 0 0 0 0 0 0 0 0 0 0 0 0 0 0 0
3 2 1 1 2 8 20 25 64 63 38 0 0 18 36 3 6 4 1 3 0 0 0 0 0 0 0 0 0 0 0 0 0 0 0 0 0 0 0 0 0 0 0 0 0 0 0
0 1 0 0 1 2 10 18 37 77 66 0 0 0 11 34 3 6 8 16 0 1 0 0 0 0 0 0 0 0 0 0 0 0 0 0 0 0 0 0 0 0 0 0 0 0 0
0 0 0 0 0 1 17 45 45 51 63 0 0 0 16 27 3 7 15 5 0 8 12 0 0 0 0 3 6 0 0 0 0 0 0 0 6 0 0 0 0 0 2 0 0 0 0
1 1 1 1 0 1 8 17 34 45 65 4 0 0 14 18 3 1 9 8 1 2 6 3 3 1 22 37 10 16 0 0 0 0 0 0 0 0 0 0 0 28 42 86 0 0 0
0 0 0 1 2 2 6 13 39 56 58 42 2 0 0 22 4 0 0 0 0 0 1 9 14 1 0 3 1 1 2 1 0 3 0 0 0 0 0 0 0 83 70 0 1 1 0

GFSGBSN_con_sbcape_027.txt.gz
CAPE
35 32 23 20 25 20 15 14 13 11 6 5 6 5 5 4 3 3 4 7 10 5 3 3 3 3 0 0 0 0 0 44 469 0 0 0 204 60 14 121 36 419 31 0 6 0 0
16 15 16 15 11 10 11 12 9 10 10 7 7 10 10 10 8 6 6 10 6 2 1 3 4 1 0 0 0 0 0 1 18 0 0 0 50 0 0 0 0 0 0 0 0 0 0
21 26 20 14 10 11 11 9 8 7 6 5 8 9 11 10 5 4 7 5 2 1 1 2 3 0 0 0 0 0 0 0 0 0 0 0 0 0 0 0 0 0 0 0 0 0 0
16 24 12 10 11 13 12 8 6 4 4 4 4 4 7 9 8 3 2 1 0 0 0 0 4 0 0 0 0 0 0 0 0 0 0 0 0 0 0 0 0 0 0 0 0 0 0
15 21 14 11 13 10 10 7 5 6 7 7 6 6 8 9 3 0 0 0 0 1 4 3 0 0 0 0 0 0 0 0 0 0 0 0 0 0 0 0 0 0 0 0 0 0 0
23 22 11 12 11 12 17 14 10 10 8 7 8 8 7 4 0 0 0 0 0 0 0 1 0 0 0 0 0 0 0 0 0 0 0 0 0 0 0 0 0 0 0 0 0 0 0
14 12 12 12 12 13 16 13 9 9 8 8 8 8 8 0 0 0 0 0 0 0 0 0 0 0 0 0 0 0 0 0 0 0 0 0 0 0 0 0 0 0 0 0 0 0 0
12 10 10 8 7 5 5 6 6 7 7 7 7 6 6 0 0 0 0 0 0 0 0 0 0 0 0 0 0 0 0 0 0 0 0 0 0 0 0 0 0 0 0 0 0 0 0
12 10 8 8 6 5 5 5 9 9 6 6 9 7 1 3 0 0 0 0 0 0 0 0 0 0 0 0 0 0 0 0 0 0 0 0 0 0 0 0 0 0 0 0 0 0 0
9 12 15 9 11 9 12 14 14 11 4 3 6 5 0 4 0 0 0 0 0 0 0 0 0 0 0 0 0 0 0 0 0 0 0 0 0 0 0 0 0 0 0 0 0 0 0
13 21 21 23 23 21 21 20 21 15 6 5 6 2 0 0 0 0 0 0 0 0 0 0 0 0 0 0 0 0 0 0 0 0 0 0 0 0 0 0 0 0 0 0 0 0 0
13 14 14 19 22 22 20 17 18 13 5 3 2 0 0 0 0 0 0 0 0 0 0 0 0 0 0 0 0 0 0 0 0 0 0 0 0 0 0 0 0 0 0 0 0 0 0
7 12 15 19 23 30 25 22 23 18 3 0 0 0 0 0 0 0 0 0 0 0 0 0 0 0 0 0 0 0 0 0 0 0 0 0 0 0 0 0 0 0 0 0 0 0 0
5 16 32 33 31 30 26 24 23 15 5 0 0 0 0 0 0 0 0 0 0 0 0 0 0 0 0 0 0 0 0 0 0 0 0 0 0 0 0 0 0 0 0 0 0 0 0
5 25 24 18 15 14 16 19 12 1 0 0 0 0 0 0 0 0 0 0 0 0 0 0 0 0 0 0 0 0 0 0 0 0 0 0 0 0 0 0 0 0 0 0 0 0 0
18 10 13 22 29 34 41 39 22 12 0 0 0 0 0 0 0 0 0 0 0 0 0 0 0 0 0 0 0 0 0 0 0 0 0 0 0 0 0 0 0 0 0 0 0 0 0
6 11 28 30 31 29 30 27 6 1 0 0 0 0 0 0 0 0 0 0 0 0 0 0 0 0 0 0 0 0 0 0 0 0 0 0 0 0 0 0 0 0 0 0 0 0 0
14 23 25 23 20 28 43 35 2 0 0 0 0 0 0 0 0 0 0 0 0 0 0 0 0 0 0 0 0 0 0 0 0 0 0 0 0 0 0 0 0 0 0 0 0 0 0
10 16 23 26 35 50 50 38 7 0 0 3 3 0 0 0 0 3 0 0 0 3 3 8 0 0 0 0 0 0 0 0 0 0 0 0 0 0 0 0 0 0 0 0 0 0 0
8 11 17 27 36 44 51 38 15 0 0 0 0 0 0 0 0 2 3 0 0 0 28 14 14 0 0 0 0 0 0 0 0 0 0 0 0 0 0 0 0 0 0 0 0 0 0
7 10 14 10 12 23 43 45 37 3 0 0 0 0 3 0 3 5 10 0 0 6 0 10 24 11 7 0 0 0 0 0 0 0 0 0 0 0 0 0 0 0 0 0 0 0 0
5 7 10 8 7 4 40 55 45 22 0 1 11 28 19 7 4 4 1 0 2 10 6 1 22 25 8 24 3 5 0 0 0 0 0 0 0 0 0 0 0 0 0 0 0 0 0
7 6 10 9 6 5 8 47 53 25 0 26 43 27 14 9 39 23 10 19 14 17 2 16 20 15 2 1 0 0 0 0 0 0 0 0 0 0 0 0 0 0 0 0 0 0 0
3 2 2 5 5 4 16 42 50 43 3 52 49 47 49 34 77 17 14 1 1 9 19 2 0 3 0 0 0 0 0 0 0 0 0 0 0 0 0 0 0 0 0 0 0 0 0
0 0 0 1 1 1 5 19 66 68 37 26 40 51 37 23 13 6 10 5 15 9 12 1 1 0 0 0 4 0 0 0 0 0 0 0 0 0 0 0 0 0 0 0 0 0 0
0 0 0 0 0 0 2 9 48 76 59 22 40 46 67 36 4 4 16 8 16 7 10 6 0 0 19 47 37 7 0 0 0 1 0 0 0 0 0 0 0 0 0 0 0 0 0
0 0 0 0 0 0 2 7 21 62 69 3 30 7 59 27 4 12 16 18 14 8 32 2 0 0 30 37 12 7 1 2 0 0 0 0 2 0 0 0 0 0 0 61 0 0 0
1 1 1 0 0 0 2 9 16 58 79 37 0 0 69 38 9 10 4 9 14 12 20 8 17 15 41 72 30 32 49 29 28 0 0 7 2 3 1 0 0 0 0 0 12 22 8
1 0 1 2 2 4 7 12 13 50 68 74 1 0 6 20 8 1 3 8 8 8 13 11 12 30 32 30 19 28 43 18 11 15 4 10 8 46 1 0 0 0 0 36 155 104 46

GFSGBSN_con_sbcape_033.txt.gz
CAPE
11 4 7 4 5 4 4 4 4 5 3 1 1 2 3 2 1 2 4 5 1 0 1 1 2 0 0 0 0 0 9 0 0 0 0 0 0 0 0 1 15 72 138 94 86 24 24
15 5 4 4 4 5 6 5 4 2 3 3 3 4 5 6 4 6 6 5 2 0 0 1 4 0 0 0 0 0 0 0 0 0 0 0 0 0 0 2 17 50 62 99 27 31 4
6 7 3 5 4 4 4 4 3 2 2 3 3 4 4 2 3 4 3 1 0 0 0 5 5 0 0 0 0 0 0 0 0 0 0 0 0 0 0 0 0 51 0 14 30 0 0
7 5 6 6 5 6 5 4 2 3 4 2 2 3 1 2 2 0 0 0 0 0 0 1 3 0 0 0 0 0 0 0 0 0 0 0 0 0 0 0 0 0 1 0 0 0 0
9 7 6 6 4 4 4 3 2 3 5 4 3 4 2 0 0 0 0 0 0 0 0 1 0 0 0 0 0 0 0 0 0 0 0 0 0 0 0 0 0 0 0 0 7 0 0
8 6 6 5 3 4 7 6 5 6 6 4 2 1 0 0 0 0 0 0 0 0 0 0 0 0 0 0 0 0 0 0 0 0 0 0 0 0 0 0 0 0 0 4 15 55 1
6 8 8 7 5 5 4 6 6 8 8 4 2 1 0 0 0 0 0 0 0 0 0 0 0 0 0 0 0 0 0 0 0 0 0 0 0 0 0 0 0 0 0 1 55 64 25
5 5 5 4 4 5 5 5 4 4 4 2 1 0 0 0 0 0 0 0 0 0 0 0 0 0 0 0 0 0 0 0 0 0 0 0 0 0 0 0 0 0 0 1 10 51 17
6 3 6 10 7 5 4 3 1 1 1 2 1 0 0 0 0 0 0 0 0 0 0 0 0 0 0 0 0 0 0 0 0 0 0 0 0 0 0 0 0 0 0 0 0 11 25
9 13 16 10 5 6 4 5 4 3 2 1 0 0 0 0 0 0 0 0 0 0 0 0 0 0 0 0 0 0 0 0 0 0 0 0 0 0 0 0 0 0 0 0 0 1 26
5 12 11 8 8 12 14 10 9 5 2 0 0 0 0 0 0 0 0 0 0 0 0 0 0 0 0 0 0 0 0 0 0 0 0 0 0 0 0 0 0 0 0 0 0 0 1
10 5 6 9 14 17 9 6 5 2 1 0 0 0 0 0 0 0 0 0 0 0 0 0 0 0 0 0 0 0 0 0 0 0 0 0 0 0 0 0 0 0 0 0 0 0 0
6 6 11 20 19 14 9 4 0 0 0 0 0 0 0 0 0 0 0 0 0 0 0 0 0 0 0 0 0 0 0 0 0 0 0 0 0 0 0 0 0 0 0 0 0 0 0
6 12 18 19 17 13 3 1 0 0 0 0 0 0 0 0 0 0 0 0 0 0 0 0 0 0 0 0 0 0 0 0 0 0 0 0 0 0 0 0 0 0 0 0 0 0 0
5 11 14 9 3 8 10 5 0 0 0 0 0 0 0 0 0 0 0 10 15 26 0 0 0 0 0 0 0 0 0 0 0 0 0 0 0 0 0 0 0 0 0 0 0 0 0
2 7 8 9 0 1 14 13 0 0 0 0 0 0 0 0 0 0 21 59 27 1 0 0 0 1 0 7 0 0 0 0 0 0 0 0 0 0 0 0 0 0 0 0 0 0 0
3 2 5 8 0 1 12 18 8 0 0 0 0 0 0 0 0 14 38 52 0 0 0 1 0 0 0 1 0 4 2 0 0 0 0 0 0 0 0 0 0 0 0 0 0 0 0
0 3 6 5 0 5 11 10 0 0 0 0 0 1 0 0 6 22 42 14 8 35 34 54 39 15 0 7 3 0 0 0 0 0 0 0 0 0 0 0 0 0 0 0 0 0 0
1 4 6 3 3 5 5 12 0 0 0 0 0 0 4 0 14 34 31 48 51 89 64 72 45 49 41 35 6 6 5 0 0 0 0 0 0 0 4 0 0 0 0 0 0 0 0
0 1 3 2 3 4 5 5 0 0 0 0 9 12 5 19 32 49 72 91 106 91 99 98 117 47 12 7 3 3 7 0 0 0 0 0 0 0 0 0 0 0 0 0 0 0 0
0 0 1 0 0 2 4 2 4 2 0 3 21 14 8 15 27 32 61 87 97 140 125 110 130 89 49 36 3 16 9 19 1 0 0 0 0 0 0 4 0 0 0 0 0 0 0
0 0 0 1 0 2 3 4 11 33 0 25 49 18 11 40 16 21 64 122 127 145 126 133 144 80 49 53 55 8 24 7 7 1 0 0 0 0 0 0 0 0 0 0 0 0 0
0 0 0 1 3 3 3 3 17 33 6 54 97 49 43 11 24 28 75 71 35 79 58 164 146 77 49 38 38 26 16 12 3 11 2 2 0 11 6 0 0 0 0 0 0 0 0
0 0 0 0 1 2 5 6 15 28 24 103 64 38 53 29 15 31 21 21 35 18 34 51 82 134 113 56 25 7 5 4 2 1 0 2 6 8 7 4 2 0 0 0 0 0 0
0 0 0 0 1 3 5 10 20 22 37 103 61 47 30 71 11 22 14 27 22 29 51 89 111 88 112 92 64 26 5 19 6 0 0 0 7 10 0 1 0 0 0 0 0 0 0
0 0 0 0 0 5 4 10 21 22 34 56 56 63 17 17 25 17 26 55 18 36 91 56 117 75 55 96 36 79 52 29 4 0 0 0 1 4 13 3 7 3 1 0 0 0 0
0 0 1 3 2 5 10 12 10 31 38 42 42 20 32 17 8 15 38 66 29 34 49 50 80 43 110 119 145 126 69 43 28 23 0 0 0 1 4 10 3 2 20 11 2 186 46
0 1 4 6 11 9 8 10 18 26 37 51 33 2 13 16 3 5 8 28 24 39 57 37 41 78 55 121 111 98 115 66 27 20 23 40 7 1 5 9 6 0 0 14 37 20 2
2 3 9 12 10 6 8 14 19 23 34 34 36 7 3 11 3 13 19 17 19 38 37 19 22 29 90 146 205 160 141 81 80 80 16 4 9 16 2 0 0 0 0 0 0 0 0

GFSGBSN_con_sbcape_036.txt.gz
CAPE
7 5 5 4 5 3 2 2 1 1 0 0 0 1 3 2 0 0 0 1 0 0 0 1 1 2 0 0 0 0 7 0 0 0 0 0 0 0 1 0 2 42 78 92 17 64 199
6 6 6 4 3 2 3 2 2 2 2 1 4 5 4 2 3 2 1 0 0 0 0 3 3 2 0 0 0 0 0 0 0 0 0 0 0 0 0 0 4 45 135 75 91 104 16
6 6 7 7 5 3 4 4 3 2 2 4 3 4 2 1 1 0 0 0 0 0 0 2 6 0 0 0 0 0 0 0 0 0 0 0 0 0 0 0 0 10 31 70 70 43 30
7 7 7 7 6 4 4 3 1 3 5 3 3 2 1 0 0 0 0 0 0 0 0 0 2 0 0 0 0 0 0 0 0 0 0 0 0 0 0 0 10 7 24 39 55 65 17
7 11 10 10 10 7 6 6 3 3 3 3 2 2 2 1 0 0 0 0 0 0 0 1 0 0 0 0 0 0 0 0 0 0 0 0 0 0 0 0 5 15 11 37 65 27 5
5 9 9 5 4 7 7 6 4 3 3 3 2 1 0 0 0 0 0 0 0 0 0 0 0 0 0 0 0 0 0 0 0 0 0 0 0 0 0 0 0 2 0 10 21 16 1
5 5 5 6 5 11 10 6 5 4 4 2 1 0 0 0 0 0 0 0 0 0 0 0 0 0 0 0 0 0 0 0 0 0 0 0 0 0 0 0 0 0 0 0 10 13 8
4 3 6 5 7 8 5 3 2 2 2 1 0 0 0 0 0 0 0 0 0 0 0 0 0 0 0 0 0 0 0 0 0 0 0 0 0 0 0 0 0 0 0 0 0 25 19
4 4 12 14 9 4 3 3 4 2 0 0 0 0 0 0 0 0 0 0 0 0 0 0 0 0 0 0 0 0 0 0 0 0 0 0 0 0 0 0 0 0 0 0 1 2 10
12 13 12 8 3 3 7 6 5 5 1 1 0 0 0 0 0 0 0 0 0 0 0 0 0 0 0 0 0 0 0 0 0 0 0 0 0 0 0 0 0 0 0 0 0 12 29
12 10 8 5 3 4 8 13 6 1 1 0 0 0 0 0 0 0 0 0 0 0 0 0 0 0 0 0 0 0 0 0 0 0 0 0 0 0 0 0 0 0 0 0 0 0 3
7 6 7 9 11 10 3 2 0 0 0 0 0 0 0 0 0 0 0 0 0 0 0 0 0 0 0 0 0 0 0 0 0 0 0 0 0 0 0 0 0 0 0 0 0 0 0
2 1 3 14 14 2 0 0 0 0 0 0 0 0 0 0 0 0 0 0 0 0 0 0 0 0 0 0 0 0 0 0 0 0 0 0 0 0 0 0 0 0 0 0 0 0 0
2 5 11 10 5 0 0 0 0 0 0 0 0 0 0 0 0 0 0 0 0 0 0 0 0 0 0 0 0 0 0 0 0 0 0 0 0 0 0 0 0 0 0 0 0 0 0
3 5 6 2 0 0 0 0 0 0 0 0 0 0 0 0 0 0 0 0 2 0 0 0 0 0 0 0 0 0 0 0 0 0 0 0 0 0 0 0 0 0 0 0 0 0 0
2 2 2 0 0 0 0 0 0 0 0 0 0 0 1 0 0 0 0 0 2 0 0 0 0 0 0 0 0 0 0 0 0 0 0 0 0 0 0 0 0 0 0 0 0 0 0
2 0 0 0 0 0 2 2 0 0 0 0 0 0 0 0 0 0 9 1 0 0 0 0 0 0 0 8 5 11 0 0 0 3 0 0 0 0 0 0 0 0 0 0 0 0 0
1 2 3 1 2 1 3 4 0 0 0 0 0 2 1 0 0 4 15 0 2 3 13 50 24 5 25 8 9 27 36 14 0 0 0 0 0 0 1 0 0 0 0 0 0 0 0
3 2 2 0 2 5 3 0 0 0 0 2 0 0 3 0 15 12 10 11 3 1 40 68 64 22 3 9 11 34 10 6 2 0 0 0 0 0 0 2 0 0 0 0 0 0 0
0 1 0 0 3 5 6 0 0 0 0 0 14 16 11 1 2 10 18 14 2 42 81 20 85 75 41 29 3 8 16 6 0 0 0 0 0 0 0 0 0 0 0 0 0 0 0
0 0 0 0 1 2 7 5 5 0 0 1 19 34 17 28 18 34 28 52 35 143 40 127 98 77 75 42 5 2 2 0 0 18 0 0 0 0 0 2 20 0 0 0 0 0 0
0 0 0 2 2 5 6 7 16 15 2 16 45 68 13 47 36 26 35 54 91 79 35 123 136 150 47 37 24 30 6 2 9 0 0 0 0 0 0 0 0 0 0 0 0 0 0
0 0 0 2 3 3 3 7 17 18 24 34 32 9 24 12 15 13 54 65 66 52 105 109 92 77 40 52 42 33 1 0 1 0 0 0 0 0 0 0 0 4 0 1 0 0 0
0 0 0 0 0 1 5 13 18 22 24 80 75 12 13 22 25 27 23 37 74 76 96 50 21 71 99 57 38 15 7 0 0 0 0 0 0 0 0 0 3 0 2 0 3 0 0
0 0 0 0 0 4 5 16 17 23 32 97 104 2 16 30 24 20 15 38 29 134 86 120 176 96 82 54 38 49 28 0 0 0 0 0 0 0 0 1 1 6 0 0 0 1 14
0 0 2 1 1 3 9 5 14 28 26 141 44 0 9 17 10 2 31 25 26 106 97 105 155 163 59 69 53 64 26 4 1 0 0 0 0 0 0 0 1 10 0 0 1 0 30
0 2 3 4 5 12 6 15 20 27 30 67 34 0 9 10 3 6 12 34 21 37 54 72 129 65 74 55 136 118 18 21 14 0 0 0 0 0 0 0 0 0 0 0 0 188 115
1 4 5 12 12 6 13 16 20 25 32 45 31 1 1 6 1 1 4 16 33 44 52 43 40 54 183 177 28 132 110 8 1 0 0 0 0 0 1 0 0 0 0 2 69 0 0
4 8 11 17 12 14 14 16 17 24 33 29 29 2 1 6 1 0 0 2 12 24 50 29 33 24 53 106 139 45 48 48 46 7 0 0 0 11 0 0 0 2 0 0 0 0 0

GFSGBSN_con_sbcape_039.txt.gz
CAPE
6 6 5 5 6 5 1 1 1 2 1 0 1 3 4 4 1 1 2 1 0 0 0 0 1 2 0 0 0 0 0 0 0 0 0 0 0 0 0 0 11 28 176 168 69 20 23
7 6 6 5 2 2 1 2 0 1 2 2 5 4 4 2 1 0 0 0 0 0 0 1 2 0 0 0 0 0 0 0 0 0 0 0 0 0 0 0 0 4 64 101 25 48 79
7 8 7 5 3 3 3 4 3 4 4 4 4 3 2 1 0 0 0 0 0 0 0 1 2 1 0 0 0 0 0 0 0 0 0 0 0 0 0 0 0 0 29 169 125 67 45
7 7 6 5 6 5 5 4 5 6 5 5 3 2 0 0 0 0 0 0 0 0 0 1 2 2 0 0 0 0 0 0 0 0 0 0 0 0 0 0 0 0 0 4 36 8 39
5 7 10 10 8 9 9 8 8 5 5 3 1 0 0 0 0 0 0 0 0 0 0 0 0 0 0 0 0 0 0 0 0 0 0 0 0 0 0 0 0 0 0 0 10 29 61
3 4 9 4 6 9 7 6 6 5 4 2 1 0 0 0 0 0 0 0 0 0 0 0 0 0 0 0 0 0 0 0 0 0 0 0 0 0 0 0 0 0 0 0 0 30 30
2 4 5 2 2 4 1 2 3 4 2 1 1 0 0 0 0 0 0 0 0 0 0 0 0 0 0 0 0 0 0 0 0 0 0 0 0 0 0 0 0 0 0 0 0 2 14
2 3 3 3 5 2 0 0 0 2 3 1 0 0 0 0 0 0 0 0 0 0 0 0 0 0 0 0 0 0 0 0 0 0 0 0 0 0 0 0 0 0 0 0 0 0 1
2 2 9 11 5 0 1 5 6 4 3 0 0 0 0 0 0 0 0 0 0 0 0 0 0 0 0 0 0 0 0 0 0 0 0 0 0 0 0 0 0 0 0 0 0 0 0
7 8 6 2 0 3 8 6 3 1 0 0 0 0 0 0 0 0 0 0 0 0 0 0 0 0 0 0 0 0 0 0 0 0 0 0 0 0 0 0 0 0 0 0 0 0 0
8 2 1 2 5 7 4 1 1 0 0 0 0 0 0 0 0 0 0 0 0 0 0 0 0 0 0 0 0 0 0 0 0 0 0 0 0 0 0 0 0 0 0 0 0 0 0
4 1 3 7 8 3 0 0 0 0 0 0 0 0 0 0 0 0 0 0 0 0 0 0 0 0 0 0 0 0 0 0 0 0 0 0 0 0 0 0 0 0 0 0 0 0 0
3 2 4 5 4 1 0 0 0 0 0 0 0 0 0 0 0 0 0 0 0 0 0 0 0 0 0 0 0 0 0 0 0 0 0 0 0 0 0 0 0 0 0 0 0 0 0
4 3 3 3 4 0 0 0 0 0 0 0 0 0 0 0 0 0 0 0 0 0 0 0 0 0 0 0 0 0 0 0 0 0 0 0 0 0 0 0 0 0 0 0 0 0 0
2 2 3 2 3 0 0 0 0 0 0 0 0 0 0 0 0 0 0 0 0 0 0 0 0 0 0 0 0 0 0 0 0 0 0 0 0 0 0 0 0 0 0 0 0 0 0
3 3 4 3 3 0 0 3 0 0 0 0 0 0 0 0 0 0 0 0 0 0 0 0 0 0 0 0 0 0 0 0 0 0 0 0 0 0 0 0 0 0 0 0 0 0 0
3 2 2 3 3 0 0 2 0 0 0 0 0 0 0 0 0 0 0 0 0 0 0 0 0 0 0 5 0 0 0 0 0 0 0 0 0 0 0 0 0 0 0 0 0 0 0
2 2 0 2 0 0 0 0 0 0 0 0 0 0 0 0 0 0 0 0 0 0 0 0 0 1 0 0 1 0 0 25 6 2 0 0 0 0 0 0 0 0 0 0 0 0 0
0 2 0 2 2 4 2 0 0 0 0 2 0 0 0 0 0 0 0 0 0 0 0 0 0 2 0 42 20 18 28 9 1 0 1 0 0 0 0 0 0 0 0 0 0 0 0
0 0 0 3 4 6 4 1 0 0 0 0 0 0 0 0 0 0 0 0 0 12 9 19 34 8 39 46 49 35 14 16 0 0 15 20 0 0 0 0 0 0 0 0 0 0 0
0 0 0 4 5 6 7 5 5 0 0 0 0 0 1 0 0 0 0 6 3 24 22 8 3 46 36 6 10 25 11 1 0 4 0 0 0 0 0 0 0 0 0 0 0 0 0
0 1 1 2 2 6 8 10 17 16 0 0 4 4 0 3 0 0 1 9 11 3 55 5 24 56 48 23 0 2 0 0 4 0 0 0 0 0 0 0 0 0 0 0 0 0 0
0 0 0 1 4 6 11 15 18 20 10 5 10 9 3 5 3 2 0 15 14 22 41 77 29 4 1 25 31 6 1 0 0 0 0 0 0 0 0 0 0 0 0 1 0 0 0
0 0 0 1 4 13 20 19 6 24 29 45 26 2 3 7 11 3 0 5 31 15 21 60 114 19 29 31 24 17 0 0 0 0 0 0 0 0 0 0 0 0 0 1 0 0 0
0 1 0 3 6 9 6 3 13 25 26 32 56 0 2 10 8 9 6 8 22 5 0 28 36 74 43 37 20 0 0 0 0 0 0 0 0 0 0 0 0 0 0 0 18 25 2
1 2 6 6 10 3 3 10 20 31 27 52 38 0 2 4 5 5 14 5 8 8 8 0 60 31 15 10 24 16 0 0 1 0 0 0 0 0 0 0 0 0 0 0 0 0 0
2 6 11 11 11 8 14 17 24 24 27 45 33 0 1 2 1 1 10 12 16 23 9 0 1 2 0 3 66 27 1 0 0 0 4 0 0 0 0 0 0 0 0 0 1 0 0
4 11 15 20 14 15 16 20 23 26 33 54 19 0 0 2 0 0 6 19 11 12 32 8 3 6 47 31 66 66 31 7 0 0 1 11 9 1 0 2 2 0 0 0 0 0 0
9 16 20 17 16 18 17 19 22 24 29 32 15 1 1 1 0 0 0 0 2 1 14 16 20 23 32 42 35 2 0 3 0 0 0 0 0 1 0 0 0 0 0 0 0 0 0

GFSGBSN_con_sbcape_045.txt.gz
CAPE
7 5 3 3 1 1 1 1 0 0 0 0 0 1 1 0 0 0 0 0 0 0 0 0 0 2 0 0 0 0 0 0 0 0 0 0 0 0 0 0 0 38 46 57 301 281 19
4 5 4 3 2 1 1 0 0 0 0 1 1 3 2 2 1 0 0 0 0 0 0 0 0 1 0 0 0 0 0 0 0 0 0 0 0 0 0 0 0 0 0 0 2 2 0
7 6 5 3 2 1 1 1 0 0 1 2 4 3 1 0 0 0 0 0 0 0 0 0 3 0 0 0 0 0 0 0 0 0 0 0 0 0 0 0 0 0 0 0 0 0 0
5 5 4 2 1 0 1 1 1 1 3 5 3 2 1 0 0 0 0 0 0 0 0 0 9 0 0 0 0 0 0 0 0 0 0 0 0 0 0 0 0 0 0 0 0 12 0
5 5 3 2 1 0 2 2 2 5 4 4 4 3 2 0 0 0 0 0 0 0 0 0 0 0 0 0 0 0 0 0 0 0 0 0 0 0 0 0 0 0 0 0 0 0 11
3 3 2 1 0 1 3 4 4 3 3 2 1 1 1 0 0 0 0 0 0 0 0 0 0 0 0 0 0 0 0 0 0 0 0 0 0 0 0 0 0 0 0 0 0 0 12
2 2 2 1 0 2 3 2 1 3 3 1 0 0 0 0 0 0 0 0 0 0 0 0 0 0 0 0 0 0 0 0 0 0 0 0 0 0 0 0 0 0 0 0 0 0 4
1 2 2 1 1 2 3 3 2 3 3 0 0 0 0 0 0 0 0 0 0 0 0 0 0 0 0 0 0 0 0 0 0 0 0 0 0 0 0 0 0 0 0 0 0 0 0
3 2 2 2 2 2 3 3 3 3 2 1 0 0 0 0 0 0 0 0 0 0 0 0 0 0 0 0 0 0 0 0 0 0 0 0 0 0 0 0 0 0 0 0 0 0 0
5 2 5 3 3 2 3 3 3 2 0 0 0 0 0 0 0 0 0 0 0 0 0 0 0 0 0 0 0 0 0 0 0 0 0 0 0 0 0 0 0 0 0 0 0 0 0
3 3 4 4 3 2 2 2 2 0 0 0 0 0 0 0 0 0 0 0 0 0 0 0 0 0 0 0 0 0 0 0 0 0 0 0 0 0 0 0 0 0 0 0 0 0 0
2 1 1 2 2 2 1 1 2 0 0 0 0 0 0 0 0 0 0 0 0 0 0 0 0 0 0 0 0 0 0 0 0 0 0 0 0 0 0 0 0 0 0 0 0 0 0
2 1 1 1 2 1 2 1 1 0 0 0 0 0 0 0 0 0 0 0 0 0 0 0 0 0 0 0 0 0 0 0 0 0 0 0 0 0 0 0 0 0 0 0 0 0 0
1 1 2 3 1 1 2 4 2 0 0 0 0 0 0 0 0 0 0 0 0 0 0 0 0 0 0 0 0 0 0 0 0 0 0 0 0 0 0 0 0 0 0 0 0 0 0
1 2 2 3 2 1 4 7 1 1 0 0 0 0 0 0 0 0 0 0 0 0 0 0 0 0 0 0 0 0 0 0 0 0 0 0 0 0 0 0 0 0 0 0 0 0 0
0 0 1 4 3 2 6 10 2 1 0 0 0 0 0 0 0 0 0 0 0 0 0 0 0 0 0 0 0 0 0 0 0 0 0 0 0 0 0 0 0 0 0 0 0 0 0
0 0 1 3 5 2 8 14 3 0 0 0 0 0 0 0 0 0 0 0 0 0 0 0 0 0 0 0 0 0 0 0 0 0 0 0 0 0 0 0 0 0 0 0 0 0 0
0 0 6 7 4 3 10 15 0 0 0 0 0 0 0 0 0 0 0 0 0 0 0 0 0 0 0 0 0 0 2 0 0 0 0 0 5 6 0 0 0 0 0 0 0 0 0
1 0 3 3 2 5 9 11 0 0 2 0 0 0 0 0 0 0 0 0 0 0 0 0 0 0 0 0 0 8 11 0 0 1 0 3 13 0 0 0 0 0 0 0 0 0 0
0 0 0 0 1 3 10 8 4 0 0 0 0 0 0 0 0 0 0 0 0 0 0 0 0 0 0 0 0 0 9 33 0 0 39 3 8 0 0 0 0 0 0 0 0 0 0
0 0 0 0 2 9 16 11 15 3 0 0 0 0 0 0 0 0 0 0 0 0 0 0 0 0 0 0 0 0 0 0 0 13 0 1 1 0 0 0 0 0 0 0 0 0 0
1 1 1 3 7 4 5 16 19 13 0 0 0 0 0 0 0 2 0 0 1 0 0 0 0 0 0 0 0 0 0 0 0 0 0 8 0 0 0 0 0 0 0 0 0 0 0
3 3 4 5 10 3 7 13 20 9 0 0 0 0 0 4 2 10 8 13 15 15 8 21 11 14 4 1 0 0 0 0 0 0 0 1 4 0 0 0 0 0 0 0 0 0 0
4 5 5 7 4 6 13 13 18 19 16 2 0 2 3 3 9 13 8 13 13 20 14 11 8 15 13 2 0 0 0 0 0 0 0 3 9 12 0 0 0 0 0 0 0 0 0
7 5 6 8 8 14 18 17 18 32 31 3 0 0 1 1 4 6 9 20 13 7 11 5 3 2 0 0 0 0 0 0 0 0 0 0 5 18 0 0 0 0 0 0 0 0 0
3 7 10 12 17 19 18 18 27 36 33 16 3 0 0 0 1 1 9 9 11 9 11 0 0 0 0 0 0 0 0 29 59 1 0 0 4 12 2 0 0 0 0 0 0 0 0
7 6 13 13 11 13 16 19 29 29 32 17 8 0 0 1 0 0 4 8 9 8 9 5 11 0 0 0 26 7 4 4 38 15 5 12 18 9 9 13 2 0 0 0 0 0 0
7 10 10 8 12 13 16 16 23 27 33 14 1 0 0 0 0 0 1 9 10 10 4 9 0 0 0 0 12 6 9 9 13 10 33 14 11 15 14 15 12 0 0 0 0 0 0
8 9 9 11 12 16 21 20 25 27 19 6 0 0 0 0 0 0 0 0 2 2 15 17 13 6 0 0 0 5 11 13 8 2 4 13 9 8 11 15 0 0 0 0 0 0 0

GFSGBSN_con_sbcape_048.txt.gz
CAPE
8 6 6 3 2 1 1 1 0 0 0 0 0 0 1 0 0 0 0 0 0 0 0 0 0 1 0 0 0 0 0 0 0 0 0 0 0 0 0 0 0 111 168 72 170 246 200
7 6 4 3 1 0 0 1 0 0 0 0 1 2 1 1 2 1 0 1 0 0 0 0 0 0 0 0 0 0 0 0 0 0 0 0 0 0 0 0 0 0 8 8 0 0 3
7 6 5 3 1 1 1 0 0 0 0 0 1 3 2 0 2 0 0 0 0 0 0 0 0 0 0 0 0 0 0 0 0 0 0 0 0 0 0 0 0 0 0 0 0 0 0
6 5 5 3 2 1 2 1 1 0 1 2 2 2 2 1 1 0 0 0 0 0 0 0 2 0 0 0 0 0 0 0 0 0 0 0 0 0 0 0 0 0 0 0 0 0 0
3 2 2 2 1 1 3 1 0 1 3 2 3 2 0 0 0 0 0 0 0 0 0 1 0 0 0 0 0 0 0 0 0 0 0 0 0 0 0 0 0 0 0 0 0 0 14
3 2 2 2 2 4 5 3 3 2 1 1 1 0 0 0 0 0 0 0 0 0 0 0 0 0 0 0 0 0 0 0 0 0 0 0 0 0 0 0 0 0 0 0 0 0 9
2 1 2 2 2 1 3 3 2 1 1 0 0 0 0 0 0 0 0 0 0 0 0 0 0 0 0 0 0 0 0 0 0 0 0 0 0 0 0 0 0 0 0 0 0 0 0
2 1 2 1 0 0 0 2 2 0 1 2 1 0 0 0 0 0 0 0 0 0 0 0 0 0 0 0 0 0 0 0 0 0 0 0 0 0 0 0 0 0 0 0 0 0 0
3 2 1 1 1 1 2 2 2 3 3 1 1 0 0 0 0 0 0 0 0 0 0 0 0 0 0 0 0 0 0 0 0 0 0 0 0 0 0 0 0 0 0 0 0 0 0
3 3 4 1 0 1 2 3 2 1 1 0 0 0 0 0 0 0 0 0 0 0 0 0 0 0 0 0 0 0 0 0 0 0 0 0 0 0 0 0 0 0 0 0 0 0 0
5 5 6 3 1 1 1 2 1 1 1 0 0 0 0 0 0 0 0 0 0 0 0 0 0 0 0 0 0 0 0 0 0 0 0 0 0 0 0 0 0 0 0 0 0 0 0
5 4 3 2 1 1 2 1 1 1 1 0 0 0 0 0 0 0 0 0 0 0 0 0 0 0 0 0 0 0 0 0 0 0 0 0 0 0 0 0 0 0 0 0 0 0 0
2 2 2 1 1 3 3 3 2 1 1 0 0 0 0 0 0 0 0 0 0 0 0 0 0 0 0 0 0 0 0 0 0 0 0 0 0 0 0 0 0 0 0 0 0 0 0
1 2 2 5 3 5 5 5 2 0 1 0 0 0 0 0 0 0 0 0 0 0 0 0 0 0 0 0 0 0 0 0 0 0 0 0 0 0 0 0 0 0 0 0 0 0 0
1 3 4 5 4 7 7 4 1 1 0 0 0 0 0 0 0 0 0 0 0 0 0 0 0 0 0 0 0 0 0 0 0 0 0 0 0 0 0 0 0 0 0 0 0 0 0
3 2 3 5 5 8 10 6 2 1 0 0 0 0 0 0 0 0 0 0 0 0 0 0 0 0 0 0 0 0 0 0 0 0 0 0 0 0 0 0 0 0 0 0 0 0 0
1 1 1 1 3 5 12 12 5 0 0 0 0 0 0 0 0 0 0 0 0 0 0 0 0 0 0 0 0 0 0 0 0 0 0 0 0 0 0 0 0 0 0 0 0 0 0
2 1 3 3 3 6 13 16 5 0 0 0 0 0 0 0 0 0 0 0 0 0 0 0 0 0 0 0 0 0 0 0 0 0 0 0 0 1 0 0 0 0 0 0 0 0 0
2 1 3 3 5 9 17 16 3 0 0 0 0 0 0 0 0 0 0 0 0 0 0 0 0 0 0 0 0 0 0 0 0 0 0 1 11 0 0 0 0 0 0 0 0 0 0
3 2 3 4 11 15 17 14 10 5 0 0 0 0 0 0 0 0 0 0 0 0 0 0 0 0 0 0 0 0 0 10 0 0 42 13 0 0 0 0 0 0 0 0 0 0 0
4 6 5 6 8 5 11 19 14 8 0 0 0 0 0 0 0 0 4 0 0 1 0 0 0 0 0 0 0 0 0 1 0 61 0 0 0 0 0 0 0 0 0 0 0 0 0
5 7 9 3 4 6 8 23 18 10 0 0 0 0 0 0 0 0 1 0 3 7 0 0 2 7 3 0 0 0 0 0 0 0 0 0 0 0 0 0 0 0 0 0 0 0 0
3 5 3 2 4 8 18 20 21 11 0 0 0 0 0 0 2 6 6 18 16 19 5 15 27 14 3 3 10 3 0 0 0 0 0 0 0 2 0 0 0 0 0 0 0 0 0
7 6 5 4 11 16 18 22 20 30 6 0 0 0 6 6 5 11 10 18 25 20 35 7 14 27 5 0 0 0 0 0 0 0 0 0 0 7 0 0 0 0 0 0 0 0 0
9 7 3 12 18 16 17 21 20 35 26 0 0 1 1 1 4 4 14 25 4 8 13 18 7 4 0 0 0 0 0 0 0 0 0 0 0 3 0 0 0 0 0 0 0 0 0
5 6 10 9 9 14 15 17 19 30 31 9 2 0 0 0 2 1 11 8 10 8 12 16 0 0 0 0 12 2 0 0 7 0 0 0 4 10 12 0 15 0 0 0 0 0 0
6 7 7 10 13 17 20 23 25 28 24 2 0 0 0 0 0 0 5 10 4 5 5 7 5 0 0 0 16 6 1 10 19 0 8 29 45 4 2 6 13 1 0 0 0 0 0
7 5 8 12 19 21 23 28 27 29 25 0 0 0 0 0 0 0 0 8 13 3 4 4 0 0 0 4 11 3 7 3 4 21 3 11 17 0 10 18 33 0 0 0 0 0 0
5 6 9 10 13 20 22 23 22 19 11 1 0 1 0 0 0 0 0 1 8 19 19 6 4 10 5 8 7 7 11 5 1 4 8 27 9 5 9 12 7 0 4 0 0 0 0

GFSGBSN_con_sbcape_051.txt.gz
CAPE
6 4 4 3 2 2 1 1 0 0 0 0 0 0 1 0 0 0 1 1 1 0 0 0 0 0 0 0 0 0 0 0 0 0 0 0 0 0 0 0 31 166 311 225 200 165 140
3 3 2 2 1 1 1 1 0 0 0 0 0 3 2 1 1 0 0 0 0 0 0 0 0 0 0 0 0 0 0 0 0 0 0 0 0 0 0 0 0 8 37 145 33 24 49
3 3 2 1 1 1 0 0 0 0 0 0 2 2 1 2 1 0 0 0 0 0 0 0 0 0 0 0 0 0 0 0 0 0 0 0 0 0 0 0 0 0 0 0 0 0 1
2 3 2 1 1 0 0 0 0 0 1 1 0 1 0 0 0 0 0 0 0 0 0 0 0 0 0 0 0 0 0 0 0 0 0 0 0 0 0 0 0 0 0 0 1 0 0
2 2 2 0 0 0 1 0 0 2 2 2 1 1 0 0 0 0 0 0 0 0 0 0 0 0 0 0 0 0 0 0 0 0 0 0 0 0 0 0 0 0 0 0 4 2 37
2 1 0 1 1 2 2 2 1 1 3 2 0 0 0 0 0 0 0 0 0 0 0 0 0 0 0 0 0 0 0 0 0 0 0 0 0 0 0 0 0 0 0 0 46 28 37
4 4 3 1 0 0 2 2 0 0 1 1 0 0 0 0 0 0 0 0 0 0 0 0 0 0 0 0 0 0 0 0 0 0 0 0 0 0 0 0 0 0 0 0 0 12 28
4 4 3 2 1 1 1 1 1 0 2 3 3 1 0 1 0 0 0 0 0 0 0 0 0 0 0 0 0 0 0 0 0 0 0 0 0 0 0 0 0 0 0 0 0 0 0
3 3 3 1 1 1 2 2 2 3 3 4 3 1 0 0 0 0 0 0 0 0 0 0 0 0 0 0 0 0 0 0 0 0 0 0 0 0 0 0 0 0 0 0 0 0 0
3 5 6 3 1 3 4 6 4 6 3 2 2 1 0 0 0 0 0 0 0 0 0 0 0 0 0 0 0 0 0 0 0 0 0 0 0 0 0 0 0 0 0 0 0 0 1
4 5 5 5 3 2 3 4 3 3 1 1 2 1 0 0 0 0 0 0 0 0 0 0 0 0 0 0 0 0 0 0 0 0 0 0 0 0 0 0 0 0 0 0 0 0 0
4 2 1 2 2 3 5 4 2 3 2 1 0 0 1 0 0 0 0 0 0 0 0 0 0 0 0 0 0 0 0 0 0 0 0 0 0 0 0 0 0 0 0 0 0 0 0
1 1 1 0 3 6 4 3 3 3 2 0 0 0 0 0 0 0 0 0 0 0 0 0 0 0 0 0 0 0 0 0 0 0 0 0 0 0 0 0 0 0 0 0 0 0 0
2 5 3 4 2 4 4 6 5 3 1 0 0 0 0 0 0 0 0 0 0 0 0 0 0 0 0 0 0 0 0 0 0 0 0 0 0 0 0 0 0 0 0 0 0 0 0
10 8 7 5 4 7 5 9 6 2 0 0 0 0 0 0 0 0 0 0 0 0 0 0 0 0 0 0 0 0 0 0 0 0 0 0 0 0 0 0 0 0 0 0 0 0 0
4 3 1 4 4 6 10 9 5 1 0 0 0 0 0 0 0 0 0 0 0 0 0 0 0 0 0 0 0 0 0 0 0 0 0 0 0 0 0 0 0 0 0 0 0 0 0
5 4 0 0 7 11 15 13 6 1 0 0 0 0 0 0 0 0 0 0 0 0 0 0 0 0 0 0 0 0 0 0 0 0 0 0 0 0 0 0 0 0 0 0 0 0 0
6 3 4 8 10 14 20 17 8 3 0 0 0 0 0 0 0 0 0 0 0 0 0 0 0 0 0 0 0 0 0 0 0 0 0 0 2 0 0 0 0 0 0 0 11 0 0
6 5 8 11 13 9 16 15 10 5 0 0 0 0 0 0 0 0 0 0 0 0 0 0 0 0 0 0 0 0 0 0 0 0 0 0 6 0 0 0 0 0 0 0 0 0 1
4 6 6 3 5 9 16 15 10 7 0 0 0 0 0 0 0 1 0 0 0 0 0 0 0 0 0 0 0 0 0 2 0 0 13 0 0 0 0 0 0 0 0 0 0 1 0
4 3 2 3 7 9 14 18 13 8 0 0 0 0 0 0 0 2 2 0 2 3 3 3 7 0 0 0 0 0 0 7 18 10 17 0 0 0 0 0 0 0 0 0 0 0 0
4 2 3 9 10 13 18 24 19 7 0 0 0 0 0 0 0 0 0 0 4 9 1 1 5 14 32 42 2 0 0 0 20 28 18 0 0 0 0 0 0 0 0 0 0 0 0
7 6 4 12 14 18 19 23 21 10 0 0 0 0 2 3 7 3 10 23 22 22 7 2 19 13 14 3 7 10 12 2 1 5 56 9 0 0 0 1 1 0 0 0 0 0 0
5 5 12 12 12 15 16 20 22 17 2 3 0 4 10 12 4 18 16 23 34 29 25 11 23 28 19 29 19 24 12 15 7 13 13 35 4 7 1 1 16 13 0 0 0 0 0
3 9 11 9 12 12 14 17 22 27 5 15 2 6 5 6 9 8 13 17 8 8 6 9 7 18 2 10 36 27 5 10 42 9 11 27 72 27 20 51 7 75 0 0 0 0 0
3 3 9 9 14 20 19 20 25 22 8 20 12 1 0 5 16 5 8 7 14 8 3 0 5 1 0 32 46 15 29 1 7 3 1 21 61 90 25 41 149 10 2 0 1 0 0
5 7 8 11 21 25 24 26 24 15 4 15 14 3 0 2 2 0 18 9 6 5 11 5 6 2 0 38 28 30 31 14 38 37 5 17 53 43 41 43 14 5 4 0 6 0 0
2 5 8 11 13 17 18 19 20 14 6 3 8 0 7 3 1 0 0 16 13 3 7 1 12 2 23 24 39 27 18 18 41 17 11 16 45 53 36 38 20 7 0 1 3 0 0
2 5 8 13 12 12 13 14 11 4 1 0 13 4 2 5 1 0 0 0 6 8 18 2 1 17 12 8 17 25 20 22 46 43 1 8 9 47 41 29 9 31 11 5 19 6 0

GFSGBSN_con_sbcape_054.txt.gz
CAPE
3 2 1 1 1 0 0 0 0 0 0 0 0 1 2 0 0 0 0 0 0 0 0 1 0 0 0 0 0 0 0 0 0 0 0 0 0 0 0 0 0 27 184 257 214 134 264
2 2 2 1 1 0 0 0 0 0 0 0 1 2 1 1 2 0 0 0 0 0 0 0 0 0 0 0 0 0 0 0 0 0 0 0 0 0 0 0 0 0 10 518 227 179 230
2 2 1 1 0 0 0 0 0 0 0 0 1 1 1 1 1 0 0 0 0 0 0 0 0 0 0 0 0 0 0 0 0 0 0 0 0 0 0 0 0 0 0 4 40 49 27
3 2 2 1 1 1 1 0 0 2 2 2 1 1 1 1 0 0 0 0 0 0 0 0 0 0 0 0 0 0 0 0 0 0 0 0 0 0 0 0 0 0 0 17 180 0 8
1 1 1 0 0 1 2 0 0 2 4 3 2 2 0 2 1 1 0 0 0 0 0 0 0 0 0 0 0 0 0 0 0 0 0 0 0 0 0 0 0 0 0 0 114 69 101
1 1 0 0 1 1 2 2 2 2 5 4 1 0 0 1 0 0 0 0 0 0 0 0 0 0 0 0 0 0 0 0 0 0 0 0 0 0 0 0 0 0 0 0 0 308 331
2 2 1 1 1 1 1 1 1 1 5 4 1 0 0 1 0 0 0 0 0 0 0 0 0 0 0 0 0 0 0 0 0 0 0 0 0 0 0 0 0 0 0 0 64 200 315
2 3 3 2 1 0 0 0 2 2 4 4 2 1 1 1 0 0 0 0 0 0 0 0 0 0 0 0 0 0 0 0 0 0 0 0 0 0 0 0 0 0 0 0 7 30 210
1 2 2 2 1 0 1 1 2 4 3 4 4 1 0 0 0 0 0 0 0 0 0 0 0 0 0 0 0 0 0 0 0 0 0 0 0 0 0 0 0 0 0 0 0 0 1
3 3 6 4 3 2 3 3 3 4 3 5 6 1 0 1 0 0 0 0 0 0 0 0 0 0 0 0 0 0 0 0 0 0 0 0 0 0 0 0 0 0 0 0 0 0 15
5 5 4 6 6 3 4 3 3 4 3 4 3 1 0 1 0 0 0 0 0 0 0 0 0 0 0 0 0 0 0 0 0 0 0 0 0 0 0 0 0 0 0 0 0 0 0
7 6 4 2 4 1 2 2 4 4 5 4 1 0 0 0 0 0 0 0 0 0 0 0 0 0 0 0 0 0 0 0 0 0 0 0 0 0 0 0 0 0 0 0 0 0 0
13 11 7 4 2 2 3 4 5 4 2 0 0 0 0 0 0 0 0 0 0 0 0 0 0 0 0 0 0 0 0 0 0 0 0 0 0 0 0 0 0 0 0 0 0 0 0
10 11 9 2 3 2 4 5 7 1 0 0 0 0 0 0 0 0 0 0 0 0 0 0 0 0 0 0 0 0 0 0 0 0 0 0 0 0 0 0 0 0 0 0 0 0 0
10 11 7 3 2 6 9 10 8 1 0 0 0 0 0 0 0 0 0 0 0 0 0 0 0 0 0 0 0 0 0 0 0 0 0 0 0 0 0 0 0 1 0 0 0 0 0
3 5 3 6 9 9 11 14 8 4 0 0 0 0 0 0 0 0 0 0 0 0 0 0 0 0 0 0 0 0 0 0 0 0 0 0 0 0 0 0 0 0 0 5 0 0 0
3 6 6 8 13 13 15 15 3 3 0 0 0 0 0 0 0 0 0 0 0 0 0 0 0 0 0 0 0 0 0 0 0 0 0 0 0 0 0 0 0 0 1 33 15 1 0
4 7 14 8 14 15 18 19 10 1 0 0 0 0 0 0 0 0 0 0 0 0 0 0 0 0 0 0 0 0 0 0 0 0 0 0 0 0 0 5 1 1 50 1 64 23 0
5 10 2 10 15 14 16 13 8 0 0 0 0 0 0 0 0 1 0 0 0 0 1 0 1 0 1 1 1 5 5 0 0 0 0 2 0 0 0 0 0 0 6 10 46 58 38
6 3 3 9 13 14 15 13 3 0 0 0 0 0 0 0 2 0 0 3 4 0 4 4 1 2 4 4 5 10 5 12 0 0 0 0 0 0 0 0 0 0 3 0 0 58 17
6 9 4 10 14 14 15 17 2 0 0 0 0 0 0 2 6 7 10 7 1 4 4 5 14 21 19 20 18 21 12 4 20 5 22 7 2 1 0 0 0 0 0 0 0 1 16
8 5 9 12 17 15 15 15 1 0 0 0 3 5 7 6 12 13 2 10 4 16 15 7 22 20 9 69 53 30 24 22 42 52 50 42 5 0 0 0 0 0 0 0 0 0 0
6 6 10 13 14 12 12 16 4 0 0 4 6 6 15 2 9 6 9 10 11 24 10 10 20 18 7 7 34 5 100 94 76 43 130 81 42 25 11 0 0 0 0 0 0 0 0
3 6 9 12 12 11 10 13 6 0 0 13 9 12 16 15 9 14 12 26 27 34 35 14 13 19 19 28 36 33 63 54 46 73 76 189 131 108 22 18 3 0 0 4 2 0 0
6 7 7 12 14 15 16 11 4 1 0 23 16 20 13 17 17 20 26 3 2 6 7 8 7 14 30 41 38 47 41 33 40 81 98 80 214 160 71 53 7 26 204 125 158 92 59
6 5 7 12 16 17 17 8 1 0 0 27 28 23 17 15 14 34 20 10 10 4 2 0 0 11 37 44 94 59 68 42 39 75 206 178 219 262 122 50 59 51 1 9 10 146 1
6 3 7 11 10 10 4 0 5 0 0 13 24 23 7 21 17 2 30 19 7 4 13 12 16 21 25 68 110 65 61 103 38 67 147 284 234 295 172 79 41 1 0 3 147 82 0
3 1 10 10 10 9 3 0 0 0 0 7 16 14 27 16 10 17 17 12 22 10 24 20 25 17 23 38 74 67 90 88 162 104 97 187 141 177 151 76 75 3 0 32 14 17 6
1 3 10 11 8 7 6 0 0 0 0 0 6 7 13 10 1 0 6 16 8 21 20 16 37 37 12 17 22 46 63 50 33 136 108 86 98 152 104 68 15 14 12 17 38 31 30

GFSGBSN_con_sbcape_057.txt.gz
CAPE
1 1 1 0 0 0 0 0 0 0 0 0 0 1 1 1 0 0 0 0 0 0 0 0 1 0 0 0 0 0 0 0 0 0 0 0 0 0 0 0 6 14 37 443 310 232 45
1 1 0 0 0 0 0 0 0 0 0 0 1 2 2 2 2 0 0 0 0 0 0 0 0 0 0 0 0 0 0 0 0 0 0 0 0 0 0 0 0 2 1 394 260 467 467
1 1 0 0 0 0 0 0 0 0 0 0 1 1 2 3 1 0 0 0 0 0 0 0 0 0 0 0 0 0 0 0 0 0 0 0 0 0 0 0 0 0 0 90 487 371 472
1 1 1 0 0 0 0 0 0 0 1 1 0 1 3 2 1 0 0 0 0 0 0 0 0 0 0 0 0 0 0 0 0 0 0 0 0 0 0 0 0 0 0 136 345 346 276
2 2 2 1 1 2 1 1 0 2 4 2 1 2 2 3 2 0 0 0 0 0 0 0 0 0 0 0 0 0 0 0 0 0 0 0 0 0 0 0 0 0 0 2 233 123 120
1 2 3 3 2 3 0 1 3 2 3 2 1 1 2 1 0 0 0 0 0 0 0 0 0 0 0 0 0 0 0 0 0 0 0 0 0 0 0 0 0 0 0 0 103 371 171
2 3 1 1 2 2 1 2 1 1 3 4 3 1 2 0 0 0 0 0 0 0 0 0 0 0 0 0 0 0 0 0 0 0 0 0 0 0 0 0 0 0 0 0 16 191 213
3 2 1 1 0 0 0 0 0 0 1 5 3 1 1 0 0 0 0 0 0 0 0 0 0 0 0 0 0 0 0 0 0 0 0 0 0 0 0 0 0 0 0 0 0 81 235
1 1 1 1 3 5 3 2 3 3 4 5 3 1 0 0 1 0 0 0 0 0 0 0 0 0 0 0 0 0 0 0 0 0 0 0 0 0 0 0 0 0 0 0 3 79 374
8 11 11 8 2 1 1 2 4 5 5 5 3 2 0 1 0 0 0 0 0 0 0 0 0 0 0 0 0 0 0 0 0 0 0 0 0 0 0 0 0 0 0 0 0 15 75
11 16 14 9 7 4 2 2 5 8 5 3 2 1 0 1 0 0 0 0 0 0 0 0 0 0 0 0 0 0 0 0 0 0 0 0 0 0 0 0 0 0 0 0 0 0 9
8 11 4 3 2 1 2 4 6 7 3 3 1 0 0 0 0 0 0 0 0 0 0 0 0 0 0 0 0 0 0 0 0 0 0 0 0 0 0 0 0 0 0 0 0 0 0
8 1 1 1 0 3 3 4 9 4 0 0 0 0 0 0 0 0 0 0 0 0 0 0 0 0 0 0 0 0 0 0 0 0 0 0 0 0 0 0 0 0 0 0 0 0 0
4 4 9 6 4 6 7 8 5 1 0 0 0 0 0 0 0 0 0 0 0 0 0 0 0 0 0 0 0 0 0 0 0 0 0 0 0 0 0 0 0 0 0 0 0 0 0
3 8 9 11 9 10 9 7 2 0 0 0 0 0 0 0 0 0 0 0 2 0 0 0 0 0 0 0 0 0 0 0 0 0 0 0 0 0 0 0 0 0 2 0 0 0 0
3 5 8 13 10 4 11 9 2 0 0 0 0 0 0 0 0 0 0 0 0 0 0 0 0 0 0 0 0 0 0 0 0 0 0 0 0 0 0 0 0 0 1 0 0 2 0
3 6 10 14 17 15 15 12 3 0 0 0 0 2 0 0 0 0 2 1 0 0 0 0 0 0 0 0 0 0 0 0 0 0 0 0 0 0 0 0 0 0 0 8 38 5 0
4 7 13 18 15 12 14 8 0 0 0 0 0 8 0 0 1 0 16 0 0 0 0 0 0 0 0 1 5 9 0 6 0 0 0 0 0 0 0 0 0 0 4 0 96 63 5
6 8 11 15 14 9 10 3 0 0 0 0 0 0 0 0 20 27 0 0 0 1 3 3 4 5 4 10 15 12 13 0 0 0 0 0 0 0 0 0 0 0 0 26 18 23 70
7 9 9 15 16 12 10 2 0 0 0 0 0 15 2 0 0 1 9 6 11 0 0 1 6 14 18 24 27 21 24 5 8 1 0 0 0 0 0 0 0 5 2 21 85 87 44
5 6 9 11 12 10 12 1 0 0 0 0 0 0 0 1 0 3 2 0 0 11 5 1 10 6 11 16 9 34 51 53 43 51 5 2 1 0 0 0 0 0 0 15 95 89 86
5 5 10 11 8 5 14 5 0 0 0 0 1 2 0 5 3 13 1 10 5 6 12 12 9 10 15 32 40 87 90 159 117 89 75 35 54 41 19 3 0 0 0 0 0 0 0
5 5 9 10 7 4 9 7 0 0 0 0 0 0 9 0 8 18 16 17 23 21 10 6 0 13 8 3 13 27 65 118 193 190 143 144 104 84 73 24 3 0 0 0 0 0 0
5 6 9 10 9 8 10 1 0 0 0 0 2 7 11 12 9 15 20 0 8 17 28 16 10 17 21 21 31 22 32 23 176 208 108 198 196 195 159 60 42 3 0 0 0 0 0
5 6 8 8 7 7 11 0 0 0 0 0 3 5 5 18 10 13 9 5 5 8 10 10 9 20 22 27 24 29 67 92 140 129 117 159 217 282 216 130 60 18 82 142 13 0 38
5 6 7 8 2 2 7 0 0 0 0 6 3 8 11 30 8 11 10 14 7 8 12 6 16 16 21 48 57 67 69 130 158 187 174 206 132 358 234 142 92 42 162 12 39 52 129
2 5 6 3 3 0 0 0 0 0 0 1 4 7 13 25 5 6 9 9 17 16 18 11 19 26 35 59 57 65 99 64 93 177 173 328 400 350 278 223 120 318 86 0 83 51 1
1 5 8 3 1 0 0 0 0 0 0 1 0 5 16 28 27 10 2 12 8 18 23 24 36 44 13 31 94 57 85 72 47 168 78 294 227 258 356 220 149 278 91 7 1 0 0
1 5 10 2 2 1 0 0 0 0 0 0 12 0 2 0 23 1 1 0 4 7 13 15 43 56 37 24 34 43 75 73 29 248 176 179 298 320 227 210 385 121 34 53 2 1 11

GFSGBSN_con_sbcape_060.txt.gz
CAPE
1 1 1 1 1 0 0 0 0 1 0 0 0 0 3 1 0 1 0 0 0 0 0 0 0 0 0 0 0 0 0 0 0 0 0 0 0 0 0 0 15 15 45 47 41 99 63
1 1 1 0 0 0 0 0 0 0 0 0 1 3 3 3 2 1 0 0 0 0 0 0 0 0 0 0 0 0 0 0 0 0 0 0 0 0 0 0 0 11 5 20 303 154 82
2 2 2 2 2 1 1 0 0 0 0 0 2 4 5 4 1 0 0 0 0 0 0 0 0 0 0 0 0 0 0 0 0 0 0 0 0 0 0 0 0 0 0 6 185 173 233
1 2 2 2 3 3 1 0 0 0 2 2 2 3 4 5 1 1 0 0 0 0 0 0 0 0 0 0 0 0 0 0 0 0 0 0 0 0 0 0 0 0 0 0 66 390 207
2 2 1 3 3 3 1 2 0 1 1 1 2 4 3 4 2 0 0 0 0 0 0 0 0 0 0 0 0 0 0 0 0 0 0 0 0 0 0 0 0 0 0 0 3 480 388
4 3 3 2 1 1 3 2 1 2 5 6 2 2 2 2 0 0 0 0 0 0 0 0 0 0 0 0 0 0 0 0 0 0 0 0 0 0 0 0 0 0 0 0 0 188 263
4 3 2 1 1 1 1 0 0 0 5 6 3 2 2 1 0 0 0 0 0 0 0 0 0 0 0 0 0 0 0 0 0 0 0 0 0 0 0 0 0 0 0 0 0 157 307
7 2 2 2 1 2 1 0 1 1 4 7 2 2 2 1 0 0 0 0 0 0 0 0 0 0 0 0 0 0 0 0 0 0 0 0 0 0 0 0 0 0 0 0 0 83 358
5 4 2 6 5 2 0 1 2 3 5 6 4 1 0 0 0 0 0 0 0 0 0 0 0 0 0 0 0 0 0 0 0 0 0 0 0 0 0 0 0 0 0 0 0 23 164
4 13 10 5 4 2 0 1 4 5 7 7 4 1 0 2 0 0 0 0 0 0 0 0 0 0 0 0 0 0 0 0 0 0 0 0 0 0 0 0 0 0 0 0 0 0 28
6 15 6 5 4 1 1 3 5 8 7 1 1 0 0 0 0 0 0 0 0 0 0 0 0 0 0 0 0 0 0 0 0 0 0 0 0 0 0 0 0 0 0 0 0 0 0
6 4 2 5 3 3 4 5 6 4 0 0 0 0 0 0 0 0 0 0 0 0 0 0 0 0 0 0 0 0 0 0 0 0 0 0 0 0 0 0 0 0 0 0 0 0 0
2 2 3 2 7 7 8 6 3 0 0 0 0 0 0 0 0 0 0 0 0 0 0 0 0 0 0 0 0 0 0 0 0 0 0 0 0 0 0 0 0 0 0 0 0 0 0
1 4 6 8 8 8 6 4 1 0 0 0 0 0 0 0 0 0 0 0 0 0 0 0 0 0 0 0 0 0 0 0 0 0 0 0 0 0 0 0 0 0 0 0 0 0 0
3 5 9 9 6 2 6 3 0 0 0 0 0 0 0 0 0 0 0 0 4 0 0 0 0 0 0 0 0 0 0 0 0 0 0 0 0 0 0 0 0 0 0 0 0 0 0
3 4 8 11 12 8 7 4 0 0 0 0 0 0 0 0 0 0 0 0 4 0 0 0 0 0 0 1 0 0 0 0 0 0 0 0 0 0 0 0 0 0 0 1 0 0 0
5 6 7 9 8 7 9 5 0 0 0 0 0 8 0 0 0 0 0 13 0 0 0 0 0 0 0 0 0 0 0 0 0 0 0 0 0 0 0 0 0 0 0 0 1 10 0
8 10 6 6 9 10 12 4 0 0 0 0 0 5 0 0 1 21 1 0 0 0 0 0 0 0 0 0 0 5 3 6 0 0 0 0 0 0 0 0 0 2 0 0 7 1 6
12 11 8 9 10 15 12 0 0 0 0 0 0 0 0 0 6 7 0 0 0 0 1 0 0 0 0 0 0 0 0 0 0 0 0 0 0 0 0 0 0 0 0 0 0 0 13
9 10 7 11 15 17 10 0 0 0 0 0 0 6 2 0 0 0 5 2 3 0 1 0 0 0 0 2 1 1 4 1 0 0 0 0 0 0 0 0 0 0 0 0 0 8 0
7 7 7 11 15 15 7 0 0 0 0 0 0 0 0 0 0 1 4 7 6 2 0 0 1 0 0 3 5 6 13 13 1 1 0 0 0 0 0 0 0 0 0 0 0 0 22
5 10 7 9 10 11 7 0 0 0 0 0 0 2 2 0 1 16 2 8 0 0 0 6 4 12 5 5 24 7 11 30 36 61 15 46 28 21 9 1 0 0 0 0 0 0 0
7 9 10 9 9 7 2 0 0 0 0 0 0 0 0 0 1 0 1 1 2 2 2 1 2 6 8 21 13 9 11 13 7 76 101 184 160 136 31 41 16 4 0 0 0 0 0
8 8 9 8 9 5 1 0 0 0 0 0 0 5 0 0 0 1 1 1 2 1 2 2 0 5 7 1 1 1 8 3 7 17 65 169 192 187 100 64 53 1 0 0 0 0 0
3 7 8 5 8 0 0 0 0 0 0 0 0 1 7 3 0 1 2 0 2 4 12 8 5 6 4 13 7 17 18 5 9 24 24 151 263 178 79 92 13 2 25 98 135 1 0
6 5 5 0 5 0 0 0 0 0 0 0 0 1 8 5 3 2 5 0 5 4 12 4 17 13 8 19 28 26 23 45 64 111 79 190 199 448 177 71 39 1 93 36 26 21 87
3 4 2 0 0 0 0 0 0 0 0 0 0 0 13 31 2 0 0 0 7 5 3 12 10 19 16 17 49 51 43 20 11 48 91 123 404 190 214 173 90 213 129 55 47 6 15
1 2 1 0 0 0 0 0 0 0 0 0 0 0 1 30 15 16 1 5 3 4 20 19 36 43 18 21 38 21 30 38 14 19 66 180 246 191 266 152 74 291 131 101 133 21 12
0 1 2 0 0 0 0 0 0 0 0 0 2 0 0 4 17 7 6 0 0 0 9 30 44 22 22 28 18 21 48 34 36 50 0 292 92 276 26 117 312 127 60 33 7 11 0

GFSGBSN_con_sbcape_063.txt.gz
CAPE
1 1 1 1 1 2 0 0 0 0 0 0 0 0 1 1 1 1 1 1 1 0 2 0 0 0 0 0 0 0 0 0 0 0 0 0 0 0 0 0 0 7 26 191 165 87 80
1 3 2 3 3 2 0 0 0 0 0 0 1 4 4 2 2 1 2 2 0 0 2 0 0 0 0 0 0 0 0 0 0 0 0 0 0 0 0 0 0 0 5 77 80 183 238
1 2 2 2 1 0 0 0 0 0 0 1 1 4 7 5 2 1 1 0 0 0 0 0 0 0 0 0 0 0 0 0 0 0 0 0 0 0 0 0 0 0 0 0 202 210 216
8 3 2 2 4 1 0 0 0 0 1 2 2 5 4 2 1 3 2 0 0 0 0 0 0 0 0 0 0 0 0 0 0 0 0 0 0 0 0 0 0 0 0 0 0 307 298
9 10 8 6 2 1 1 1 0 0 2 4 5 7 8 4 3 2 1 0 0 0 0 0 0 0 0 0 0 0 0 0 0 0 0 0 0 0 0 0 0 0 0 0 0 164 353
7 9 5 1 3 3 2 1 1 1 4 7 5 6 5 4 1 1 0 0 0 0 0 0 0 0 0 0 0 0 0 0 0 0 0 0 0 0 0 0 0 0 0 0 0 109 337
6 7 3 1 1 3 1 0 0 2 7 9 6 5 4 2 0 0 0 0 0 0 0 0 0 0 0 0 0 0 0 0 0 0 0 0 0 0 0 0 0 0 0 0 0 0 272
6 3 2 0 1 3 2 0 1 4 6 8 4 2 3 1 0 0 0 0 0 0 0 0 0 0 0 0 0 0 0 0 0 0 0 0 0 0 0 0 0 0 0 0 0 0 236
7 4 4 3 3 3 1 1 5 7 7 6 1 0 0 0 0 0 0 0 0 0 0 0 0 0 0 0 0 0 0 0 0 0 0 0 0 0 0 0 0 0 0 0 0 0 189
9 11 5 6 8 5 3 7 7 7 4 1 0 0 0 1 0 0 0 0 0 0 0 0 0 0 0 0 0 0 0 0 0 0 0 0 0 0 0 0 0 0 0 0 0 0 0
7 6 8 10 9 8 10 11 6 3 0 0 0 0 0 1 0 0 0 0 0 0 0 0 0 0 0 0 0 0 0 0 0 0 0 0 0 0 0 0 0 0 0 0 0 0 0
5 7 10 11 13 13 10 6 0 0 0 0 0 0 0 0 0 0 0 0 0 0 0 0 0 0 0 0 0 0 0 0 0 0 0 0 0 0 0 0 0 0 0 0 0 0 0
6 8 11 14 13 8 2 0 0 0 0 0 0 0 1 0 0 0 0 0 0 0 0 0 0 0 0 0 0 0 0 0 0 0 0 0 0 0 0 0 0 0 0 0 0 0 0
7 11 15 14 10 6 1 0 0 0 0 0 0 0 0 0 0 0 0 0 0 0 0 0 0 0 0 0 0 0 0 0 0 0 0 0 0 0 0 0 0 0 0 0 0 0 0
9 13 10 10 5 2 0 1 0 0 0 0 0 0 0 0 0 0 0 0 0 0 0 0 0 0 0 0 0 0 0 0 0 0 0 0 0 0 0 0 0 0 0 0 0 0 0
10 12 13 13 10 8 4 1 0 0 0 0 0 0 0 0 0 0 0 0 0 0 0 0 0 0 0 0 0 0 0 0 0 0 0 0 0 0 0 0 0 0 0 0 0 0 0
8 10 12 14 13 10 7 3 0 0 0 0 0 0 0 0 0 0 0 0 0 0 0 0 0 0 0 0 0 0 0 0 0 0 0 0 0 0 0 0 0 0 0 0 0 0 0
8 10 12 14 10 9 5 0 0 0 0 0 0 3 0 0 0 9 0 0 0 0 0 0 0 0 0 0 0 0 0 0 0 0 0 0 0 0 0 0 0 0 0 0 0 0 0
6 10 10 15 10 9 1 0 0 0 0 0 0 0 0 0 0 0 0 0 0 0 0 0 0 0 0 0 0 0 0 0 0 0 0 0 0 0 0 0 0 0 0 0 0 0 0
8 6 6 16 17 7 2 0 0 0 0 0 0 1 0 0 0 0 0 0 0 0 0 0 0 0 0 0 0 0 0 0 0 0 0 0 0 0 0 0 0 0 0 0 0 0 0
3 8 13 16 19 7 1 0 0 0 0 0 0 0 0 0 0 0 0 0 0 0 0 0 0 0 0 0 0 0 0 0 0 0 0 0 0 0 0 0 0 0 0 0 0 0 0
5 10 13 18 12 7 1 0 0 0 0 0 0 0 0 0 0 0 0 0 0 0 0 0 0 0 0 0 0 0 0 0 0 0 0 0 0 0 0 0 0 0 0 0 0 0 0
3 6 13 14 7 3 0 0 0 0 0 0 0 0 0 0 0 0 0 0 0 0 0 0 0 0 0 0 0 0 0 0 0 0 0 5 0 0 0 0 3 0 0 0 0 0 0
5 5 8 7 2 0 0 0 0 0 0 0 0 0 0 0 0 0 0 0 0 0 0 0 0 0 0 0 0 0 0 0 0 0 0 3 23 22 0 3 8 0 0 0 0 0 0
4 3 5 3 0 0 0 0 0 0 0 0 0 0 1 0 0 0 0 0 0 0 0 1 1 0 0 0 0 0 0 0 0 3 0 2 12 37 7 1 0 0 0 11 0 0 0
2 1 2 1 0 0 0 0 0 0 0 0 0 0 28 1 0 0 3 0 0 0 2 0 3 3 2 0 3 7 1 4 8 0 0 0 22 29 11 9 0 5 79 0 0 0 0
1 0 0 0 0 0 0 0 0 0 0 0 0 0 48 72 0 0 0 0 0 0 0 12 1 7 0 0 1 53 14 0 1 0 0 1 9 3 25 9 0 55 151 9 10 0 0
0 0 0 0 0 0 0 0 0 0 0 0 6 1 0 41 3 8 0 0 0 0 4 3 18 0 1 2 2 15 6 4 0 0 3 25 18 60 17 0 6 0 117 55 0 0 0
0 0 0 0 0 0 0 0 0 0 0 0 3 25 1 3 0 0 0 0 0 0 0 8 10 5 0 3 1 0 5 3 10 4 0 17 8 14 14 4 0 0 0 0 0 0 0

GFSGBSN_con_sbcape_066.txt.gz
CAPE
2 2 2 2 3 1 0 0 0 0 0 0 0 1 2 2 2 2 3 2 1 1 0 2 0 1 0 0 0 0 0 0 0 0 0 0 0 0 0 0 0 0 0 5 138 327 384
4 4 2 2 1 0 0 0 0 0 0 0 1 3 3 2 2 2 1 1 0 0 0 1 0 1 0 0 0 0 0 0 0 0 0 0 0 0 0 0 0 0 0 0 212 347 280
5 3 2 1 1 0 0 0 0 0 0 0 2 3 5 2 1 2 1 0 0 0 0 0 0 0 0 0 0 0 0 0 0 0 0 0 0 0 0 0 0 0 0 0 205 259 355
6 4 1 1 1 1 0 0 0 0 1 2 3 4 4 3 2 1 4 1 0 0 0 0 0 0 0 0 0 0 0 0 0 0 0 0 0 0 0 0 0 0 0 0 151 235 285
8 8 6 3 4 3 2 0 0 1 5 7 6 6 5 4 3 3 2 0 0 0 0 0 0 0 0 0 0 0 0 0 0 0 0 0 0 0 0 0 0 0 0 0 0 283 225
5 9 7 2 1 2 3 2 1 4 8 7 6 7 6 4 2 1 0 0 0 0 0 0 0 0 0 0 0 0 0 0 0 0 0 0 0 0 0 0 0 0 0 0 0 86 260
5 5 6 2 1 3 2 2 3 6 8 7 7 6 3 1 0 0 0 0 0 0 0 0 0 0 0 0 0 0 0 0 0 0 0 0 0 0 0 0 0 0 0 0 0 0 315
10 8 5 1 2 3 4 7 8 6 6 8 6 4 2 0 0 0 0 0 0 0 0 0 0 0 0 0 0 0 0 0 0 0 0 0 0 0 0 0 0 0 0 0 0 14 51
9 2 3 8 10 10 13 13 11 8 5 3 3 3 0 1 0 0 0 0 0 0 0 0 0 0 0 0 0 0 0 0 0 0 0 0 0 0 0 0 0 0 0 0 0 44 370
1 7 9 9 11 13 11 1 6 3 2 2 2 3 1 2 0 0 0 0 0 0 0 0 0 0 0 0 0 0 0 0 0 0 0 0 0 0 0 0 0 0 0 0 0 0 15
5 9 10 11 6 5 6 4 0 1 1 2 2 1 0 0 0 0 0 0 0 0 0 0 0 0 0 0 0 0 0 0 0 0 0 0 0 0 0 0 0 0 0 0 0 0 0
8 12 11 11 6 10 5 4 2 2 2 1 0 1 1 0 0 0 0 0 0 0 0 0 0 0 0 0 0 0 0 0 0 0 0 0 0 0 0 0 0 0 0 0 0 0 0
5 6 8 10 12 9 4 5 4 2 0 0 0 0 0 0 0 0 0 0 0 0 0 0 0 0 0 0 0 0 0 0 0 0 0 0 0 0 0 0 0 0 0 0 0 0 0
5 10 11 9 11 11 6 7 5 0 0 0 0 0 0 0 0 0 0 0 0 0 0 0 0 0 0 0 0 0 0 0 0 0 0 0 0 0 0 0 0 0 0 0 0 0 0
10 12 11 9 11 10 7 5 2 0 0 0 0 0 0 0 0 0 0 0 0 0 0 0 0 0 0 0 0 0 0 0 0 0 0 0 0 0 0 0 0 0 0 0 0 0 0
9 13 11 10 6 8 5 4 0 0 0 0 0 0 0 0 0 0 0 0 0 0 0 0 0 0 0 0 0 0 0 0 0 0 0 0 0 0 0 0 0 0 0 0 0 0 0
7 13 6 12 5 4 4 3 0 0 0 0 0 0 0 0 0 0 0 0 0 0 0 0 0 0 0 0 0 0 0 0 0 0 0 0 0 0 0 0 0 0 0 0 0 0 0
8 9 5 6 9 7 4 1 0 0 0 0 0 0 0 0 0 0 0 0 0 0 0 0 0 0 0 0 0 0 0 0 0 0 0 0 0 0 0 0 0 0 0 0 0 0 0
7 4 8 10 7 4 4 0 0 0 0 0 0 0 0 0 0 0 0 0 0 0 0 0 0 0 0 0 0 0 0 0 0 0 0 0 0 0 0 0 0 0 0 0 0 0 0
6 11 8 9 11 4 3 0 0 0 0 0 0 0 0 0 0 0 0 0 0 0 0 0 0 0 0 0 0 0 0 0 0 0 0 0 0 0 0 0 0 0 0 0 0 0 0
3 5 6 12 7 3 1 0 0 0 0 0 0 0 0 0 0 0 0 0 0 0 0 0 0 0 0 0 0 0 0 0 0 0 0 0 0 0 0 0 0 0 0 0 0 0 0
2 5 8 10 5 2 0 0 0 0 0 0 0 0 0 0 0 0 0 0 0 0 0 0 0 0 0 0 0 0 0 0 0 0 0 0 0 0 0 0 0 0 0 0 0 0 0
1 4 6 5 3 0 0 0 0 0 0 0 0 0 0 0 0 0 0 0 0 0 0 0 0 0 0 0 0 0 0 0 0 0 0 0 0 0 0 0 0 0 0 0 0 0 0
1 4 3 3 0 0 0 0 0 0 0 0 0 0 0 0 0 0 0 0 0 0 0 0 0 0 0 0 0 0 0 0 0 0 0 0 0 0 0 0 0 0 0 0 0 0 0
0 2 2 1 0 0 0 0 0 0 0 0 0 0 0 0 0 0 0 0 0 0 0 0 0 0 0 0 0 0 0 0 0 0 0 0 0 0 0 0 0 0 0 0 0 0 0
0 0 0 0 0 0 0 0 0 0 0 0 0 0 0 0 0 0 0 0 0 0 0 0 0 0 0 0 0 0 0 0 0 0 0 0 0 0 0 2 0 0 0 0 0 1 0
0 0 0 0 0 0 0 0 0 0 0 0 0 0 0 0 0 0 0 0 0 0 0 0 0 0 0 0 0 0 0 0 0 0 0 0 0 0 0 0 1 0 0 5 38 0 0
0 0 0 0 0 0 0 0 0 0 0 0 0 0 0 0 0 0 0 0 0 0 0 0 0 0 0 0 0 0 0 0 0 0 0 0 7 5 7 1 0 0 0 2 0 0 0
0 0 0 0 0 0 0 0 0 0 0 0 0 0 0 0 0 0 0 0 0 0 0 0 0 0 0 0 0 0 0 0 0 0 0 0 0 0 1 9 0 0 0 0 0 0 0

GFSGBSN_con_sbcape_069.txt.gz
CAPE
2 5 7 4 3 1 0 0 0 0 0 0 1 3 4 6 5 4 3 1 2 1 0 0 2 0 0 0 0 0 0 0 0 0 0 0 0 0 0 0 0 6 5 0 0 290 287
3 3 8 4 1 1 0 1 0 0 0 1 3 5 4 3 4 4 2 1 1 1 0 0 1 1 0 0 0 0 0 0 0 0 0 0 0 0 0 0 0 0 0 0 0 309 200
7 8 7 5 3 2 0 0 0 0 1 2 3 5 5 3 3 1 2 1 1 0 0 0 0 0 0 0 0 0 0 0 0 0 0 0 0 0 0 0 0 0 0 0 242 335 366
8 8 8 3 1 0 0 0 0 1 3 4 5 5 5 4 3 2 2 1 1 0 0 0 0 0 0 0 0 0 0 0 0 0 0 0 0 0 0 0 0 0 0 0 292 345 299
13 11 7 5 1 1 0 1 3 5 8 9 8 7 4 2 3 5 2 2 0 0 0 0 0 0 0 0 0 0 0 0 0 0 0 0 0 0 0 0 0 0 0 0 144 168 335
10 7 4 2 3 4 6 5 6 5 11 12 12 10 8 5 4 3 3 0 0 0 0 0 0 0 0 0 0 0 0 0 0 0 0 0 0 0 0 0 0 0 0 0 0 179 255
5 1 2 4 6 6 8 2 2 3 8 10 10 7 5 4 4 3 1 0 0 0 0 0 0 0 0 0 0 0 0 0 0 0 0 0 0 0 0 0 0 0 0 0 0 0 221
1 2 5 7 8 8 7 2 1 4 3 6 7 5 4 4 4 2 0 0 0 0 0 0 0 0 0 0 0 0 0 0 0 0 0 0 0 0 0 0 0 0 0 0 0 3 0
3 4 4 5 8 3 8 7 2 4 6 6 5 5 5 4 1 0 0 0 0 0 0 0 0 0 0 0 0 0 0 0 0 0 0 0 0 0 0 0 0 0 0 0 0 1 289
6 7 11 9 4 9 9 10 9 8 6 4 6 7 5 1 0 0 0 0 0 0 0 0 0 0 0 0 0 0 0 0 0 0 0 0 0 0 0 0 0 0 0 0 0 0 0
7 12 7 12 11 15 13 9 10 7 4 2 5 5 2 3 0 0 0 0 0 0 0 0 0 0 0 0 0 0 0 0 0 0 0 0 0 0 0 0 0 0 0 0 0 0 0
11 9 8 11 14 14 9 7 8 4 2 2 2 1 2 0 0 0 0 0 0 0 0 0 0 0 0 0 0 0 0 0 0 0 0 0 0 0 0 0 0 0 0 0 0 0 0
6 5 9 13 13 9 5 7 4 2 1 0 0 0 1 0 0 0 0 0 0 0 0 0 0 0 0 0 0 0 0 0 0 0 0 0 0 0 0 0 0 0 0 0 0 0 0
4 12 11 5 8 5 3 6 3 1 0 0 0 0 0 0 0 0 0 0 0 0 0 0 0 0 0 0 0 0 0 0 0 0 0 0 0 0 0 0 0 0 0 0 0 0 0
7 11 1 2 4 4 2 4 1 1 0 0 0 0 0 0 0 0 0 0 0 0 0 0 0 0 0 0 0 0 0 0 0 0 0 0 0 0 0 0 0 0 0 0 0 0 0
7 7 3 4 5 5 5 4 0 0 0 0 0 0 0 0 0 0 0 0 0 0 0 0 0 0 0 0 0 0 0 0 0 0 0 0 0 0 0 0 0 0 0 0 0 0 0
6 7 2 7 5 7 5 3 0 0 0 0 0 0 0 0 0 0 0 0 0 0 0 0 0 0 0 0 0 0 0 0 0 0 0 0 0 0 0 0 0 0 0 0 0 0 0
1 7 9 9 5 6 4 1 0 0 0 0 0 0 0 0 0 0 0 0 0 0 0 0 0 0 0 0 0 0 0 0 0 0 0 0 0 0 0 0 0 0 0 0 0 0 0
4 8 12 10 6 6 3 0 0 0 0 0 0 0 0 0 0 0 0 0 0 0 0 0 0 0 0 0 0 0 0 0 0 0 0 0 0 0 0 0 0 0 0 0 0 0 0
2 3 7 9 5 3 1 0 0 0 0 0 0 0 0 0 0 0 0 0 0 0 0 0 0 0 0 0 0 0 0 0 0 0 0 0 0 0 0 0 0 0 0 0 0 0 0
0 2 2 6 3 2 0 0 0 0 0 0 0 0 0 0 0 0 0 0 0 0 0 0 0 0 0 0 0 0 0 0 0 0 0 0 0 0 0 0 0 0 0 0 0 0 0
0 3 6 3 0 0 0 0 0 0 0 0 0 0 0 0 0 0 0 0 0 0 0 0 0 0 0 0 0 0 0 0 0 0 0 0 0 0 0 0 0 0 0 0 0 0 0
0 3 5 2 0 0 0 0 0 0 0 0 0 0 0 0 0 0 0 0 0 0 0 0 0 0 0 0 0 0 0 0 0 0 0 0 0 0 0 0 0 0 0 0 0 0 0
0 1 2 1 0 0 0 0 0 0 0 0 0 0 0 0 0 0 0 0 0 0 0 0 0 0 0 0 0 0 0 0 0 0 0 0 0 0 0 0 0 0 0 0 0 0 0
0 0 1 0 0 0 0 0 0 0 0 0 0 0 0 0 0 0 0 0 0 0 0 0 0 0 0 0 0 0 0 0 0 0 0 0 0 0 0 0 0 0 0 0 0 0 0
0 0 0 0 0 0 0 0 0 0 0 0 0 0 0 0 0 0 0 0 0 0 0 0 0 0 0 0 0 0 0 0 0 0 0 0 0 0 0 0 0 0 0 0 0 0 0
0 0 0 0 0 0 0 0 0 0 0 0 0 0 0 0 0 0 0 0 0 0 0 0 0 0 0 0 0 0 0 0 0 0 0 0 0 0 0 0 0 0 0 0 1 0 0
0 0 0 0 0 0 0 0 0 0 0 0 0 0 0 0 0 0 0 0 0 0 0 0 0 0 0 0 0 0 0 0 0 0 0 0 0 0 0 0 0 0 0 0 0 0 0
0 0 0 0 0 0 0 0 0 0 0 0 0 0 0 0 0 0 0 0 0 0 0 0 0 0 0 0 0 0 0 0 0 0 0 0 0 0 0 0 0 0 0 0 0 0 0

GFSGBSN_con_sbcape_072.txt.gz
CAPE
6 8 5 5 3 2 1 0 0 0 0 2 5 6 5 6 5 4 4 2 3 2 1 2 1 2 0 0 0 0 0 0 0 0 0 0 0 0 0 0 0 17 1 0 0 288 336
13 14 7 4 6 3 1 1 1 1 3 6 6 6 5 5 5 4 2 2 2 2 2 0 1 3 0 0 0 0 0 0 0 0 0 0 0 0 0 0 0 0 0 0 0 10 159
12 13 7 8 4 2 1 1 3 5 6 5 2 6 5 4 4 4 3 2 2 2 1 0 5 0 0 0 0 0 0 0 0 0 0 0 0 0 0 0 0 0 0 0 280 205 113
14 9 4 3 2 3 5 6 6 5 1 4 2 4 4 3 3 3 4 4 3 1 1 0 1 0 0 0 0 0 0 0 0 0 0 0 0 0 0 0 0 0 0 0 249 287 226
10 7 4 5 6 9 5 1 1 1 1 7 6 6 3 3 5 7 6 3 0 0 0 1 0 0 0 0 0 0 0 0 0 0 0 0 0 0 0 0 0 0 0 0 78 273 302
3 3 5 7 5 2 1 1 2 2 6 7 8 8 6 8 10 3 1 0 1 0 0 0 0 0 0 0 0 0 0 0 0 0 0 0 0 0 0 0 0 0 0 0 0 207 312
3 5 6 1 1 2 1 3 2 2 9 10 8 7 8 5 7 0 0 0 0 0 0 0 0 0 0 0 0 0 0 0 0 0 0 0 0 0 0 0 0 0 0 0 0 0 213
6 6 2 5 4 1 3 9 9 6 6 7 8 9 9 0 2 1 0 0 0 0 0 0 0 0 0 0 0 0 0 0 0 0 0 0 0 0 0 0 0 0 0 0 0 0 0
6 7 1 9 10 3 15 17 11 10 8 6 8 10 0 0 1 0 0 0 0 0 0 0 0 0 0 0 0 0 0 0 0 0 0 0 0 0 0 0 0 0 0 0 0 0 245
6 11 1 5 3 9 16 12 9 6 5 5 10 6 3 0 0 0 0 0 0 0 0 0 0 0 0 0 0 0 0 0 0 0 0 0 0 0 0 0 0 0 0 0 0 0 0
8 11 2 5 8 10 6 6 4 3 3 5 9 6 1 0 0 0 0 0 0 0 0 0 0 0 0 0 0 0 0 0 0 0 0 0 0 0 0 0 0 0 0 0 0 0 0
7 11 2 3 12 7 5 1 1 1 4 6 2 3 1 0 0 0 0 0 0 0 0 0 0 0 0 0 0 0 0 0 0 0 0 0 0 0 0 0 0 0 0 0 0 0 0
7 11 3 9 10 8 1 0 1 2 4 1 0 0 0 0 0 0 0 0 0 0 0 0 0 0 0 0 0 0 0 0 0 0 0 0 0 0 0 0 0 0 0 0 0 0 0
8 5 6 10 10 6 0 2 1 2 3 1 0 0 0 0 0 0 0 0 0 0 0 0 0 0 0 0 0 0 0 0 0 0 0 0 0 0 0 0 0 0 0 0 0 0 0
8 3 3 11 7 0 5 1 1 1 1 0 0 0 0 0 0 0 0 0 0 0 0 0 0 0 0 0 0 0 0 0 0 0 0 0 0 0 0 0 0 0 0 0 0 0 0
3 4 4 4 8 3 3 1 0 1 1 0 0 0 0 0 0 0 0 0 0 0 0 0 0 0 0 0 0 0 0 0 0 0 0 0 0 0 0 0 0 0 0 0 0 0 0
1 6 10 8 9 3 2 1 0 1 0 0 0 0 0 0 0 0 0 0 0 0 0 0 0 0 0 0 0 0 0 0 0 0 0 0 0 0 0 0 0 0 0 0 0 0 0
0 6 3 6 6 2 1 1 0 0 0 0 0 0 0 0 0 0 0 0 0 0 0 0 0 0 0 0 0 0 0 0 0 0 0 0 0 0 0 0 0 0 0 0 0 0 0
0 5 4 3 6 1 0 0 0 0 0 0 0 0 0 0 0 0 0 0 0 0 0 0 0 0 0 0 0 0 0 0 0 0 0 0 0 0 0 0 0 0 0 0 0 0 0
0 2 3 5 5 0 0 0 0 0 0 0 0 0 0 0 0 0 0 0 0 0 0 0 0 0 0 0 0 0 0 0 0 0 0 0 0 0 0 0 0 0 0 0 0 0 0
0 2 1 4 4 0 0 0 0 0 0 0 0 0 0 0 0 0 0 0 0 0 0 0 0 0 0 0 0 0 0 0 0 0 0 0 0 0 0 0 0 0 0 0 0 0 0
0 1 0 2 1 0 0 0 0 0 0 0 0 0 0 0 0 0 0 0 0 0 0 0 0 0 0 0 0 0 0 0 0 0 0 0 0 0 0 0 0 0 0 0 0 0 0
0 0 4 1 0 0 0 0 0 0 0 0 0 0 0 0 0 0 0 0 0 0 0 0 0 0 0 0 0 0 0 0 0 0 0 0 0 0 0 0 0 0 0 0 0 0 0
0 0 2 1 0 0 0 0 0 0 0 0 0 0 0 0 0 0 0 0 0 0 0 0 0 0 0 0 0 0 0 0 0 0 0 0 0 0 0 0 0 0 0 0 0 0 0
0 0 0 1 0 0 0 0 0 0 0 0 0 0 0 0 0 0 0 0 0 0 0 0 0 0 0 0 0 0 0 0 0 0 0 0 0 0 0 0 0 0 0 0 0 0 0
0 0 0 0 0 0 0 0 0 0 0 0 0 0 0 0 0 0 0 0 0 0 0 0 0 0 0 0 0 0 0 0 0 0 0 0 0 0 0 0 0 0 0 0 0 0 0
0 0 0 0 0 0 0 0 0 0 0 0 0 0 0 0 0 0 0 0 0 0 0 0 0 0 0 0 0 0 0 0 0 0 0 0 0 0 0 0 0 0 0 0 0 0 0
0 0 0 0 0 0 0 0 0 0 0 0 0 0 0 0 0 0 0 0 0 0 0 0 0 0 0 0 0 0 0 0 0 0 0 0 0 0 0 0 0 0 0 0 0 0 0
0 0 0 0 0 0 0 0 0 0 0 0 0 0 0 0 0 0 0 0 0 0 0 0 0 0 0 0 0 0 0 0 0 0 0 0 0 0 0 0 0 0 0 0 0 0 0

GFSGBSN_con_sbcape_075.txt.gz
CAPE
16 16 8 5 5 4 3 2 1 3 4 5 4 4 4 5 5 5 5 3 3 2 2 2 1 3 0 0 0 0 0 5 0 0 0 0 0 0 21 35 5 22 65 0 2 307 309
15 11 6 5 5 6 6 6 6 2 1 1 1 1 2 3 5 4 3 4 5 3 1 2 1 0 0 0 0 0 0 0 0 0 0 0 0 0 0 0 0 0 0 0 0 3 449
10 4 3 6 6 7 5 3 2 1 1 1 1 4 5 5 5 4 5 4 6 5 2 1 1 0 0 0 0 0 0 0 0 0 0 0 0 0 0 0 0 0 0 27 233 86 259
2 5 7 5 2 2 3 2 2 3 4 4 7 5 5 5 4 2 1 3 2 3 3 0 2 0 0 0 0 0 0 0 0 0 0 0 0 0 0 0 0 0 0 0 429 352 294
5 5 2 1 2 1 2 3 3 5 5 6 6 4 4 4 1 1 1 0 0 0 1 3 0 0 0 0 0 0 0 0 0 0 0 0 0 0 0 0 0 0 0 0 309 518 494
6 5 1 1 1 2 2 2 7 3 5 7 6 6 6 1 1 2 0 0 1 1 2 0 0 0 0 0 0 0 0 0 0 0 0 0 0 0 0 0 0 0 0 0 30 624 553
4 1 1 2 2 2 3 2 5 3 2 6 5 8 1 1 1 1 0 0 0 0 0 0 0 0 0 0 0 0 0 0 0 0 0 0 0 0 0 0 0 0 0 0 0 115 150
5 2 1 3 3 4 5 2 11 7 7 8 7 1 1 2 1 1 0 0 0 0 0 0 0 0 0 0 0 0 0 0 0 0 0 0 0 0 0 0 0 0 0 0 0 0 0
7 6 2 4 12 10 9 6 7 7 5 6 9 3 1 1 2 0 0 0 0 0 0 0 0 0 0 0 0 0 0 0 0 0 0 0 0 0 0 0 0 0 0 0 0 0 451
7 12 2 12 10 5 8 4 4 4 4 9 1 2 1 2 0 0 0 0 0 0 0 0 0 0 0 0 0 0 0 0 0 0 0 0 0 0 0 0 0 0 0 0 0 0 0
7 10 4 12 11 4 2 0 2 4 5 2 1 0 1 0 0 0 0 0 0 0 0 0 0 0 0 0 0 0 0 0 0 0 0 0 0 0 0 0 0 0 0 0 0 0 0
7 10 10 13 11 9 1 1 4 3 3 4 2 1 1 0 0 0 0 0 0 0 0 0 0 0 0 0 0 0 0 0 0 0 0 0 0 0 0 0 0 0 0 0 0 0 0
4 6 9 12 10 1 2 2 2 1 1 1 0 1 0 0 0 0 0 0 0 0 0 0 0 0 0 0 0 0 0 0 0 0 0 0 0 0 0 0 0 0 0 0 0 0 0
3 8 8 9 5 3 2 2 1 1 0 0 0 0 0 0 0 0 0 0 2 0 0 0 0 0 0 0 0 0 0 0 0 0 0 0 0 0 0 0 0 0 0 0 0 0 0
3 6 9 10 3 3 2 1 0 1 0 0 0 0 0 0 0 0 0 1 0 0 0 0 0 0 0 0 0 0 0 0 0 0 0 0 0 0 0 0 0 0 0 0 0 0 0
2 3 4 2 2 1 1 0 0 1 1 0 0 0 0 0 0 0 0 0 0 0 0 0 0 0 0 0 0 0 0 0 0 0 0 0 0 0 0 0 0 0 0 0 0 0 0
1 1 5 4 2 1 0 0 0 0 0 0 0 0 0 0 0 0 0 0 0 0 0 0 0 0 0 0 0 0 0 0 0 0 0 0 0 0 0 0 0 0 0 0 0 0 0
0 1 5 2 2 0 0 0 0 0 0 0 0 0 0 0 0 0 0 0 0 0 0 0 0 0 0 0 0 0 0 0 0 0 0 0 0 0 0 0 0 0 0 0 0 0 0
0 0 5 4 3 0 0 0 0 0 0 0 0 0 0 0 0 0 0 0 0 0 0 0 0 0 0 0 0 0 0 0 0 0 0 0 0 0 0 0 0 0 0 0 0 0 0
0 0 3 3 3 0 0 0 0 0 0 0 0 0 0 0 0 0 0 0 0 0 0 0 0 0 0 0 0 0 0 0 0 0 0 0 0 0 0 0 0 0 0 0 0 0 0
0 0 1 3 2 0 0 0 0 0 0 0 0 0 0 0 0 0 0 0 0 0 0 0 0 0 0 0 0 0 0 0 0 0 0 0 0 0 0 0 0 0 0 0 0 0 0
0 0 2 1 0 0 0 0 0 0 0 0 0 0 0 0 0 0 0 0 0 0 0 0 0 0 0 0 0 0 0 0 0 0 0 0 0 0 0 0 0 0 0 0 0 0 0
0 0 1 0 0 0 0 0 0 0 0 0 0 0 0 0 0 0 0 0 0 0 0 0 0 0 0 0 0 0 0 0 0 0 0 0 0 0 0 0 0 0 0 0 0 0 0
0 0 0 0 0 0 0 0 0 0 0 0 0 0 0 0 0 0 0 0 0 0 0 0 0 0 0 0 0 0 0 0 0 0 0 0 0 0 0 0 0 0 0 0 0 0 0
0 0 0 0 0 0 0 0 0 0 0 0 0 0 0 0 0 0 0 0 0 0 0 0 0 0 0 0 0 0 0 0 0 0 0 0 0 0 0 0 0 0 0 0 0 0 0
0 0 0 0 0 0 0 0 0 0 0 0 0 0 0 0 0 0 0 0 0 0 0 0 0 0 0 0 0 0 0 0 0 0 0 0 0 0 0 0 0 0 0 0 0 0 0
0 0 0 0 0 0 0 0 0 0 0 0 0 0 0 0 0 0 0 0 0 0 0 0 0 0 0 0 0 0 1 0 0 0 0 0 0 0 0 0 0 0 0 0 0 0 2
0 0 0 0 0 0 0 0 0 0 0 0 0 0 0 0 0 0 0 0 0 0 0 0 0 0 0 0 0 0 0 2 0 0 0 0 0 1 0 0 0 0 0 0 0 0 0
0 0 0 0 0 0 0 0 0 0 0 0 0 0 0 0 0 0 0 0 0 0 0 0 0 0 0 0 0 1 3 5 0 0 0 0 0 0 0 0 0 0 0 0 0 0 0

GFSGBSN_con_sbcape_078.txt.gz
CAPE
5 1 3 5 7 7 4 3 1 2 2 2 1 2 4 3 2 3 4 3 3 2 2 3 1 0 0 0 0 0 0 0 0 0 0 0 0 0 0 29 25 327 209 2 0 270 273
1 4 5 5 5 1 1 3 3 2 2 3 3 3 4 4 3 3 4 4 2 3 2 1 1 0 0 0 0 0 0 0 0 0 0 0 0 0 0 55 97 132 93 0 0 42 261
3 4 5 3 3 4 4 4 3 3 4 4 3 6 4 4 4 2 1 2 2 3 3 0 1 0 0 0 0 0 0 0 0 0 0 0 0 0 0 1 27 21 0 5 25 0 143
6 2 2 4 5 5 3 3 5 4 4 2 4 2 2 2 1 2 1 1 0 2 1 0 0 0 0 0 0 0 0 0 0 0 0 0 0 0 0 0 20 27 0 1 196 120 239
4 2 4 4 4 5 7 7 6 4 6 6 2 6 2 3 1 2 1 0 1 1 1 0 0 0 0 0 0 0 0 0 0 0 0 0 0 0 0 0 6 30 177 4 339 550 712
4 2 2 4 5 6 7 7 9 5 3 3 12 8 3 2 1 1 0 0 0 0 0 0 0 0 0 0 0 0 0 0 0 0 0 0 0 0 0 0 0 169 109 0 287 795 802
2 4 2 4 8 9 8 10 7 5 4 4 10 2 6 4 2 3 0 0 0 0 0 0 0 0 0 0 0 0 0 0 0 0 0 0 0 0 0 0 0 87 63 44 61 659 550
4 5 2 4 8 8 8 7 4 2 2 6 9 5 3 2 1 0 0 0 0 0 0 0 0 0 0 0 0 0 0 0 0 0 0 0 0 0 0 0 0 0 0 2 0 0 0
3 6 4 11 12 12 11 5 0 0 6 9 8 5 2 1 0 0 0 0 0 0 0 0 0 0 0 0 0 0 0 0 0 0 0 0 0 0 0 0 0 0 44 4 2 0 43
6 8 9 11 13 10 3 1 1 4 8 8 7 1 1 0 0 0 0 0 0 0 0 0 0 0 0 0 0 0 0 0 0 0 0 0 0 0 0 0 0 0 0 0 0 0 79
6 6 8 9 10 4 2 0 2 6 5 6 2 0 0 0 0 0 0 0 0 0 3 0 0 0 0 0 0 0 0 0 0 0 0 0 0 0 0 0 0 4 0 0 0 0 0
5 5 7 4 7 3 1 2 2 5 3 2 0 1 0 0 0 0 0 0 0 0 49 0 0 0 0 0 0 0 0 0 2 0 0 1 0 1 0 0 0 0 0 0 0 0 0
5 3 5 6 4 1 0 0 2 3 0 0 0 0 0 0 0 0 0 0 6 42 0 0 0 0 0 0 0 0 0 0 0 0 0 1 0 2 1 7 0 0 0 1 1 0 0
5 4 5 5 1 0 0 1 1 2 1 0 0 0 0 0 0 0 0 22 37 9 2 0 0 0 0 13 6 3 1 2 0 0 5 0 0 0 0 0 0 0 0 0 3 0 0
4 2 3 4 0 0 0 0 0 0 0 0 0 0 0 0 0 0 26 90 12 0 0 0 0 1 6 3 6 22 6 0 0 0 41 40 0 0 0 0 0 0 0 0 8 4 11
3 0 2 4 0 0 0 0 0 0 1 0 0 0 0 0 0 0 120 12 12 0 0 0 2 1 24 11 43 33 1 0 0 0 0 4 0 0 0 0 0 0 0 0 0 1 5
3 0 0 4 0 0 0 0 0 0 0 0 0 0 0 0 0 57 127 18 0 0 0 3 0 11 1 14 27 2 0 0 0 0 0 0 0 0 0 0 0 0 0 0 0 0 2
1 0 0 2 0 0 0 0 0 0 0 0 0 0 0 0 116 8 28 0 0 0 0 0 0 0 2 0 7 4 0 0 0 0 0 0 0 0 0 0 0 0 0 0 1 0 0
1 0 0 3 0 0 0 0 0 0 0 0 0 0 0 0 67 7 0 0 0 0 0 0 0 0 0 0 2 0 0 0 0 0 0 0 0 0 0 0 0 0 0 0 0 0 6
1 0 0 3 1 0 0 0 0 0 0 0 0 0 0 0 0 0 0 0 0 0 0 0 0 0 5 0 2 0 0 0 0 0 0 0 0 0 6 0 0 0 0 0 0 2 22
0 0 0 2 1 0 0 0 0 0 0 0 0 0 0 0 0 0 0 0 0 0 0 0 0 0 2 3 0 0 0 0 0 0 0 0 0 0 0 0 0 0 0 0 0 0 1
0 0 0 1 0 0 0 0 0 0 0 0 0 0 0 0 0 0 0 0 0 0 0 0 0 0 0 1 5 0 0 0 0 0 0 0 0 0 0 0 0 0 0 0 0 0 0
0 0 0 0 0 0 0 0 0 0 0 0 0 0 0 0 0 0 0 0 0 0 0 0 0 0 0 0 0 0 0 0 0 0 0 0 0 0 0 0 0 0 0 0 0 0 0
0 0 0 0 0 0 0 0 0 0 0 0 0 0 0 0 0 0 0 0 0 0 0 0 0 0 0 0 0 0 0 0 0 0 0 0 0 0 0 0 0 0 0 0 0 0 0
0 0 0 0 0 0 0 0 0 0 0 0 0 0 0 0 0 0 0 0 0 0 0 0 0 0 0 0 0 0 0 0 0 0 0 0 0 0 0 0 0 0 0 0 0 0 0
0 0 0 0 0 0 0 0 0 0 0 0 0 0 0 0 0 0 0 0 0 0 0 0 0 0 0 0 0 0 0 0 0 0 0 0 0 0 0 0 0 0 0 0 0 0 0
0 0 0 0 0 0 0 0 0 0 0 0 0 0 0 0 0 0 0 0 0 0 0 0 0 0 0 0 7 6 5 0 0 0 0 0 0 0 0 0 0 0 0 0 0 0 0
0 0 0 0 0 0 0 0 0 0 0 0 0 0 0 0 0 0 0 0 0 0 0 0 0 0 0 0 1 1 10 5 0 1 2 4 9 7 5 4 0 0 0 0 0 0 0
0 0 0 0 0 0 0 0 0 0 0 0 0 0 0 0 0 0 0 0 0 0 0 0 0 0 0 0 0 1 11 7 4 11 0 5 4 12 0 18 0 0 2 0 0 0 0

GFSGBSN_con_sbcape_084.txt.gz
CAPE
4 4 3 1 1 4 4 5 4 6 3 4 1 2 3 5 4 3 3 3 2 3 3 1 0 0 0 0 0 0 0 0 0 0 0 0 0 8 158 333 586 701 327 573 593 364 148
2 3 1 1 1 1 6 5 4 4 4 2 2 3 3 3 3 3 2 2 2 1 3 4 1 0 0 0 0 0 0 0 0 0 0 0 0 0 29 152 472 401 347 74 160 556 395
2 2 2 2 2 5 7 9 6 7 4 6 2 3 6 7 4 4 3 2 2 1 4 3 1 0 0 0 0 0 0 0 0 0 0 0 0 0 0 79 413 343 514 42 107 783 713
3 4 5 3 9 14 13 8 10 7 6 1 4 4 6 5 7 2 6 3 0 1 2 2 1 0 0 0 0 0 0 0 0 0 0 0 0 0 0 5 502 528 330 79 85 587 583
4 5 8 4 8 13 12 9 7 4 0 5 6 4 7 4 5 5 1 0 0 3 0 0 0 0 0 0 0 0 0 0 0 0 0 0 0 0 0 0 119 354 293 163 124 405 608
2 4 7 4 8 7 9 7 3 3 5 7 7 5 5 5 6 2 0 0 0 0 0 0 0 0 0 0 0 0 0 0 0 0 0 0 0 0 0 0 17 58 79 56 163 468 606
4 2 3 5 11 6 5 5 1 5 8 6 8 6 4 5 2 0 0 0 0 0 0 0 0 0 0 0 0 0 0 0 0 0 0 0 0 0 0 0 5 61 90 143 62 1 641
3 1 2 4 9 7 4 2 3 4 5 9 8 5 2 3 0 0 0 0 0 0 0 0 0 0 0 0 0 0 0 0 0 0 0 0 0 0 0 0 0 6 9 107 32 63 258
4 4 5 7 7 7 2 1 2 4 5 4 1 0 1 0 0 0 0 0 0 0 0 0 0 0 0 0 0 0 0 0 0 0 0 0 0 0 0 0 0 0 16 45 106 1 0
2 1 2 5 6 4 1 0 1 3 3 3 1 2 1 0 0 0 0 0 0 0 0 0 0 0 0 0 0 0 0 0 0 0 0 0 0 0 0 0 0 0 6 6 219 175 208
1 2 2 2 2 2 0 0 0 2 3 1 0 0 0 1 0 0 0 0 0 0 0 0 0 0 0 0 0 0 0 0 0 0 0 0 0 0 0 0 0 0 29 1 14 14 8
2 2 3 1 2 2 0 0 0 0 0 2 1 0 0 0 0 0 0 0 0 0 17 6 0 0 0 0 0 0 0 0 0 0 0 0 0 0 0 0 0 0 16 54 46 5 5
2 2 2 0 0 0 0 0 0 0 0 0 0 0 0 0 0 0 0 0 7 17 69 27 5 0 0 0 0 13 1 0 0 0 0 0 0 0 0 0 0 0 1 42 50 27 9
2 1 1 0 0 0 0 0 0 0 0 0 0 0 0 0 0 0 0 10 63 65 79 65 5 20 0 13 0 18 51 3 0 2 0 0 0 0 1 0 0 0 0 56 36 17 15
2 1 1 0 0 0 0 0 0 0 0 0 0 0 0 0 2 0 1 174 54 44 23 14 21 22 51 38 44 47 69 16 0 4 19 5 0 0 2 0 14 11 0 39 62 35 27
2 2 1 0 0 0 0 0 0 0 0 0 0 0 7 13 0 2 95 0 0 109 0 4 35 18 20 19 6 74 109 64 41 17 32 30 8 10 24 52 63 17 0 8 14 45 87
2 2 0 0 0 0 0 0 0 0 0 0 0 0 28 20 0 30 5 1 123 1 0 25 3 67 33 7 85 156 0 58 14 5 10 34 61 71 44 0 5 1 0 5 3 22 41
3 2 0 0 0 0 0 0 0 0 0 0 0 38 12 0 0 180 248 71 0 0 0 2 0 0 47 33 14 4 2 0 0 0 0 30 136 32 3 0 0 0 6 1 19 17 25
3 2 0 0 0 0 0 0 0 0 0 0 6 0 0 0 107 82 27 9 0 2 15 15 0 0 0 61 40 6 1 1 0 0 0 7 53 18 26 0 0 0 0 0 17 27 145
3 4 1 0 0 0 0 0 0 0 0 0 0 4 21 0 19 97 164 179 91 0 0 0 0 0 0 1 6 0 0 0 0 0 0 0 1 44 1 1 0 0 0 0 0 2 49
3 4 0 0 0 0 0 0 0 0 0 0 3 0 0 9 1 3 6 9 9 22 1 0 26 0 0 0 12 2 0 0 0 0 0 0 1 11 0 0 3 0 0 0 0 0 444
3 2 0 0 0 0 0 0 0 0 0 0 0 5 0 0 0 0 0 0 0 0 0 6 14 53 18 0 6 41 7 1 3 0 0 0 2 20 0 0 0 0 0 0 0 0 117
4 3 0 0 0 0 0 0 0 0 0 0 0 0 2 0 7 27 0 0 0 0 0 0 2 84 80 0 2 16 15 1 2 2 9 6 1 0 0 0 0 0 0 0 0 0 485
3 2 0 0 0 0 0 0 0 0 0 0 0 73 60 1 0 0 0 0 0 0 0 0 0 0 0 0 0 1 11 17 24 1 0 33 15 0 1 1 0 0 0 0 0 0 339
4 1 0 0 0 0 0 0 0 0 0 0 0 107 118 7 0 0 0 0 0 0 0 0 0 0 0 0 10 24 35 19 21 21 15 8 19 17 0 2 5 0 0 0 0 1 135
4 0 0 0 0 0 0 0 0 0 0 0 0 1 249 112 0 0 0 0 14 0 0 0 0 0 0 0 4 12 44 34 33 0 0 0 31 69 15 3 0 22 0 0 0 28 8
0 0 0 0 0 0 0 0 0 0 0 0 0 0 167 284 0 0 27 6 0 2 0 0 0 0 0 12 7 106 250 83 161 31 8 0 0 4 30 28 50 1 0 0 0 73 9
0 0 0 0 0 0 0 0 0 0 0 0 0 0 0 139 0 0 0 0 0 0 38 0 0 0 0 7 26 158 124 239 64 107 51 13 2 2 4 48 77 0 0 0 43 5 0
0 0 0 0 0 0 0 0 0 0 0 0 0 0 0 40 69 0 0 0 0 0 0 0 1 0 0 6 1 15 27 0 0 22 0 108 41 250 110 178 13 6 8 4 0 8 1

GFSGBSN_con_sbcape_087.txt.gz
CAPE
3 3 4 1 1 2 2 1 1 1 1 1 1 3 2 2 3 5 4 3 2 2 3 3 1 1 0 0 0 0 0 0 0 0 0 0 0 0 1 42 232 5 104 454 337 160 137
4 5 5 2 1 2 2 1 2 2 5 2 2 1 2 5 4 3 1 1 2 3 2 1 5 0 0 0 0 0 0 0 0 0 0 0 0 0 6 19 494 419 261 570 237 104 105
6 6 6 1 7 4 5 8 5 7 5 3 6 3 1 1 1 1 1 3 1 1 1 1 2 0 0 0 0 0 0 0 0 0 0 0 0 0 0 4 216 330 326 133 481 230 199
5 6 5 5 2 2 7 10 7 4 1 1 4 2 1 3 6 6 6 3 1 1 1 3 2 0 0 0 0 0 0 0 0 0 0 0 0 0 0 0 63 206 204 219 307 406 363
4 4 6 6 9 6 8 3 2 4 4 7 3 1 1 12 8 7 3 0 0 0 3 0 0 0 0 0 0 0 0 0 0 0 0 0 0 0 0 0 0 66 144 191 71 654 518
3 5 5 7 6 10 8 6 3 4 6 2 1 2 5 8 2 1 0 0 0 0 0 0 0 0 0 0 0 0 0 0 0 0 0 0 0 0 0 0 0 2 116 84 44 598 388
6 0 4 3 6 6 7 6 5 5 4 3 6 4 1 3 3 0 0 0 0 0 0 0 0 0 0 0 0 0 0 0 0 0 0 0 0 0 0 0 0 0 54 122 100 116 494
6 5 4 3 5 3 3 4 2 3 4 3 4 3 2 2 2 0 0 0 0 0 0 0 0 0 0 0 0 0 0 0 0 0 0 0 0 0 0 0 0 0 1 65 121 151 78
4 3 0 1 3 3 2 1 1 2 3 1 1 1 0 1 0 0 0 0 0 0 0 0 0 0 0 0 0 0 0 0 0 0 0 0 0 0 0 0 0 0 0 0 112 163 21
5 2 0 0 0 1 1 0 0 1 1 3 2 0 0 0 0 0 0 0 0 0 0 0 0 0 0 0 0 0 0 0 0 0 0 0 0 0 0 0 0 0 0 0 25 28 10
4 3 0 1 0 0 0 0 0 0 0 1 2 2 0 3 0 0 0 0 0 0 0 0 0 0 0 0 0 0 0 0 0 0 0 0 0 0 0 0 0 0 1 91 106 57 178
2 2 1 2 0 0 0 0 0 0 0 0 0 0 0 0 0 0 0 0 0 0 0 0 0 0 0 0 0 0 0 0 0 0 0 0 0 0 0 0 0 0 0 58 40 49 39
3 2 1 2 0 0 0 0 0 0 0 0 0 0 0 0 0 0 0 0 0 0 6 39 36 1 0 0 0 0 1 0 0 0 0 0 0 0 0 0 0 0 0 0 1 0 0
4 2 1 0 0 0 0 0 0 0 0 0 0 0 0 0 0 0 0 0 17 33 3 9 42 22 0 0 0 0 0 0 0 0 0 0 0 0 0 0 0 0 0 0 3 6 1
3 3 2 0 0 0 0 0 0 0 0 0 0 0 0 0 0 0 0 58 64 5 17 2 0 0 3 2 1 4 9 6 0 0 0 0 0 0 0 0 0 0 0 0 0 1 10
3 3 3 0 0 0 0 0 0 0 0 0 0 0 0 0 0 6 3 0 20 43 19 0 0 34 19 4 10 36 48 16 16 13 0 5 0 0 0 1 0 0 0 0 0 0 23
4 2 3 0 0 0 0 0 0 0 0 0 0 0 0 0 48 31 0 5 2 21 9 0 1 20 25 58 13 13 42 18 0 16 0 1 0 0 2 0 0 0 0 0 0 0 0
4 3 3 0 0 0 0 0 0 0 0 0 0 4 34 15 20 52 7 48 20 17 0 0 0 41 75 104 121 91 9 0 0 0 0 0 0 0 7 11 6 2 0 0 0 0 13
4 2 4 0 0 0 0 0 0 0 0 0 0 36 8 0 48 110 93 33 113 25 9 12 3 0 22 78 8 1 7 0 0 0 0 0 0 10 0 0 0 0 0 0 0 0 0
5 4 3 0 0 0 0 0 0 0 0 0 0 17 1 6 86 61 31 129 95 0 0 3 1 0 0 5 4 0 2 0 0 0 0 0 0 1 0 0 0 0 0 0 0 0 190
5 3 4 0 0 0 0 0 0 0 0 0 12 0 0 0 0 0 0 11 2 4 0 3 64 6 0 2 0 3 0 0 0 0 0 0 0 0 0 0 0 0 0 0 0 370 454
3 2 5 0 0 0 0 0 0 0 0 19 0 0 0 0 0 7 0 0 0 0 0 0 3 8 1 0 0 18 2 0 3 3 0 0 0 0 0 0 0 0 0 0 0 294 365
2 3 4 0 0 0 0 0 0 0 0 13 3 0 127 86 2 0 0 0 0 0 0 0 0 51 0 0 0 0 0 0 0 0 0 0 0 0 0 0 0 0 0 0 100 569 450
2 3 3 0 0 0 0 0 0 0 0 0 4 0 158 23 0 0 0 0 0 0 0 0 0 0 0 0 0 0 0 0 0 0 0 5 13 0 0 0 0 0 0 0 0 699 217
4 4 0 0 0 0 0 0 0 0 0 0 0 2 240 205 0 0 0 0 0 0 0 0 0 0 0 0 0 9 0 0 0 0 0 0 31 1 0 0 0 0 0 0 274 669 371
4 0 0 0 0 0 0 0 0 0 0 0 1 0 110 449 0 0 0 0 1 0 0 0 0 0 0 0 3 25 30 104 31 0 0 0 0 2 16 0 0 0 0 0 0 445 331
1 0 0 0 0 0 0 0 0 0 0 0 0 17 67 273 0 0 0 0 0 5 1 0 0 0 0 1 4 130 101 201 39 25 0 0 0 0 0 0 2 0 0 0 3 26 156
2 0 0 0 0 0 0 0 0 0 0 0 0 31 3 22 0 0 0 0 0 0 1 0 0 0 0 35 170 130 190 211 31 13 23 10 0 0 1 10 4 0 0 6 70 0 0
1 0 0 0 0 0 0 0 0 0 0 0 31 1 20 39 97 0 0 0 0 0 0 0 0 0 0 126 59 96 153 0 1 76 3 29 7 104 131 9 0 0 0 0 0 0 0

GFSGBSN_con_sbcape_090.txt.gz
CAPE
3 4 4 1 2 2 4 5 5 1 2 2 2 4 2 0 1 1 1 2 1 4 3 4 0 1 0 0 0 0 34 0 0 0 0 0 0 0 0 14 416 498 243 413 262 161 206
3 4 4 4 3 2 1 2 6 3 2 4 6 3 1 1 0 1 0 0 0 1 4 0 0 1 0 0 0 0 0 0 0 0 0 0 0 0 0 1 176 151 488 531 211 69 32
4 4 4 5 7 10 3 6 3 4 3 6 4 3 3 1 1 1 1 1 3 3 3 2 0 0 0 0 0 0 0 0 0 0 0 0 0 0 0 0 281 164 193 293 214 173 116
3 2 4 3 7 7 4 3 4 2 5 7 1 1 2 1 2 2 1 8 3 1 1 1 1 0 0 0 0 0 0 0 0 0 0 0 0 0 0 0 0 211 336 258 189 176 218
6 2 4 4 6 6 5 2 2 5 7 1 3 1 2 3 4 1 1 1 1 0 1 3 0 0 0 0 0 0 0 0 0 0 0 0 0 0 0 0 0 0 149 136 268 378 283
9 6 0 7 4 5 4 4 3 4 6 2 2 2 2 0 0 1 0 0 0 0 0 0 0 0 0 0 0 0 0 0 0 0 0 0 0 0 0 0 0 0 22 101 139 409 318
7 6 1 4 2 3 1 1 2 1 4 1 2 0 1 0 0 0 0 0 0 0 0 0 0 0 0 0 0 0 0 0 0 0 0 0 0 0 0 0 0 0 0 0 109 187 0
6 4 4 4 3 1 1 1 1 1 2 4 1 2 0 0 0 1 0 0 0 0 0 0 0 0 0 0 0 0 0 0 0 0 0 0 0 0 0 0 0 0 0 50 261 3 0
4 3 2 0 2 0 2 2 1 1 2 4 5 0 1 0 0 0 0 0 0 0 0 0 0 0 0 0 0 0 0 0 0 0 0 0 0 0 0 0 0 0 0 0 317 3 10
3 1 2 0 3 0 0 0 0 0 0 2 4 1 1 0 0 0 0 0 0 0 0 0 0 0 0 0 0 0 0 0 0 0 0 0 0 0 0 0 0 0 0 0 214 77 9
1 1 2 0 2 0 0 0 0 0 0 0 3 3 0 0 0 0 0 0 0 0 0 0 0 0 0 0 0 0 0 0 0 0 0 0 0 0 0 0 0 0 0 0 192 24 21
0 2 2 2 2 0 0 0 0 0 0 0 0 0 0 0 0 0 0 0 0 0 0 0 0 0 0 0 0 0 0 0 0 0 0 0 0 0 0 0 0 0 0 21 127 33 0
4 3 2 1 0 0 0 0 0 0 0 0 0 0 0 0 0 0 0 0 0 0 0 8 3 0 0 0 0 0 0 0 0 0 0 0 0 0 0 0 0 0 0 0 23 53 10
4 3 2 1 0 0 0 0 0 0 0 0 0 0 0 0 0 0 0 0 3 0 0 0 0 0 0 0 0 0 0 0 0 0 0 0 0 0 0 0 0 0 0 0 10 0 26
4 2 3 1 0 0 0 0 0 0 0 0 0 0 0 0 0 0 0 0 3 0 1 0 0 0 0 0 0 0 0 0 0 0 0 0 0 0 0 0 0 0 0 0 0 0 0
5 4 2 1 0 0 0 0 0 0 0 0 0 0 0 0 0 0 0 0 0 0 0 0 0 0 0 0 0 10 35 3 0 0 0 0 0 0 0 0 0 0 0 0 0 0 0
1 2 1 1 0 0 0 0 0 0 0 0 0 0 0 0 0 0 0 0 0 0 0 0 0 0 0 0 1 7 34 2 0 0 0 0 0 0 0 0 0 0 0 0 0 0 0
3 1 1 2 0 0 0 0 0 0 0 0 0 0 0 0 0 0 0 0 0 3 0 0 0 0 32 81 29 44 83 6 0 0 0 0 0 0 0 0 0 0 0 0 0 0 1
4 3 2 1 0 0 0 0 0 0 0 0 0 0 0 0 1 0 0 0 2 40 6 0 0 0 0 19 7 52 72 21 0 0 0 0 0 0 0 0 0 0 0 0 0 0 0
7 3 5 4 0 0 0 0 0 0 0 0 0 0 0 0 0 0 3 4 2 11 10 0 0 0 0 0 2 0 15 9 0 0 177 0 0 0 0 0 0 0 0 0 0 0 154
8 8 6 5 0 0 0 0 0 0 0 0 0 0 0 0 0 0 0 9 0 0 0 0 2 10 0 0 0 0 0 0 0 249 0 0 0 0 0 0 0 0 0 0 0 0 47
4 3 4 6 0 0 0 0 0 0 0 0 0 0 0 0 0 0 0 0 0 0 0 0 34 0 0 0 0 0 0 0 0 0 0 0 0 0 0 0 0 0 0 0 74 290 396
3 5 8 4 0 0 0 0 0 0 0 0 0 0 0 0 0 0 0 0 0 0 0 0 0 7 0 0 0 0 0 0 0 0 0 0 0 0 0 0 0 0 0 0 258 543 421
2 6 3 0 0 0 0 0 0 0 0 0 0 0 1 29 0 0 0 0 0 0 0 0 0 0 0 0 0 0 0 0 0 0 0 0 0 0 0 0 0 0 0 174 615 428 260
3 1 0 0 0 0 0 0 0 0 0 0 0 0 0 31 0 0 0 0 0 0 0 0 0 0 0 0 0 0 0 0 0 0 0 0 0 0 0 0 0 0 0 0 194 177 331
2 0 0 0 0 0 0 1 0 0 0 0 0 0 0 1 0 0 0 0 0 0 0 0 0 0 0 0 0 0 42 33 35 7 0 0 0 0 0 0 0 0 0 0 60 145 2
0 2 0 0 0 0 0 0 0 0 0 0 0 0 0 0 0 0 0 0 0 0 0 0 0 0 0 0 0 4 56 36 21 26 5 0 0 0 0 0 0 0 0 0 0 0 0
1 1 0 0 0 0 0 0 0 0 0 0 0 0 0 0 0 0 0 0 0 0 0 0 0 0 0 0 3 2 20 0 0 0 0 0 0 0 0 0 0 0 0 0 0 0 0
1 0 0 0 0 0 0 0 0 0 0 0 0 0 0 0 0 0 0 0 0 0 0 0 0 0 0 0 0 0 0 0 0 0 0 0 0 33 4 0 0 0 0 0 0 0 0

GFSGBSN_con_sbcape_093.txt.gz
CAPE
1 4 5 5 4 2 2 1 2 4 4 4 3 4 1 2 0 0 0 1 0 0 0 3 2 2 0 0 0 0 7 0 0 0 0 0 0 0 0 0 390 292 259 451 253 352 361
3 0 3 6 4 6 6 4 5 5 6 2 1 1 2 0 1 0 1 0 0 0 0 3 2 1 0 0 0 0 0 0 0 0 0 0 0 0 0 0 260 353 239 385 184 172 152
8 3 1 5 6 5 3 5 4 4 6 1 3 1 2 2 0 1 0 0 0 0 1 0 0 0 0 0 0 0 0 0 0 0 0 0 0 0 0 0 42 424 438 278 135 75 187
11 8 1 7 6 6 4 5 5 3 5 1 3 2 1 0 0 0 1 3 2 4 0 0 0 0 0 0 0 0 0 0 0 0 0 0 0 0 0 0 0 323 392 170 287 250 120
12 6 5 2 7 5 5 5 5 5 3 1 1 1 1 1 2 2 2 2 2 1 1 2 0 0 0 0 0 0 0 0 0 0 0 0 0 0 0 0 0 18 261 126 305 225 167
7 7 6 0 8 5 4 2 3 4 5 2 1 3 3 1 1 1 2 0 0 0 0 0 0 0 0 0 0 0 0 0 0 0 0 0 0 0 0 0 0 0 4 120 141 281 164
7 8 6 3 5 2 1 1 1 2 2 4 5 1 1 3 0 0 0 0 0 0 0 0 0 0 0 0 0 0 0 0 0 0 0 0 0 0 0 0 0 0 0 0 375 94 5
7 6 4 3 1 3 0 0 1 1 1 2 6 3 1 2 0 0 0 0 0 0 0 0 0 0 0 0 0 0 0 0 0 0 0 0 0 0 0 0 0 0 0 261 97 56 78
5 2 3 3 0 3 0 1 1 0 0 1 3 5 0 0 1 0 0 0 0 0 0 0 0 0 0 0 0 0 0 0 0 0 0 0 0 0 0 0 0 0 0 119 120 6 16
3 2 1 3 0 4 0 0 1 0 0 0 1 3 1 0 0 0 0 0 0 0 0 0 0 0 0 0 0 0 0 0 0 0 0 0 0 0 0 0 0 0 0 0 189 49 16
3 4 3 3 0 2 0 0 0 0 0 0 1 1 0 0 0 0 0 0 0 0 0 0 0 0 0 0 0 0 0 0 0 0 0 0 0 0 0 0 0 0 0 0 142 17 2
3 4 5 2 1 0 0 0 0 0 0 0 0 0 0 0 0 0 0 0 0 0 0 0 0 0 0 0 0 0 0 0 0 0 0 0 0 0 0 0 0 0 0 0 17 14 0
4 3 4 3 2 0 0 0 0 0 0 0 0 0 0 0 0 0 0 0 0 0 0 0 0 0 0 0 0 0 0 0 0 0 0 0 0 0 0 0 0 0 0 0 37 13 0
4 4 4 3 1 0 0 0 0 0 0 0 0 0 0 0 0 0 0 0 0 0 0 0 0 0 0 0 0 0 0 0 0 0 0 0 0 0 0 0 0 0 0 0 16 0 1
3 4 3 2 2 0 0 0 0 0 0 0 0 0 0 0 0 0 0 0 0 0 0 0 0 0 0 0 0 0 0 0 0 0 0 0 0 0 0 0 0 0 0 0 0 0 0
5 3 1 3 1 0 0 0 0 0 0 0 0 0 0 0 0 0 0 0 0 0 0 0 0 0 0 0 0 0 7 0 0 0 0 0 0 0 0 0 0 0 0 0 0 2 0
4 3 3 3 0 0 0 0 0 0 0 0 0 0 0 0 0 0 0 0 0 0 0 0 0 0 0 0 0 0 0 0 0 0 0 0 0 0 0 0 0 0 0 0 0 0 0
6 3 1 3 1 0 0 0 0 0 0 0 0 0 0 0 0 0 0 0 0 0 0 0 0 0 0 0 5 2 15 0 0 0 0 0 0 0 0 0 0 0 0 0 0 0 0
8 5 3 2 2 0 0 0 0 0 0 0 0 0 0 0 0 0 0 0 0 0 0 0 0 0 0 0 0 3 12 4 0 0 0 0 0 0 0 0 0 0 0 0 0 0 89
7 8 8 6 4 0 0 0 0 0 0 0 0 0 0 0 0 0 0 0 0 0 0 0 0 0 0 0 0 0 0 15 0 10 110 1 0 0 0 0 0 0 0 0 0 0 0
9 8 7 7 6 0 0 0 0 0 0 0 0 0 0 0 0 0 0 0 0 0 0 0 0 0 0 0 0 0 0 0 0 234 0 0 0 0 0 0 0 0 0 0 0 0 14
7 6 10 10 0 0 1 0 0 0 0 0 0 0 0 0 0 0 0 0 0 0 0 0 0 0 0 0 0 0 0 0 0 0 0 0 0 0 0 0 0 0 0 0 32 143 82
6 11 9 0 0 0 1 0 0 0 0 0 0 0 0 0 0 0 0 0 0 0 0 0 0 0 0 0 0 0 0 0 0 0 0 0 0 0 0 0 0 0 0 0 84 311 125
8 8 0 0 0 0 1 0 0 0 0 0 0 0 0 0 0 0 0 0 0 0 0 0 0 0 0 0 0 0 0 0 0 0 0 0 0 0 0 0 0 0 0 0 514 329 181
9 6 1 0 0 0 1 1 0 0 0 0 0 0 0 0 0 0 0 0 0 0 0 0 0 0 0 0 0 0 0 0 5 0 0 0 0 0 0 0 0 0 0 0 0 263 136
7 3 4 0 0 0 0 0 0 0 0 0 0 0 0 0 0 0 0 0 0 0 0 0 0 0 0 0 0 0 4 44 27 3 0 0 0 0 0 0 0 0 0 0 0 147 116
4 2 3 0 0 0 0 0 0 0 0 0 0 0 0 0 0 0 0 0 0 0 0 0 0 0 0 0 0 4 42 9 32 6 3 0 0 0 0 0 0 0 0 0 0 0 0
3 2 1 0 0 0 0 0 0 0 0 0 0 0 0 0 0 0 0 0 0 0 0 0 0 0 0 0 0 0 5 0 0 0 0 0 0 0 0 0 2 0 0 0 0 0 0
2 2 0 0 0 0 0 0 0 0 0 0 0 0 0 0 0 0 0 0 0 0 0 0 0 0 0 0 0 0 0 0 0 0 0 0 0 0 0 0 0 0 0 0 0 0 0

GFSGBSN_con_sbcape_096.txt.gz
CAPE
5 4 1 2 2 3 8 6 1 1 1 1 1 2 1 1 1 0 2 1 1 0 0 0 3 0 0 0 0 0 35 0 0 0 0 0 0 0 0 0 20 208 163 410 362 145 179
14 9 5 1 1 2 4 2 3 2 2 1 1 2 2 3 1 1 3 2 3 1 1 0 2 0 0 0 0 0 0 0 0 0 0 0 0 0 0 0 59 254 233 532 497 210 244
13 12 9 0 3 2 5 0 1 1 1 1 2 2 0 0 0 0 3 2 1 2 0 0 0 0 0 0 0 0 0 0 0 0 0 0 0 0 0 0 0 392 232 247 330 321 231
13 11 9 1 5 4 3 2 2 0 1 3 3 1 0 1 4 5 3 3 3 2 1 0 1 0 0 0 0 0 0 0 0 0 0 0 0 0 0 0 0 366 153 124 176 162 90
7 8 8 3 1 5 2 3 3 1 0 1 2 1 1 0 1 2 1 1 3 2 0 0 0 0 0 0 0 0 0 0 0 0 0 0 0 0 0 0 0 6 118 94 226 205 92
2 6 7 7 1 5 3 1 1 3 3 1 4 2 1 2 0 0 0 0 0 0 0 0 0 0 0 0 0 0 0 0 0 0 0 0 0 0 0 0 0 0 12 67 138 259 127
7 10 11 7 1 5 2 1 0 1 1 3 0 1 0 0 1 1 0 0 0 0 0 0 0 0 0 0 0 0 0 0 0 0 0 0 0 0 0 0 0 0 0 12 184 176 72
7 9 9 8 3 1 3 0 0 0 0 1 5 0 0 0 0 0 0 0 0 0 0 0 0 0 0 0 0 0 0 0 0 0 0 0 0 0 0 0 0 0 38 259 146 169 25
8 8 7 4 3 0 4 0 0 0 0 0 1 4 0 0 0 0 0 0 0 0 0 0 0 0 0 0 0 0 0 0 0 0 0 0 0 0 0 0 0 0 0 187 186 13 17
5 3 3 2 4 0 3 0 0 0 0 0 0 2 2 0 0 0 0 0 0 0 0 0 0 0 0 0 0 0 0 0 0 0 0 0 0 0 0 0 0 0 0 143 111 8 0
3 2 5 2 4 1 1 0 0 0 0 0 0 0 0 0 0 0 0 0 0 0 0 0 0 0 0 0 0 0 0 0 0 0 0 0 0 0 0 0 0 0 0 80 124 2 0
4 6 5 5 3 1 0 0 0 0 0 0 0 2 0 0 0 0 0 0 0 0 0 0 0 0 0 0 0 0 0 0 0 0 0 0 0 0 0 0 0 0 0 0 3 0 0
4 4 3 2 1 1 0 0 0 0 0 0 0 0 0 0 0 0 0 0 0 0 0 0 0 0 0 0 0 0 0 0 0 0 0 0 0 0 0 0 0 0 0 0 37 21 0
5 2 2 1 1 0 0 0 0 0 0 0 0 0 0 0 0 0 0 0 0 0 0 0 0 0 0 0 0 0 0 0 0 0 0 0 0 0 0 0 0 0 0 0 1 1 0
6 5 3 2 1 0 0 0 0 0 0 0 0 0 0 0 0 0 0 0 0 0 0 0 0 0 0 0 0 0 0 0 0 0 0 0 0 0 0 0 0 0 0 0 0 0 5
7 6 5 4 1 0 0 0 0 0 0 0 0 0 0 0 0 0 0 0 0 0 0 0 0 0 0 0 0 0 0 0 0 0 0 0 0 0 0 0 0 0 0 0 0 0 0
2 8 5 4 3 2 0 0 0 0 0 0 0 0 0 0 0 0 0 0 0 0 0 0 0 0 0 0 0 0 0 0 0 0 0 0 0 0 0 0 0 0 0 0 0 0 0
5 7 5 3 3 1 0 0 0 0 0 0 0 0 0 0 0 0 0 0 0 0 0 0 0 0 0 0 0 0 0 0 0 0 0 0 0 0 0 0 0 0 0 0 0 0 0
6 8 8 7 4 1 0 0 0 0 1 0 0 0 0 0 0 0 0 0 0 0 0 0 0 0 0 0 0 0 0 0 0 0 0 0 0 0 0 0 0 0 0 0 0 0 2
9 9 11 11 5 0 0 0 0 0 0 0 0 0 0 0 0 0 0 0 0 0 0 0 0 0 0 0 0 0 0 0 0 0 59 0 0 0 0 0 0 0 0 0 0 0 0
8 9 14 13 0 0 0 0 0 0 0 0 0 0 0 0 0 0 0 0 0 0 0 0 0 0 0 0 0 0 0 0 1 88 0 0 0 0 0 0 0 0 0 0 0 0 0
7 9 9 0 0 0 0 0 0 0 0 0 0 0 0 0 0 0 0 0 0 0 0 0 0 0 0 0 0 0 0 0 0 0 0 0 0 0 0 0 0 0 0 0 1 21 95
7 9 7 0 0 0 0 0 0 0 0 0 0 0 0 0 0 0 0 0 0 0 0 0 0 0 0 0 0 0 0 0 0 0 0 0 0 0 0 0 0 0 0 0 0 74 96
9 11 11 3 0 0 0 0 0 0 0 0 0 0 0 0 0 0 0 0 0 0 0 0 0 0 0 0 0 0 0 0 0 0 0 0 0 0 0 0 0 0 0 0 53 168 88
2 6 8 6 0 0 0 0 0 0 0 0 0 0 0 0 0 0 0 0 0 0 0 0 0 0 0 0 0 0 0 0 0 0 0 0 0 0 0 0 0 0 0 0 0 102 101
1 5 4 5 0 0 0 0 0 0 0 0 0 0 0 0 0 0 0 0 0 0 0 0 0 0 0 0 0 0 0 13 16 0 0 0 0 0 0 0 0 0 0 0 0 43 145
2 3 2 2 0 0 0 0 0 0 0 0 0 0 0 0 0 0 0 0 0 0 0 0 0 0 0 0 0 0 12 0 32 3 0 0 0 0 0 0 0 0 0 0 0 0 37
2 1 2 4 0 0 0 0 0 0 0 0 0 0 0 0 0 0 0 0 0 0 0 0 0 0 0 0 0 0 0 0 0 0 0 0 0 0 0 0 0 0 0 0 0 0 0
3 2 1 2 0 0 0 0 0 0 0 0 0 0 0 0 0 0 0 0 0 0 0 0 0 0 0 0 0 0 0 0 0 0 0 0 0 0 0 0 0 0 0 0 0 0 0

GFSGBSN_con_sbcape_099.txt.gz
CAPE
19 14 9 1 3 3 1 1 1 3 1 1 2 1 1 1 1 3 4 0 0 0 2 2 2 0 0 0 0 0 0 0 6 0 0 0 0 0 2 0 0 74 177 131 54 58 189
23 22 11 2 3 4 3 1 2 1 1 2 0 3 2 2 4 1 1 0 1 1 3 4 1 0 0 0 0 0 0 0 0 0 0 0 0 0 0 0 0 178 183 388 270 182 180
9 15 11 2 2 5 3 0 3 1 1 1 0 2 1 0 0 1 1 1 2 2 1 0 0 0 0 0 0 0 0 0 0 0 0 0 0 0 0 0 0 276 227 231 182 242 94
7 7 10 6 0 5 2 1 0 0 1 2 2 0 1 0 1 1 1 0 1 1 0 2 0 0 0 0 0 0 0 0 0 0 0 0 0 0 0 0 0 352 201 203 255 248 153
7 8 9 7 0 3 4 2 3 2 0 1 1 1 0 1 0 0 0 0 1 0 1 1 0 0 0 0 0 0 0 0 0 0 0 0 0 0 0 0 0 92 174 156 391 240 187
9 11 12 8 1 4 5 0 1 2 2 1 0 3 0 0 0 0 0 0 0 0 0 0 0 0 0 0 0 0 0 0 0 0 0 0 0 0 0 0 0 0 46 150 213 233 37
11 12 13 9 7 0 5 0 0 0 1 2 2 1 0 1 1 1 0 0 0 0 0 0 0 0 0 0 0 0 0 0 0 0 0 0 0 0 0 0 0 0 0 159 397 188 133
10 9 10 8 7 0 3 1 0 0 0 1 2 3 0 1 0 0 0 0 0 0 0 0 0 0 0 0 0 0 0 0 0 0 0 0 0 0 0 0 0 0 122 241 295 217 146
6 5 5 3 4 1 1 1 0 0 0 0 0 1 1 0 1 0 0 0 0 0 0 0 0 0 0 0 0 0 0 0 0 0 0 0 0 0 0 0 0 0 0 238 273 95 13
7 2 2 2 2 2 1 0 0 0 0 0 0 2 0 0 0 0 0 0 0 0 0 0 0 0 0 0 0 0 0 0 0 0 0 0 0 0 0 0 0 0 0 295 179 47 10
6 6 6 4 4 3 0 0 0 0 0 0 1 4 0 0 0 0 0 0 0 0 0 0 0 0 0 0 0 0 0 0 0 0 0 0 0 0 0 0 0 0 0 171 163 65 24
7 7 5 5 7 2 0 0 0 0 0 0 2 0 0 0 0 0 0 0 0 0 0 0 0 0 0 0 0 0 0 0 0 0 0 0 0 0 0 0 0 0 17 90 24 26 1
7 5 3 2 3 1 1 0 0 0 0 0 0 0 1 0 0 0 0 0 0 0 0 0 0 0 0 0 0 0 0 0 0 0 0 0 0 0 0 0 0 0 0 20 0 1 0
9 4 3 3 2 0 1 0 0 0 0 0 0 0 0 0 0 0 0 0 0 0 0 0 0 0 0 0 0 0 0 0 0 0 0 0 0 0 0 0 0 0 0 15 23 2 0
5 7 3 3 1 0 0 0 0 0 0 0 0 0 0 0 0 0 0 0 0 0 0 0 0 0 0 0 0 0 0 0 0 0 0 0 0 0 0 0 0 0 0 0 24 0 23
4 8 6 5 2 0 0 0 0 0 0 0 0 0 0 0 0 0 0 0 0 0 0 0 0 0 0 2 0 4 0 0 0 0 0 0 0 0 0 0 0 0 0 0 0 11 9
7 8 7 6 5 0 0 0 0 0 0 0 0 0 0 0 0 0 0 0 0 0 0 0 0 0 0 8 20 8 12 0 0 0 0 0 0 0 0 0 0 0 0 0 0 0 0
9 8 6 6 3 2 0 0 0 0 0 0 0 0 0 0 0 0 0 0 0 0 0 0 0 0 0 3 8 24 27 9 0 0 1 0 0 0 0 0 0 0 0 0 0 0 0
11 7 5 6 0 0 0 0 0 0 0 0 0 0 0 0 6 0 0 0 0 0 0 0 0 0 0 0 0 0 1 0 0 2 0 4 9 0 0 0 0 0 0 0 0 0 0
11 9 9 0 0 0 0 0 0 0 0 0 0 0 0 0 0 0 0 0 0 0 0 0 0 0 0 0 0 0 0 0 0 0 81 2 4 25 0 0 0 0 0 0 0 0 0
10 9 10 0 0 0 0 0 0 0 0 0 0 0 0 0 0 0 0 0 0 0 0 0 0 0 0 0 0 0 0 0 15 67 0 8 89 1 0 0 0 0 0 0 0 0 0
10 9 9 8 0 0 0 0 0 0 0 0 0 0 0 0 0 0 0 0 0 0 0 0 0 0 0 0 1 0 0 0 0 5 2 0 107 29 25 0 0 0 0 0 0 0 0
9 6 8 7 0 0 0 0 0 0 0 0 0 0 0 0 0 0 0 0 0 0 0 0 0 0 0 0 0 0 0 0 0 0 10 37 111 123 47 0 0 3 0 0 4 44 88
3 3 8 1 6 0 0 0 0 0 0 0 0 0 0 0 0 0 0 0 0 0 0 0 0 0 0 0 0 0 0 0 0 0 0 34 117 79 160 19 51 1 0 0 48 401 393
2 5 7 2 4 0 0 0 0 0 0 0 0 0 0 0 0 0 0 0 0 0 0 0 0 0 0 0 11 82 0 0 42 0 0 2 107 161 189 77 2 0 0 0 0 94 359
5 7 6 4 2 0 0 0 0 0 0 0 0 0 0 0 0 0 0 0 0 0 0 0 0 0 0 0 2 59 78 141 135 6 0 0 57 154 238 157 61 0 0 0 0 226 389
7 7 3 3 0 0 0 0 0 0 0 0 0 0 0 0 0 0 0 0 0 0 0 0 0 0 0 4 93 180 307 67 269 152 129 0 0 111 198 182 53 0 0 0 76 49 336
3 6 5 2 1 0 0 0 0 0 0 0 0 0 0 0 0 0 0 0 0 0 0 0 0 0 0 57 87 34 141 46 37 10 32 27 13 98 3 49 32 8 13 7 0 0 113
3 2 5 0 3 0 0 0 0 0 0 0 0 0 0 0 0 0 0 0 0 0 0 0 0 0 0 0 0 0 0 0 0 269 0 184 10 319 33 72 4 0 0 0 0 0 34

GFSGBSN_con_sbcape_102.txt.gz
CAPE
13 16 8 2 4 3 2 2 4 2 1 2 1 2 1 1 0 0 1 3 1 2 1 1 0 1 0 0 0 0 0 0 0 0 0 0 0 18 220 101 13 248 445 41 62 204 256
2 10 12 5 2 5 0 2 2 2 1 0 3 2 1 3 2 1 3 2 2 1 0 1 0 0 0 0 0 0 0 0 0 0 0 0 0 44 314 30 22 190 299 81 62 215 293
7 7 9 7 1 4 3 2 0 0 2 1 2 1 3 1 1 1 2 1 1 0 1 1 0 0 0 0 0 0 0 0 0 0 0 0 0 30 0 0 0 255 472 321 183 487 81
6 8 8 8 1 3 3 3 1 2 2 2 2 3 1 1 1 2 0 0 0 1 0 0 0 0 0 0 0 0 0 0 0 0 0 0 0 10 0 0 0 403 507 451 248 392 105
9 9 10 9 4 2 3 0 0 2 2 2 1 2 1 1 0 1 1 1 1 1 0 0 0 0 0 0 0 0 0 0 0 0 0 0 0 0 0 0 35 534 523 243 382 222 74
14 16 15 12 7 0 1 4 0 0 2 2 2 3 1 3 1 1 0 0 0 0 0 0 0 0 0 0 0 0 0 0 0 0 0 0 0 0 15 0 25 298 189 233 259 131 6
8 8 10 6 8 2 2 3 0 0 0 0 0 1 3 3 3 0 0 0 0 0 0 0 0 0 0 0 0 0 0 0 0 0 0 0 0 33 325 30 0 17 123 195 200 31 0
7 4 5 5 6 4 1 0 0 0 0 0 0 0 1 0 0 0 0 0 0 0 0 0 0 0 0 0 0 0 0 0 0 0 0 0 0 1 66 0 0 177 293 436 221 173 187
6 5 5 4 5 4 0 0 0 0 0 0 0 2 1 0 0 0 0 0 0 0 0 0 0 0 0 0 0 0 0 0 0 0 0 0 0 0 0 0 0 0 106 321 344 205 147
6 4 4 5 8 2 1 0 0 0 0 0 1 3 0 0 0 0 0 0 0 0 0 0 0 0 0 0 0 0 0 0 0 0 0 0 0 0 0 0 0 4 19 141 399 230 103
5 5 4 5 4 2 2 0 0 0 0 0 2 0 0 0 0 0 0 0 0 0 3 0 0 0 0 0 0 0 0 0 0 0 0 0 0 0 0 0 0 0 0 3 86 78 106
6 6 3 5 6 1 1 0 0 0 0 0 2 1 0 0 0 0 0 0 0 0 5 0 0 0 0 0 0 0 0 0 0 0 0 0 0 0 0 0 0 0 73 31 0 0 69
10 7 7 5 3 2 0 0 0 0 0 0 0 0 1 0 0 0 0 0 0 23 0 0 0 0 0 0 0 0 0 0 0 0 0 0 0 0 0 0 0 0 7 26 44 46 93
9 7 6 3 1 1 0 0 0 0 0 0 0 0 0 0 0 0 0 0 0 0 0 0 0 0 9 0 0 0 0 0 0 0 0 0 0 0 0 0 1 0 0 3 68 72 63
10 7 3 4 3 1 0 0 0 0 0 0 0 0 0 0 0 0 0 0 6 0 0 0 1 8 2 0 0 1 14 15 6 0 16 1 0 0 0 0 0 0 11 0 1 56 59
9 6 5 5 4 2 0 0 0 0 1 0 0 0 0 0 0 0 0 0 0 0 0 15 48 29 35 19 11 0 12 13 21 0 8 16 9 0 0 0 0 0 0 13 40 61 63
9 6 6 6 2 0 0 0 0 0 0 0 0 0 0 0 0 4 0 0 0 0 4 12 12 41 50 54 55 26 57 27 0 0 0 42 1 9 0 0 0 0 0 0 4 12 21
8 5 6 0 0 0 0 0 0 0 0 0 0 9 0 0 1 0 1 0 0 0 0 0 0 0 30 25 49 51 84 82 2 9 9 20 40 50 0 0 0 2 0 0 0 0 2
8 6 8 0 0 0 0 0 0 0 0 0 0 0 0 0 5 3 0 0 0 1 0 0 0 0 2 29 53 10 18 39 27 79 78 76 21 65 59 28 0 0 0 0 1 5 11
9 9 9 4 0 0 0 0 0 0 0 0 0 10 0 0 0 0 2 0 0 0 0 0 0 0 0 5 31 45 1 18 1 66 40 37 94 66 81 92 56 10 0 0 0 1 0
8 9 10 3 3 0 0 0 0 0 0 0 0 0 0 2 0 0 0 0 0 0 0 0 2 0 7 38 59 25 2 3 30 181 106 155 137 106 48 14 5 53 41 0 0 0 6
8 8 9 4 5 0 0 0 0 0 0 0 0 0 0 0 0 0 0 0 0 0 0 0 0 0 0 68 129 92 22 67 143 137 187 146 214 172 82 64 64 38 4 0 0 0 0
6 7 8 5 4 1 0 0 0 0 0 0 0 0 0 0 0 0 0 0 0 0 0 0 0 0 1 2 0 0 0 0 12 167 180 152 188 231 102 129 110 88 63 15 17 38 29
8 8 7 8 3 3 0 0 0 0 0 0 0 7 0 0 0 0 0 0 0 0 0 0 0 0 1 0 0 0 4 8 27 32 40 193 221 218 181 181 117 172 70 51 28 88 483
11 11 7 6 3 3 0 0 0 0 0 0 0 2 0 0 0 0 0 0 0 0 0 0 0 0 0 0 108 213 177 156 139 32 116 176 236 211 195 217 160 62 49 28 32 222 566
12 10 9 3 7 3 0 0 0 0 0 0 0 0 0 0 0 0 0 0 0 0 0 0 0 0 2 73 180 329 194 277 275 212 97 221 391 119 218 133 135 150 0 0 1 225 328
8 5 11 4 3 1 0 0 0 0 0 0 0 0 0 0 0 0 0 0 0 0 0 0 0 0 4 123 246 285 365 477 359 176 229 253 284 211 126 126 208 158 27 20 139 169 241
4 4 5 2 1 4 0 0 0 0 0 0 0 0 36 0 0 0 0 0 0 0 0 26 1 10 0 1 104 370 348 551 461 364 376 331 290 272 280 192 160 282 245 271 280 105 209
2 4 4 6 0 3 0 0 0 0 0 0 0 0 0 48 0 0 0 0 0 0 0 0 2 0 24 50 92 253 376 106 399 338 271 444 454 350 415 474 382 367 368 391 348 205 318

GFSGBSN_con_sbcape_105.txt.gz
CAPE
1 3 8 6 1 3 2 2 3 3 2 2 1 2 2 3 1 1 2 2 3 1 1 1 1 0 0 0 0 0 0 0 0 0 0 0 0 54 101 214 221 439 447 111 96 289 383
7 5 9 8 1 4 3 1 2 2 1 3 1 4 2 2 1 1 1 0 0 0 1 0 0 0 0 0 0 0 0 0 0 0 0 0 0 0 246 329 221 316 453 362 320 585 274
9 7 9 8 1 3 2 0 1 0 1 1 3 2 3 1 1 2 1 0 0 0 1 2 0 0 0 0 0 0 0 0 0 0 0 0 0 0 272 237 48 455 365 251 139 355 285
9 9 11 11 4 2 2 2 1 1 0 0 0 1 2 3 2 1 1 0 1 1 0 0 0 0 0 0 0 0 0 0 0 0 0 0 0 0 240 30 73 572 211 249 132 386 230
12 13 14 11 8 1 2 4 0 0 0 0 0 0 0 1 1 0 0 0 0 1 0 0 0 0 0 0 0 0 0 0 0 0 0 0 0 32 218 90 55 215 351 147 290 139 112
7 6 6 5 7 1 2 1 0 0 0 0 0 0 0 0 1 0 0 0 0 0 0 0 0 0 0 0 0 0 0 0 0 0 0 0 0 139 210 156 20 48 114 251 204 12 13
7 6 5 2 5 6 2 0 0 0 0 0 0 0 0 2 1 1 0 0 0 0 0 0 0 0 0 0 0 0 0 0 0 0 0 0 0 14 212 144 15 182 87 236 127 12 4
7 7 5 6 5 5 2 0 0 0 0 0 0 0 1 1 1 2 0 0 0 0 0 0 0 0 0 0 0 0 0 0 0 0 0 0 0 0 148 188 0 54 363 175 104 40 32
9 8 5 5 5 5 3 1 0 0 0 0 0 1 1 0 0 0 0 0 0 0 0 0 0 0 0 0 0 0 0 0 0 0 0 0 0 0 167 247 9 104 181 107 61 124 98
7 7 6 5 6 1 2 0 0 0 0 0 0 3 0 0 0 0 0 0 0 0 17 0 0 0 0 0 0 0 0 0 0 0 0 0 0 0 108 144 69 35 296 178 19 170 25
10 9 7 5 5 4 0 0 0 0 0 0 1 0 0 0 0 0 0 0 0 0 26 0 0 0 0 0 0 0 0 0 0 0 0 0 0 0 0 63 41 27 30 184 149 163 21
11 8 8 4 5 4 1 0 0 0 0 0 1 0 1 0 0 0 0 0 0 2 61 1 0 0 3 0 0 0 0 0 0 0 0 1 0 0 0 4 17 22 78 147 200 134 96
10 10 7 4 4 2 1 0 0 0 0 1 0 0 1 0 0 0 0 0 2 55 3 1 2 0 1 2 8 0 0 0 0 0 0 0 0 0 1 6 0 121 264 186 119 98 100
10 8 5 2 2 1 0 0 0 0 0 0 0 0 0 0 0 0 0 17 57 4 37 0 0 2 29 4 22 14 0 2 0 5 12 0 0 0 0 39 14 28 130 264 167 178 151
10 7 3 3 1 0 0 0 0 0 0 0 0 0 0 0 0 0 4 95 65 59 17 27 2 59 43 3 16 16 37 20 26 9 61 20 8 0 0 0 22 16 79 112 196 12 74
10 7 4 1 0 0 0 0 0 0 0 0 0 0 0 0 0 0 33 0 2 2 10 18 20 21 50 41 4 0 60 42 45 11 21 67 45 0 0 0 0 2 32 50 37 34 109
11 5 3 0 0 0 0 0 0 0 0 0 0 11 0 0 0 35 48 9 5 0 1 54 30 40 68 30 3 44 18 29 4 21 0 28 31 3 0 0 0 0 0 2 52 35 51
7 6 5 2 0 0 0 0 0 0 0 0 2 34 0 0 32 40 37 11 1 2 0 7 10 32 54 39 79 34 9 72 2 0 18 3 44 58 32 3 0 2 0 0 13 27 22
7 6 9 2 0 0 0 0 0 0 0 0 18 0 0 0 58 28 0 0 5 16 1 8 16 8 5 97 68 53 51 50 28 2 61 104 13 75 70 31 2 0 4 3 0 14 63
9 7 10 6 2 1 0 0 0 0 0 0 2 15 0 1 0 19 28 20 3 0 0 0 0 0 16 97 107 131 76 52 28 36 88 38 52 65 30 24 0 27 0 6 13 51 32
8 8 10 9 4 2 0 0 0 0 0 0 0 15 5 22 0 1 1 0 1 2 0 0 10 0 5 146 165 200 73 82 34 53 57 14 75 57 34 7 10 9 20 5 4 3 57
5 9 10 11 6 2 0 0 0 0 0 0 34 4 0 0 0 0 0 0 0 0 0 0 0 0 0 157 286 195 140 142 173 191 96 103 95 120 97 9 17 19 42 27 40 15 11
5 8 6 8 7 4 0 0 0 0 0 0 0 0 0 0 0 0 2 0 0 0 0 0 0 0 0 86 51 94 73 124 159 220 210 159 128 124 113 47 64 34 41 53 32 29 44
4 8 9 5 10 4 3 0 0 0 0 0 0 75 0 3 0 0 0 0 0 0 0 0 0 0 45 1 0 30 138 134 129 124 146 209 187 178 194 74 96 134 102 118 56 90 88
3 5 8 9 8 4 4 0 0 0 0 0 23 59 4 19 0 0 0 0 0 0 0 0 0 0 0 0 44 236 223 188 202 182 134 154 343 217 263 115 48 59 154 148 86 277 574
1 3 5 8 5 9 5 0 0 0 0 0 42 49 112 44 3 0 0 0 1 16 8 0 0 0 0 76 158 556 431 171 285 138 163 197 201 450 344 287 169 196 45 24 74 147 192
1 3 2 1 0 5 3 0 0 0 0 0 20 28 173 12 7 0 20 0 0 6 1 9 4 0 0 342 336 306 350 136 210 481 429 187 292 285 225 202 217 98 24 2 139 317 210
4 2 2 1 0 0 6 1 0 0 0 0 31 7 280 54 3 0 0 0 0 25 77 235 17 130 14 45 230 319 282 462 352 246 378 0 65 508 345 207 114 231 269 393 418 327 278
5 6 5 2 1 0 6 0 0 0 0 0 22 0 27 273 36 0 0 0 0 0 0 20 34 228 45 210 207 281 362 211 299 238 374 97 562 427 226 419 505 466 502 567 434 350 384

GFSGBSN_con_sbcape_108.txt.gz
CAPE
6 7 8 8 1 1 2 1 1 2 2 3 2 2 2 2 2 2 1 1 0 0 0 1 0 0 0 0 0 0 0 0 0 0 0 0 0 85 67 122 127 239 430 213 223 446 207
10 8 8 7 2 2 4 2 3 2 2 2 2 1 4 3 2 2 1 0 0 0 0 0 0 0 0 0 0 0 0 0 0 0 0 0 0 2 73 225 121 261 394 307 230 298 246
13 12 10 11 2 3 1 4 0 0 1 0 0 0 1 2 2 1 0 1 0 0 0 0 0 0 0 0 0 0 0 0 0 0 0 0 0 0 50 209 200 499 530 279 438 546 537
11 11 10 10 7 1 3 2 1 0 0 0 0 0 0 0 1 1 0 0 0 1 1 0 0 0 0 0 0 0 0 0 0 0 0 0 0 0 0 104 121 518 329 209 65 251 286
8 8 5 7 10 1 1 0 0 0 0 0 0 0 0 0 1 0 0 0 0 0 0 0 0 0 0 0 0 0 0 0 0 0 0 0 0 0 0 80 126 336 96 230 121 61 103
12 11 10 9 8 6 0 0 0 0 0 0 0 0 0 1 1 0 0 0 0 0 0 0 0 0 0 0 0 0 0 0 0 0 0 0 0 0 0 161 86 135 6 40 136 80 74
11 11 8 7 10 3 3 3 0 0 0 0 0 0 0 2 0 0 0 0 0 0 0 0 0 0 0 0 0 0 0 0 0 0 0 0 0 0 58 208 79 30 10 82 26 19 62
9 9 9 8 9 4 5 3 0 0 0 0 0 0 0 0 0 0 0 0 0 0 0 0 0 0 0 0 0 0 0 0 0 0 0 0 0 0 1 114 102 164 157 122 60 114 65
12 10 7 7 6 0 1 3 0 0 0 0 0 0 0 0 0 1 0 0 0 0 0 0 0 0 0 0 0 0 0 0 0 0 0 0 0 0 0 27 176 31 94 63 54 105 85
11 8 7 7 5 5 1 1 0 0 0 0 0 2 1 1 0 0 0 0 0 0 0 0 0 0 0 0 0 0 0 0 0 0 0 0 0 0 0 13 155 217 179 99 30 134 52
11 8 7 5 6 4 1 0 0 0 0 0 2 1 0 0 0 0 0 0 0 0 13 0 0 0 0 0 0 0 0 0 0 0 0 0 0 0 0 42 127 125 260 157 204 111 39
10 9 7 5 6 5 3 0 0 0 0 0 1 1 0 0 0 0 0 0 0 0 3 0 0 0 0 0 6 0 0 0 0 0 0 0 0 0 0 0 29 176 258 88 23 86 193
11 7 5 6 5 0 0 0 0 0 0 1 0 0 1 0 0 0 0 0 0 7 20 0 14 0 12 6 20 0 0 0 0 0 0 0 0 0 0 1 50 53 189 207 233 294 140
10 7 3 2 0 0 0 0 0 0 0 1 0 0 0 0 0 0 0 9 55 56 8 0 0 6 13 0 30 0 0 0 0 0 0 0 0 0 0 0 27 1 79 120 52 119 48
9 8 1 0 0 0 0 0 0 0 0 0 0 0 0 0 0 0 0 30 24 32 0 20 0 6 37 7 15 1 27 1 1 0 25 55 4 0 0 0 31 7 38 60 65 3 51
3 7 3 1 0 0 0 0 0 0 0 0 0 0 0 0 0 0 12 4 3 0 1 8 27 33 34 15 3 7 49 47 25 45 3 25 86 9 0 0 0 9 9 23 11 113 126
6 0 1 3 0 0 0 0 0 0 0 0 0 5 0 0 0 1 48 0 0 0 0 17 10 48 21 24 24 56 8 33 13 3 0 0 20 34 6 0 0 0 0 0 7 13 15
7 2 1 1 0 0 0 0 0 0 0 0 0 1 0 0 4 54 9 1 1 0 0 0 0 11 53 21 13 5 39 19 0 0 0 0 2 22 27 5 0 0 0 2 0 1 2
4 1 2 2 0 0 0 0 0 0 0 0 0 20 0 0 2 19 0 0 10 16 0 12 27 3 4 11 35 67 54 3 0 0 13 6 14 4 34 26 3 0 0 1 0 0 26
5 5 3 4 0 0 0 0 0 0 0 0 0 12 3 0 0 11 15 26 8 0 0 0 0 0 2 63 67 36 107 16 0 0 150 0 22 22 20 8 39 41 0 1 16 2 0
2 5 4 3 4 0 0 0 0 0 0 0 0 10 4 19 0 0 0 0 2 6 0 0 0 0 0 32 187 246 162 64 32 18 0 0 2 21 0 13 9 14 6 14 0 1 22
0 3 4 2 3 4 0 0 0 0 0 0 5 56 0 0 0 0 0 0 0 0 0 0 0 0 0 2 176 176 168 186 157 75 0 0 20 19 28 3 7 5 0 26 25 4 0
1 3 8 6 2 4 1 0 0 0 0 28 39 13 0 1 0 1 3 0 0 0 0 0 0 0 0 29 62 34 66 76 207 247 180 239 64 83 29 19 4 0 5 7 62 34 15
4 3 2 13 7 2 2 0 0 0 0 0 32 31 43 20 0 0 0 0 0 0 0 0 0 0 0 33 13 0 11 89 103 99 151 207 335 187 126 96 80 105 113 95 21 47 239
1 1 3 2 10 4 4 1 0 0 0 0 0 45 55 78 11 0 0 0 0 0 0 0 0 0 0 0 0 58 173 190 241 284 153 60 322 152 109 89 86 175 127 82 7 284 303
0 0 2 2 3 2 0 2 0 0 0 0 0 70 92 76 32 0 0 0 0 73 66 1 0 0 0 0 48 254 349 390 62 36 179 260 199 340 427 118 229 213 106 29 1 173 351
0 0 3 3 2 3 1 1 0 0 0 0 0 59 88 85 39 0 7 24 0 2 26 94 32 10 0 58 357 448 458 187 157 4 5 53 225 247 238 238 384 134 64 0 14 324 236
3 1 6 4 3 1 1 0 0 0 0 0 0 42 93 217 122 0 0 0 14 21 82 142 116 127 68 80 75 219 512 498 280 39 0 207 115 90 264 138 133 28 309 137 337 405 219
6 7 5 8 4 3 2 0 0 0 0 0 0 15 0 131 103 0 0 0 0 0 0 7 80 129 277 218 380 249 234 177 177 214 512 313 210 159 112 254 249 384 500 439 273 376 498

GFSGBSN_con_sbcape_111.txt.gz
CAPE
14 14 14 10 6 4 4 4 4 3 3 3 3 2 2 1 2 2 2 2 2 1 1 0 0 0 0 0 0 0 0 0 0 0 0 0 0 1 167 85 163 268 6 2 23 1 41
15 15 13 12 1 5 3 3 2 0 1 3 1 1 2 3 2 2 2 2 1 1 1 1 0 0 0 0 0 0 0 0 0 0 0 0 0 0 89 94 229 361 153 50 93 204 498
12 12 11 10 1 1 3 0 1 0 0 0 0 1 1 1 0 2 2 1 0 1 1 1 2 0 0 0 0 0 0 0 0 0 0 0 0 0 8 181 262 291 406 332 365 540 311
10 8 9 6 10 0 2 0 0 0 0 0 0 0 0 0 1 2 1 1 0 0 1 1 0 0 0 0 0 0 0 0 0 0 0 0 0 0 0 121 418 539 273 146 218 503 92
10 9 9 12 10 3 1 3 0 0 0 0 0 0 0 0 2 1 0 0 0 0 0 0 0 0 0 0 0 0 0 0 0 0 0 0 0 0 0 0 99 61 53 0 19 133 12
5 5 11 12 9 6 6 5 3 0 0 0 0 0 0 0 2 0 0 0 0 0 0 0 0 0 0 0 0 0 0 0 0 0 0 0 0 0 0 0 22 85 15 1 11 68 87
11 2 2 9 2 0 1 5 4 2 0 0 0 0 0 1 2 0 0 0 0 0 0 0 0 0 0 0 0 0 0 0 0 0 0 0 0 0 0 0 177 51 23 73 34 78 74
3 6 8 8 2 1 0 0 4 0 0 0 0 0 0 1 0 1 0 0 0 0 0 0 0 0 0 0 0 0 0 0 0 0 0 0 0 0 0 203 124 159 46 4 49 22 27
10 2 4 1 0 1 1 1 0 0 0 0 0 0 2 1 1 0 0 0 0 0 0 0 0 0 0 0 0 0 0 0 0 0 0 0 0 0 0 255 316 130 83 22 21 1 24
6 3 2 1 4 2 0 1 0 0 0 0 0 3 0 0 0 0 0 0 0 0 0 0 0 0 0 0 0 0 0 0 0 0 0 0 0 0 0 36 221 190 124 82 38 0 0
3 2 5 6 11 1 0 0 0 0 0 0 3 0 0 3 0 0 0 0 0 0 0 0 0 0 0 0 0 0 0 0 0 0 0 0 0 0 0 89 294 125 23 150 32 3 28
6 2 5 6 0 0 0 0 0 0 0 0 0 0 0 0 0 0 0 0 0 0 6 0 0 0 0 0 0 0 0 0 0 0 0 0 0 0 0 260 159 298 307 130 77 29 12
6 6 2 1 0 0 0 0 0 0 0 0 0 0 1 0 0 0 0 0 0 3 10 12 0 0 0 1 1 0 0 0 0 0 0 0 0 0 0 176 252 164 76 2 62 63 61
1 2 0 0 0 0 0 0 0 0 0 0 0 0 0 0 0 0 0 0 19 56 38 1 0 4 21 13 1 1 0 0 0 0 0 0 0 0 0 11 144 199 177 116 17 47 73
1 0 0 0 0 0 0 0 0 0 0 0 0 0 0 0 0 0 0 2 31 0 0 0 4 25 2 2 14 8 0 0 0 0 0 3 19 0 0 0 0 0 103 34 24 7 1
6 1 0 0 0 0 0 0 0 0 0 0 0 0 0 0 0 0 0 24 0 0 0 5 5 30 27 15 16 16 16 2 18 36 0 0 19 26 0 0 0 27 12 0 2 78 48
3 3 1 0 0 0 0 0 0 0 0 0 0 0 0 0 0 0 5 16 0 0 0 0 0 3 0 8 11 26 23 11 0 0 0 0 7 22 3 0 0 0 0 0 0 0 13
1 0 0 0 0 0 0 0 0 0 0 0 0 0 0 0 0 0 0 0 0 0 0 0 0 0 3 8 16 33 3 0 0 0 0 0 0 0 0 2 0 0 0 0 0 0 0
1 0 1 0 0 0 0 0 0 0 0 0 0 0 0 0 0 1 0 0 0 0 0 0 0 0 0 0 55 37 10 8 0 0 0 0 0 0 1 6 12 1 0 0 0 0 0
1 2 3 1 0 0 0 0 0 0 0 0 0 2 7 0 0 2 2 10 1 0 0 0 0 0 0 0 10 74 5 15 0 0 0 0 0 0 0 0 0 5 6 6 0 0 0
4 4 2 3 1 0 0 0 0 0 0 0 0 0 6 6 0 0 0 0 0 0 0 0 0 0 0 0 0 3 43 10 15 0 0 0 0 0 1 4 0 0 0 2 4 0 0
5 6 4 2 3 0 0 0 0 0 0 0 0 0 0 0 0 0 0 0 0 0 0 0 0 0 0 0 20 28 24 6 110 51 101 2 0 2 7 3 1 2 5 0 0 8 3
5 1 2 5 5 3 0 0 0 0 0 0 3 56 51 3 0 0 0 0 0 0 0 0 0 0 0 1 2 0 0 0 0 174 204 125 176 159 7 31 3 0 14 16 30 314 355
2 0 0 1 4 6 2 0 0 0 0 0 0 0 59 29 48 3 0 0 0 0 0 0 0 0 0 0 0 0 0 0 66 98 5 105 184 165 109 20 38 138 5 3 283 414 223
1 0 0 1 2 6 6 3 2 0 0 0 0 7 131 171 123 41 0 0 0 0 0 0 0 0 0 0 0 0 24 195 226 59 32 2 54 52 97 26 123 182 58 0 107 201 216
1 3 0 0 1 2 2 7 3 1 0 0 0 0 91 103 58 24 0 0 0 0 0 0 0 0 0 0 0 213 254 158 238 6 0 10 1 0 177 207 165 179 63 3 0 186 377
0 0 0 0 1 2 4 4 5 4 0 0 0 0 38 74 22 53 1 0 0 0 5 123 115 65 0 0 4 184 78 96 67 47 5 0 2 0 85 3 133 16 52 94 1 161 437
1 1 2 1 1 5 4 3 5 8 0 0 0 0 31 127 95 130 0 0 0 17 11 18 43 155 224 182 91 425 407 171 0 10 94 7 113 8 63 90 0 9 188 211 102 0 352
1 3 6 1 1 3 6 4 6 3 0 0 0 0 0 96 91 9 0 0 0 0 0 0 12 177 190 89 89 336 502 0 61 325 5 200 102 42 170 196 85 55 42 3 3 508 443

GFSGBSN_con_sbcape_114.txt.gz
CAPE
16 14 14 3 1 5 4 3 3 1 1 2 1 0 1 2 4 3 3 3 2 3 2 2 1 1 0 0 0 0 4 0 0 0 0 0 0 0 86 72 170 10 19 2 2 0 27
5 8 8 11 0 1 3 0 0 0 0 0 0 0 0 0 1 3 3 4 2 2 2 1 1 0 0 0 0 0 0 0 0 0 0 0 0 0 33 108 80 97 4 4 14 51 377
3 4 9 8 3 0 1 2 1 0 0 0 0 0 0 0 0 2 2 1 1 1 1 1 1 0 0 0 0 0 0 0 0 0 0 0 0 0 0 346 449 42 45 28 134 225 412
12 10 11 10 8 2 5 5 2 0 0 0 0 0 0 0 0 1 1 0 1 1 1 1 0 0 0 0 0 0 0 0 0 0 0 0 0 0 0 258 241 8 176 207 169 145 119
10 8 9 8 4 5 3 6 3 3 0 0 0 0 0 0 0 2 0 0 0 0 1 0 0 0 0 0 0 0 0 0 0 0 0 0 0 0 0 38 120 13 25 1 10 81 30
8 10 7 5 1 1 0 0 3 4 0 0 0 0 0 0 1 0 0 0 0 0 0 0 0 0 0 0 0 0 0 0 0 0 0 0 0 0 0 0 31 51 11 2 9 64 80
3 2 2 2 0 0 0 0 0 0 0 0 0 0 0 1 2 1 0 0 0 0 0 0 0 0 0 0 0 0 0 0 0 0 0 0 0 0 0 0 61 62 40 48 43 79 83
3 2 2 3 5 2 1 1 1 0 0 0 0 0 3 2 0 0 0 0 0 0 0 0 0 0 0 0 0 0 0 0 0 0 0 0 0 0 0 156 220 157 20 4 17 139 119
3 1 1 0 3 2 0 0 0 0 0 0 0 2 0 0 1 0 0 0 0 0 0 0 0 0 0 0 0 0 0 0 0 0 0 0 0 0 105 266 59 170 104 11 42 4 27
3 4 2 2 0 0 0 0 0 0 0 0 2 1 0 0 0 0 0 0 0 0 0 0 0 0 0 0 0 0 0 0 0 0 0 0 0 0 0 325 167 171 144 115 32 1 0
5 5 6 1 2 1 0 0 0 0 0 0 1 1 0 2 0 0 0 0 0 0 0 0 0 0 0 0 0 0 0 0 0 0 0 0 0 0 0 325 65 60 222 126 25 34 13
4 4 3 4 2 1 0 0 0 0 0 0 0 1 0 0 0 0 0 0 0 0 0 0 0 0 0 0 0 0 0 0 0 0 0 0 0 0 2 253 77 111 248 114 26 24 9
6 1 0 0 1 0 0 0 0 0 0 0 0 0 0 0 0 0 0 0 0 0 0 16 0 0 0 0 0 0 0 0 0 0 0 0 0 48 426 209 360 223 71 56 19 5 3
5 3 1 0 0 0 0 0 0 0 0 0 0 0 0 0 0 0 0 0 0 6 12 0 0 0 0 0 0 0 0 0 0 0 0 0 0 115 269 356 418 204 43 30 35 27 50
4 3 3 0 0 0 0 0 0 0 0 0 0 0 0 0 0 0 0 0 0 0 0 0 0 0 0 0 0 0 0 0 0 0 0 0 0 0 149 232 468 308 221 65 19 7 9
3 2 3 1 0 0 0 0 0 0 0 0 0 0 0 0 0 0 0 0 0 0 0 0 0 0 0 0 0 4 3 20 6 0 0 0 0 0 0 24 302 133 51 9 0 59 21
3 1 1 2 0 0 0 0 0 0 0 0 0 0 0 0 0 0 0 0 0 0 0 0 0 0 0 0 0 0 0 12 0 0 0 0 0 0 0 0 0 0 0 0 0 0 10
2 0 0 0 0 0 1 0 0 0 0 0 0 0 0 0 0 0 0 0 0 0 0 0 0 0 0 0 0 1 0 1 6 0 0 0 0 0 0 0 0 0 0 0 0 0 0
4 3 3 2 1 0 0 0 0 0 0 0 0 0 0 0 0 0 0 0 0 0 0 0 0 0 0 0 0 0 0 5 0 0 0 0 0 0 1 0 0 0 0 0 0 0 0
3 5 6 5 4 5 0 0 0 0 0 0 0 0 0 0 0 0 0 0 0 0 0 0 0 0 0 0 0 3 0 4 0 0 0 14 0 0 0 0 0 0 0 0 0 0 0
1 2 1 3 8 7 4 0 0 0 0 0 0 0 0 0 0 0 0 0 0 0 0 0 0 0 0 0 0 0 0 0 0 5 0 0 0 0 0 0 0 0 0 0 0 0 0
0 3 0 1 1 6 5 0 0 0 0 0 0 0 0 0 0 0 0 0 0 0 0 0 0 0 0 0 0 0 0 0 0 0 4 0 1 0 0 0 0 0 19 313 275 168 392
0 0 0 4 1 1 6 3 0 0 0 0 0 0 0 0 3 2 0 0 0 0 0 0 0 0 0 0 0 0 0 0 0 0 0 0 0 4 0 0 0 33 199 340 271 462 435
0 0 0 2 0 1 0 4 3 0 0 0 0 0 0 0 39 29 0 0 0 0 0 0 0 0 0 0 0 0 0 0 0 0 0 0 0 0 5 0 4 9 46 287 285 237 258
0 0 1 2 1 2 0 0 3 1 0 0 0 0 0 13 28 13 0 0 0 0 0 0 0 0 0 0 0 0 0 0 7 0 0 0 0 3 18 0 34 66 1 0 82 198 318
0 0 0 1 1 1 1 0 0 3 0 0 0 0 0 0 2 0 9 0 0 0 0 0 0 0 0 0 0 29 60 4 50 1 0 0 0 5 4 26 6 11 0 18 0 51 156
0 0 0 0 1 2 1 0 0 8 1 0 0 0 0 0 2 23 10 0 0 0 0 0 0 0 0 0 0 29 46 43 34 5 0 0 0 1 104 10 47 37 2 0 0 0 154
0 0 0 2 3 1 1 6 1 7 6 0 0 0 0 0 2 5 0 0 0 0 0 0 0 0 0 0 0 63 28 13 0 0 18 0 0 0 5 14 0 1 53 91 32 0 342
0 0 0 4 5 1 1 8 11 7 5 0 0 0 0 0 0 0 0 0 0 0 0 0 0 0 0 0 0 0 173 0 0 25 0 1 0 0 0 2 0 0 3 0 0 267 43

GFSGBSN_con_sbcape_117.txt.gz
CAPE
4 6 6 4 1 0 0 1 2 2 1 1 1 0 1 2 2 3 3 3 2 3 2 2 1 1 0 0 0 0 230 0 0 0 0 0 0 0 0 29 125 123 14 8 28 61 71
6 6 6 8 6 2 4 4 4 1 1 2 1 0 0 1 1 1 2 2 2 3 2 2 1 0 0 0 0 0 0 0 0 0 0 0 0 0 0 12 126 82 53 14 23 45 84
8 10 13 4 9 5 5 3 3 3 1 0 0 0 0 0 0 1 1 1 1 2 2 2 1 0 0 0 0 0 0 0 0 0 0 0 0 0 0 38 231 134 83 18 134 137 79
12 10 7 7 2 0 0 0 1 4 1 0 0 0 0 0 0 1 1 1 1 1 1 1 0 0 0 0 0 0 0 0 0 0 0 0 0 0 0 59 71 51 61 64 80 38 79
5 10 8 6 2 0 0 0 0 1 1 0 0 0 0 1 2 2 3 2 0 0 1 0 0 0 0 0 0 0 0 0 0 0 0 0 0 0 0 2 77 50 62 9 47 13 111
1 5 2 2 6 1 1 0 1 0 0 0 0 0 2 3 0 0 0 0 0 0 0 0 0 0 0 0 0 0 0 0 0 0 0 0 0 0 0 0 0 68 74 21 64 45 116
2 2 2 1 8 4 0 0 0 0 1 0 0 2 0 0 0 0 0 0 0 0 0 0 0 0 0 0 0 0 0 0 0 0 0 0 0 0 0 0 30 92 73 62 50 59 76
4 2 10 1 0 0 0 0 0 0 0 0 1 2 3 0 0 1 0 0 0 0 0 0 0 0 0 0 0 0 0 0 0 0 0 0 0 0 0 7 169 113 102 56 68 122 111
2 2 5 1 3 2 1 0 0 0 0 1 1 3 1 0 1 0 0 0 0 0 0 0 0 0 0 0 0 0 0 0 0 0 0 0 0 0 215 226 205 130 120 44 64 5 16
8 6 3 4 3 2 1 1 0 0 0 0 1 4 0 1 0 0 0 0 0 0 0 0 0 0 0 0 0 0 0 0 0 0 0 0 0 0 308 156 131 203 132 59 36 8 0
8 6 5 4 3 2 1 0 1 0 0 0 1 2 0 0 0 0 0 0 0 0 0 0 0 0 0 0 0 0 0 0 0 0 0 0 0 0 0 318 132 74 143 50 3 17 0
9 9 7 4 3 2 1 0 0 0 0 0 0 1 0 0 0 0 0 0 0 0 0 0 0 0 0 0 0 0 0 0 0 0 0 0 0 0 0 20 119 214 72 23 6 0 0
7 8 7 5 2 1 1 0 0 0 0 0 0 0 0 0 0 0 0 0 0 0 0 0 0 0 0 0 0 0 0 0 0 0 0 0 0 420 356 312 291 188 52 29 19 15 0
5 5 4 3 2 0 1 1 0 0 0 0 0 0 0 0 0 0 0 0 0 0 0 0 0 0 0 0 0 0 0 0 0 0 0 0 385 578 429 286 302 114 38 36 2 20 10
5 4 3 2 1 1 1 0 0 0 0 0 0 0 0 0 0 0 0 0 0 0 0 0 0 0 0 0 0 0 0 0 0 0 0 0 0 0 538 450 300 305 118 8 3 4 15
5 4 3 2 1 1 1 0 0 0 0 0 0 0 0 0 0 0 0 0 0 0 0 0 0 0 0 0 0 0 0 14 1 0 0 0 0 0 19 560 355 213 88 85 6 42 22
3 5 6 4 2 2 1 0 0 0 0 0 0 0 0 0 0 0 0 0 0 0 0 0 0 0 0 0 0 0 3 2 0 0 0 0 0 1 0 16 391 0 1 0 0 0 3
2 4 2 6 4 3 2 0 0 0 0 0 0 0 0 0 0 0 0 0 0 0 0 0 0 0 0 0 0 0 0 1 0 0 0 0 0 0 0 0 0 0 0 0 0 0 0
1 1 0 1 2 6 3 0 0 0 0 0 0 0 0 0 0 0 0 0 0 0 0 0 0 0 0 0 0 1 0 0 0 0 0 0 0 0 0 1 0 1 0 0 0 0 0
0 2 0 0 0 0 4 0 0 0 0 0 0 0 0 0 0 0 0 0 0 0 0 0 0 0 0 0 0 0 0 3 0 0 0 26 0 0 0 0 0 0 0 0 0 0 0
0 0 1 1 1 0 1 1 0 0 0 0 0 0 0 0 0 0 0 0 0 0 0 0 0 0 0 0 0 0 0 0 0 18 0 0 0 0 0 0 0 0 207 190 65 5 0
0 0 1 2 1 1 3 1 0 0 0 0 0 0 0 0 0 0 0 0 0 0 0 0 0 0 0 0 0 0 0 0 0 0 0 0 0 0 0 0 0 332 237 165 210 321 307
0 0 1 1 1 1 1 1 1 0 0 0 0 0 0 0 0 0 0 0 0 0 0 0 0 0 0 0 0 0 0 0 0 0 0 0 0 0 0 0 8 0 89 225 244 329 199
1 0 0 0 1 1 3 1 2 2 0 0 0 0 0 0 0 0 0 0 0 0 0 0 0 0 0 0 0 0 0 0 0 0 0 0 0 0 0 0 1 0 3 261 251 182 197
2 3 1 0 0 1 1 1 2 3 2 0 0 0 0 0 2 0 1 0 0 0 0 0 0 0 0 0 0 0 0 0 0 0 0 0 0 0 0 0 0 10 0 0 4 213 157
1 4 1 1 1 1 2 2 4 4 3 0 0 0 0 0 0 3 3 0 0 0 0 0 0 0 0 0 0 0 0 0 4 0 0 0 0 0 0 19 20 10 0 0 0 207 118
1 5 2 1 1 1 3 1 4 3 4 0 0 0 0 0 0 2 2 0 0 0 0 0 0 0 0 0 0 0 9 1 0 0 0 0 0 0 0 0 1 70 0 2 22 0 209
4 3 1 0 0 2 1 3 7 9 8 0 0 0 0 0 0 1 0 0 0 0 0 0 0 0 0 0 0 1 0 1 0 0 0 0 0 0 0 1 6 5 20 49 0 0 313
4 4 1 0 0 1 3 4 5 11 8 1 0 0 0 0 0 0 0 0 0 0 0 0 0 0 0 0 0 0 24 0 0 2 0 0 0 0 0 0 0 0 1 0 0 233 384

GFSGBSN_con_sbcape_120.txt.gz
CAPE
5 6 10 6 1 2 2 0 2 3 2 1 1 0 1 1 2 2 2 2 3 1 0 2 2 1 0 0 0 0 61 2 0 0 0 0 0 0 0 22 163 128 65 46 64 85 74
2 3 7 4 3 1 0 0 0 1 1 1 1 1 0 0 0 1 2 3 3 2 1 2 1 0 0 0 0 0 0 0 0 0 0 0 0 0 0 0 131 121 67 29 36 69 101
7 9 3 1 1 1 0 0 0 0 2 1 1 0 0 1 1 2 3 2 2 2 2 1 0 0 0 0 0 0 0 0 0 0 0 0 0 0 0 40 274 71 90 56 54 113 75
2 5 3 2 1 0 1 0 0 0 0 0 0 0 1 1 2 1 0 0 1 1 1 1 0 0 0 0 0 0 0 0 0 0 0 0 0 0 0 111 87 190 79 67 70 25 87
3 4 2 1 3 4 3 2 1 0 0 0 0 1 2 0 0 0 0 1 0 0 0 0 0 0 0 0 0 0 0 0 0 0 0 0 0 0 1 37 44 33 10 8 49 20 67
3 9 6 1 1 0 0 1 0 1 1 1 1 2 0 0 0 0 0 0 0 0 0 0 0 0 0 0 0 0 0 0 0 0 0 0 0 0 0 0 0 36 5 0 1 25 86
6 3 7 2 3 3 3 1 0 0 1 2 2 3 3 0 0 0 0 0 0 0 0 0 0 0 0 0 0 0 0 0 0 0 0 0 0 0 0 0 18 113 92 15 24 25 66
4 9 5 5 5 4 2 1 1 1 1 1 2 3 2 0 1 1 0 0 0 0 0 0 0 0 0 0 0 0 0 0 0 0 0 0 0 0 0 0 180 175 134 85 75 61 96
6 5 4 6 5 4 2 0 0 1 1 2 2 4 0 0 0 0 0 0 0 0 0 0 0 0 0 0 0 0 0 0 0 0 0 0 0 0 154 221 225 191 130 68 54 67 23
7 8 6 5 5 3 2 1 1 1 1 1 2 2 0 1 0 0 0 0 0 0 0 0 0 0 0 0 0 0 0 0 0 0 0 0 0 0 281 260 224 179 103 117 48 0 16
7 8 8 5 4 3 2 1 1 1 1 1 3 1 0 0 0 0 0 0 0 0 0 0 0 0 0 0 0 0 0 0 0 0 0 0 0 0 300 242 42 150 171 94 23 0 0
5 6 7 6 5 3 1 1 1 1 1 1 2 1 0 0 0 0 0 0 0 0 0 0 0 0 0 0 0 0 0 0 0 0 0 0 0 0 0 42 197 180 124 43 6 0 0
3 3 3 5 3 2 1 1 1 0 0 0 0 0 0 0 0 0 0 0 0 0 0 0 0 0 0 0 0 0 0 0 0 0 0 0 0 446 514 438 296 142 39 17 8 1 0
5 5 3 3 2 2 2 1 0 0 0 0 0 0 0 0 0 0 0 0 0 0 0 0 0 0 0 0 0 0 0 0 0 0 0 0 45 602 488 498 513 156 42 10 13 23 3
5 2 4 5 2 2 3 1 0 0 0 0 0 0 0 0 0 0 0 0 0 0 0 0 0 0 0 0 0 0 0 0 0 0 0 0 0 3 539 572 419 248 82 0 0 0 0
4 1 1 1 5 3 3 1 0 0 0 0 0 0 0 0 0 0 0 0 0 0 0 0 0 0 0 0 0 0 0 0 0 0 0 0 2 0 391 537 315 179 7 18 11 21 27
3 1 0 0 0 2 5 3 0 0 0 0 0 0 0 0 0 0 0 0 0 0 0 0 0 0 0 0 0 0 0 0 0 0 0 0 0 6 1 210 353 33 93 0 0 0 3
1 1 0 0 0 0 2 4 0 0 0 0 0 0 0 0 0 0 0 0 0 0 0 0 0 0 0 0 0 0 0 0 0 0 0 0 0 0 0 0 0 0 0 0 0 0 0
0 0 1 2 2 2 0 1 0 0 0 0 0 0 0 0 0 0 0 0 0 0 0 0 0 0 0 0 0 0 0 0 0 0 0 0 1 18 3 0 0 0 0 0 0 0 0
0 1 2 2 0 1 1 0 0 0 0 0 0 0 0 0 0 0 0 0 0 0 0 0 0 0 0 0 0 0 0 0 0 5 26 0 0 1 9 0 0 0 0 0 0 0 0
1 1 0 1 4 3 0 0 0 0 0 0 0 0 0 0 0 0 0 0 0 0 0 0 0 0 0 0 0 0 0 0 0 0 0 0 0 0 0 0 0 0 155 261 211 32 0
1 2 1 1 0 0 2 1 0 0 0 0 0 0 0 0 0 0 0 0 0 0 0 0 0 0 0 0 0 0 0 0 0 0 0 0 0 0 0 0 186 369 219 167 371 412 234
1 1 3 2 0 0 1 2 0 0 0 0 0 0 0 0 0 0 0 0 0 0 0 0 0 0 0 0 0 0 0 0 0 0 0 0 0 0 0 0 39 1 50 223 172 142 85
3 3 6 5 2 1 0 4 1 0 0 0 0 0 0 0 0 0 0 0 0 0 0 0 0 0 0 0 0 0 0 0 0 0 0 0 0 0 0 0 0 0 5 275 311 236 43
1 3 7 7 2 2 1 1 6 2 3 0 0 0 0 0 0 0 0 0 0 0 0 0 0 0 0 0 0 0 0 0 0 0 0 0 0 0 0 0 0 21 4 15 162 261 228
2 7 6 9 7 1 3 3 5 5 1 0 0 0 0 0 0 0 0 0 0 0 0 0 0 0 0 0 0 0 0 0 0 0 0 0 0 0 0 0 36 0 0 13 50 185 245
8 7 6 10 8 2 3 2 4 9 2 3 0 0 0 0 0 0 0 0 0 0 0 0 0 0 0 0 0 0 0 0 0 0 0 0 0 0 0 0 0 0 0 9 128 3 279
9 6 6 4 3 2 2 3 5 6 10 3 0 0 0 0 0 0 0 0 0 0 0 0 0 0 0 0 0 0 0 0 0 0 0 0 0 0 0 0 0 0 0 18 1 21 387
8 7 5 2 1 2 3 5 6 9 11 1 0 0 0 0 0 0 0 0 0 0 0 0 0 0 0 0 0 0 0 0 0 0 0 0 0 0 0 0 0 0 0 0 1 208 265

GFSGBSN_con_sbcape_123.txt.gz
CAPE
6 7 8 4 4 1 0 0 1 1 2 1 1 1 0 1 1 2 2 3 3 2 2 1 1 0 0 0 0 0 26 0 0 0 0 0 24 4 31 47 310 326 155 131 84 121 224
3 9 9 2 3 1 0 1 0 1 2 1 1 1 1 1 2 2 3 1 0 1 1 1 1 0 0 0 0 0 0 0 0 0 0 0 2 0 0 23 369 138 132 73 104 164 183
5 7 6 4 5 1 0 1 1 1 0 0 1 1 2 3 1 1 0 1 1 0 1 1 0 0 0 0 0 0 0 0 0 0 0 0 0 0 0 409 381 203 160 130 128 117 130
6 6 8 3 1 1 0 0 0 1 0 1 2 2 3 0 0 0 2 2 1 1 0 0 0 0 0 0 0 0 0 0 0 0 0 0 0 0 4 311 216 148 79 196 14 95 90
5 1 9 6 5 4 3 1 1 1 2 2 2 3 0 0 0 1 1 0 0 0 0 0 0 0 0 0 0 0 0 0 0 0 0 0 0 0 214 117 85 141 63 88 43 17 81
8 8 7 3 4 5 4 3 2 2 3 3 3 4 0 0 0 1 0 0 0 0 0 0 0 0 0 0 0 0 0 0 0 0 0 0 0 0 1 5 25 87 119 31 22 3 80
5 4 2 5 4 5 4 3 2 2 2 2 3 5 0 3 0 0 0 0 0 0 0 0 0 0 0 0 0 0 0 0 0 0 0 0 0 0 0 0 0 38 138 38 3 18 1
2 1 2 4 2 4 3 4 3 2 2 2 4 1 0 0 1 0 0 0 0 0 0 0 0 0 0 0 0 0 0 0 0 0 0 0 0 0 0 0 20 154 176 114 92 27 26
6 6 4 4 3 3 3 3 3 2 2 2 5 0 0 1 0 0 0 0 0 0 0 0 0 0 0 0 0 0 0 0 0 0 0 1 0 0 0 0 103 218 177 146 132 133 81
3 3 4 3 3 3 2 3 4 3 2 2 5 0 0 0 0 0 0 0 0 0 0 0 0 0 0 0 0 0 0 0 0 0 0 0 0 0 0 0 191 126 164 167 127 113 67
4 5 4 3 3 2 1 2 3 2 1 2 4 1 0 0 0 0 0 0 0 0 0 0 0 0 0 0 0 0 0 0 0 0 0 0 0 0 9 6 308 190 268 230 140 73 59
5 5 6 6 3 3 2 2 2 1 1 1 2 1 0 0 0 0 0 0 0 0 0 0 0 0 0 0 0 0 0 0 0 0 0 0 0 0 0 317 349 401 255 186 105 75 70
0 1 1 4 5 4 3 2 2 1 0 0 0 0 0 0 0 0 0 0 0 0 0 0 0 0 0 0 0 0 0 0 0 0 0 0 0 307 221 319 541 350 298 211 196 150 75
1 0 0 0 1 2 3 4 2 1 0 0 0 0 0 0 0 0 0 0 0 0 0 0 0 0 0 0 0 0 0 0 0 0 0 0 70 577 669 349 365 377 59 115 107 133 79
3 1 0 0 0 0 0 2 1 1 1 0 0 0 0 0 0 0 0 0 0 0 0 0 0 0 0 0 0 0 0 0 0 0 0 0 0 580 722 743 577 415 168 84 86 35 29
2 0 0 1 0 0 0 0 0 1 1 0 0 0 0 0 0 0 0 0 0 0 0 0 0 0 0 0 0 0 0 0 0 0 0 0 14 69 852 767 388 559 330 272 150 73 0
0 1 0 2 1 0 1 0 1 0 0 0 0 0 0 0 0 0 0 0 0 0 0 0 0 0 0 0 0 0 0 1 1 0 0 0 9 36 715 839 757 512 496 83 38 39 47
0 0 1 1 1 0 1 0 0 0 0 0 0 0 0 0 0 0 0 0 0 0 0 0 0 0 0 0 0 0 0 0 0 0 0 0 3 134 56 0 0 230 294 315 197 32 29
0 1 0 0 1 0 0 1 0 0 0 0 0 0 0 0 0 0 0 0 0 0 0 0 0 0 0 0 0 0 0 0 0 0 0 0 31 203 189 56 1 89 14 0 0 0 0
1 1 3 1 1 2 1 0 0 0 0 0 0 0 0 0 0 0 0 0 0 0 0 0 0 0 0 0 0 0 0 0 0 5 0 2 31 128 131 159 8 88 227 42 0 0 0
2 3 3 3 2 1 0 0 0 0 0 0 0 0 0 0 0 0 0 0 0 0 0 0 0 0 0 0 0 0 0 0 0 0 0 0 28 7 5 28 3 555 604 715 352 334 0
1 4 3 6 4 1 0 0 0 0 0 0 0 0 0 0 0 0 0 0 0 0 0 0 0 0 0 0 0 0 0 0 0 0 5 0 38 25 0 2 38 464 340 333 695 577 446
2 4 5 7 7 3 1 0 1 0 0 0 0 0 0 0 0 0 0 0 0 0 0 0 0 0 0 0 0 0 0 0 0 0 12 28 64 64 2 0 67 141 207 161 548 666 644
4 4 4 5 10 6 3 2 0 1 0 1 0 0 0 0 0 0 0 0 0 0 0 0 0 0 0 0 0 0 0 0 0 0 0 22 43 18 1 31 31 90 302 531 522 556 410
0 5 4 5 8 11 2 3 2 2 1 4 0 0 0 0 0 0 0 0 0 0 0 0 0 0 0 0 0 0 0 0 0 0 0 0 7 49 23 12 0 136 426 731 569 602 671
9 8 8 6 7 13 2 2 2 3 2 6 0 0 0 0 0 0 0 0 0 0 0 0 0 0 0 0 0 0 0 5 17 11 0 0 2 73 124 139 2 125 100 138 277 369 759
9 8 9 7 5 9 3 2 3 4 6 10 2 0 0 0 0 0 0 0 0 0 0 0 0 0 0 0 0 0 40 0 54 42 2 19 88 152 195 190 142 23 121 213 344 231 777
9 8 10 9 5 8 2 2 3 6 11 11 1 0 0 0 0 0 0 0 0 0 0 0 1 7 0 7 0 30 98 178 65 11 31 107 168 232 209 296 96 242 218 424 340 339 608
6 8 6 5 6 2 2 3 8 9 10 2 2 0 0 0 0 0 0 0 0 0 0 0 2 1 5 4 0 16 73 1 124 81 0 119 62 271 260 249 127 233 275 194 216 572 701

GFSGBSN_con_sbcape_126.txt.gz
CAPE
5 7 8 5 3 2 1 0 0 2 1 1 1 1 1 2 3 2 2 2 0 0 2 1 1 0 0 0 0 0 0 0 0 0 0 2 82 342 323 236 574 506 453 272 117 253 314
7 8 1 5 5 4 3 2 1 0 0 1 1 2 2 2 1 1 2 1 1 1 2 1 0 0 0 0 0 0 0 0 0 0 0 28 227 88 32 546 637 604 459 209 139 178 355
8 6 5 5 3 2 2 1 2 1 1 1 1 2 1 0 0 0 2 2 0 1 1 0 0 0 0 0 0 0 0 0 0 0 0 0 55 0 2 818 735 572 455 261 121 126 364
7 3 4 3 3 2 3 3 2 2 1 2 2 2 0 0 1 1 1 1 1 0 0 0 0 0 0 0 0 0 0 0 0 0 0 0 0 0 26 659 484 499 453 314 252 196 150
7 2 4 5 3 4 4 3 2 1 2 1 1 2 0 0 0 1 0 0 0 0 0 0 0 0 0 0 0 0 0 0 0 0 0 0 0 0 363 216 214 419 148 253 206 216 144
2 1 3 3 2 3 4 5 4 4 2 2 3 4 0 0 0 1 0 0 0 0 0 0 0 0 0 0 0 0 0 0 0 0 0 0 0 0 257 110 64 132 151 138 142 89 136
1 1 1 4 3 4 4 4 3 3 3 2 5 0 0 0 1 0 0 0 0 0 0 0 0 0 0 0 0 0 0 0 0 0 0 0 65 39 15 85 0 6 161 186 84 22 6
5 4 2 3 5 5 4 4 3 2 2 3 4 0 0 2 0 0 0 0 0 0 0 0 0 0 0 0 0 0 0 0 0 0 0 9 61 37 0 0 0 26 149 200 179 50 45
4 4 5 6 5 5 5 4 3 2 2 3 4 1 2 0 0 0 0 0 0 0 0 0 0 0 0 0 0 0 0 0 0 0 0 6 64 0 0 0 4 36 153 61 93 188 134
4 2 3 5 5 5 5 2 2 3 2 3 5 2 0 0 0 0 0 0 0 0 0 0 0 0 0 0 0 0 0 0 0 0 0 10 0 0 10 40 44 94 211 94 134 290 142
3 2 1 1 2 3 0 0 0 2 2 2 4 2 0 0 0 0 0 0 0 0 0 0 0 0 0 0 0 0 0 0 0 0 0 4 0 0 0 5 101 209 253 169 161 220 186
0 1 3 2 0 0 0 0 0 0 3 2 3 2 0 0 0 0 0 0 0 0 0 0 0 0 0 0 0 0 0 0 0 0 0 0 0 0 0 0 102 422 299 212 179 245 201
2 1 2 2 1 1 0 0 0 0 1 1 1 0 0 0 0 0 0 0 0 0 0 0 0 0 0 0 0 0 0 0 0 0 0 0 0 0 0 8 310 496 476 164 187 199 127
2 1 1 1 1 1 1 0 0 0 1 1 0 0 0 0 0 0 0 0 0 0 0 0 0 0 0 0 0 0 0 0 0 0 0 1 4 2 13 16 164 343 246 158 157 147 215
0 1 1 1 1 1 1 1 0 0 0 1 0 0 0 0 0 0 0 0 0 0 0 0 0 0 0 0 0 0 0 0 0 0 4 6 9 285 470 402 237 257 252 139 193 132 168
0 0 0 0 0 0 1 0 0 1 0 0 0 0 0 0 0 0 0 0 0 0 0 0 0 0 0 0 4 12 15 0 0 0 0 29 63 370 817 866 655 667 403 190 151 145 143
2 2 1 0 0 0 1 1 1 0 0 0 0 0 0 0 0 0 0 0 0 0 0 0 0 0 0 0 1 15 32 6 3 6 0 23 90 289 957 932 691 775 722 348 362 313 105
0 1 1 1 0 0 1 0 0 0 0 0 0 0 0 0 0 0 0 0 0 0 0 0 0 0 0 0 3 13 31 20 0 0 37 26 86 226 332 219 399 572 510 248 325 232 149
0 1 2 2 1 1 1 0 0 0 0 0 0 0 0 0 0 0 0 0 0 0 0 0 0 0 0 0 2 0 0 0 0 0 21 24 119 203 224 280 260 304 308 219 270 74 113
0 0 2 4 3 2 1 0 0 0 0 0 0 0 0 0 0 0 0 0 0 0 0 0 0 0 0 0 0 0 0 0 0 0 0 2 83 113 40 225 135 280 349 303 172 124 51
0 0 4 6 5 5 1 0 0 0 0 0 0 0 0 0 0 0 0 0 0 0 0 0 0 0 0 0 0 0 0 0 0 0 60 9 75 44 47 74 133 195 309 476 258 295 225
0 1 3 6 9 6 4 1 0 0 0 0 0 0 0 0 0 0 0 0 0 0 0 0 0 0 0 0 0 0 0 0 1 1 8 43 68 52 68 30 140 349 421 371 466 467 406
0 0 1 6 5 7 6 2 0 0 0 0 0 0 0 0 0 0 0 0 0 0 0 0 0 0 0 0 0 0 0 0 0 0 0 16 75 114 104 62 19 124 350 326 335 480 484
1 2 3 8 5 8 8 4 1 0 0 0 0 0 0 0 0 0 0 0 0 0 0 0 0 0 0 0 0 0 0 0 0 0 0 0 31 68 54 75 114 257 501 482 521 512 600
4 6 6 9 7 10 10 5 3 0 0 0 0 0 0 0 0 0 0 0 0 2 0 0 0 0 0 0 0 0 0 0 0 0 12 53 12 6 16 14 6 35 100 446 386 367 509
6 7 8 9 7 8 7 7 2 0 0 4 1 0 0 0 0 0 0 0 4 0 0 0 0 0 0 0 0 0 7 7 2 53 31 83 153 161 94 49 43 245 478 542 786 390 898
7 7 9 8 6 4 7 6 2 1 1 7 2 0 0 0 0 0 0 0 0 0 1 0 0 0 0 20 19 9 6 68 0 0 24 44 124 84 139 163 157 357 463 602 374 535 1058
6 8 8 9 6 4 9 2 1 3 6 7 3 1 0 0 0 0 0 1 1 0 31 26 8 1 0 27 68 77 81 92 80 10 13 25 101 109 124 137 124 430 536 575 833 952 838
6 5 4 4 5 6 4 3 3 9 8 8 5 0 0 0 0 0 0 0 0 10 44 6 82 69 57 88 126 104 211 185 76 40 180 45 94 315 164 286 679 650 557 727 698 749 1186